[[{"header":{"parameterUnit":"m.s-1","parameterCategory":1,"la1":30.6,"la2":28.766,"lo1":-90.7593,"lo2":-88.6598,"dy":0.0162,"dx":0.0183,"nx":116,"ny":114,"refTime":"2024-06-24T12:00:00:Z","depth":0,"parameterNumber":2,"parameterNumberName":"U-component_of_WINDS"},"data":[0.0,0.0,0.0,0.0,0.0,0.0,0.0,0.0,0.0,0.0,0.0,0.0,0.0,0.0,0.0,0.0,0.0,0.0,0.0,0.0,0.0,0.0,0.0,0.0,0.0,0.0,0.0,0.0,0.0,0.0,0.0,0.0,0.0,0.0,0.0,0.0,0.0,0.0,0.0,0.0,0.0,0.0,0.0,0.0,0.0,0.0,0.0,0.0,0.0,0.0,0.0,0.0,0.0,0.0,0.0,0.0,0.0,0.0,0.0,0.0,0.0,0.0,0.0,0.0,0.0,0.0,0.0,0.0,0.0,0.0,0.0,0.0,0.0,0.0,0.0,0.0,0.0,0.0,0.0,0.0,0.0,0.0,0.0,0.0,0.0,0.0,0.0,0.0,0.0,0.0,0.0,0.0,0.0,0.0,0.0,0.0,0.0,0.0,0.0,0.0,0.0,0.0,0.0,0.0,0.0,0.0,0.0,0.0,0.0,0.0,0.0,0.0,0.0,0.0,0.0,0.0,0.0,0.0,0.0,0.0,0.0,0.0,0.0,0.0,0.0,0.0,0.0,0.0,0.0,0.0,0.0,0.0,0.0,0.0,0.0,0.0,0.0,0.0,0.0,0.0,0.0,0.0,0.0,0.0,0.0,0.0,0.0,0.0,0.0,0.0,0.0,0.0,0.0,0.0,0.0,0.0,0.0,0.0,0.0,0.0,0.0,0.0,0.0,0.0,0.0,0.0,0.0,0.0,0.0,0.0,0.0,0.0,0.0,0.0,0.0,0.0,0.0,0.0,0.0,0.0,0.0,0.0,0.0,0.0,0.0,0.0,0.0,0.0,0.0,0.0,0.0,0.0,0.0,0.0,0.0,0.0,0.0,0.0,0.0,0.0,0.0,0.0,0.0,0.0,0.0,0.0,0.0,0.0,0.0,0.0,0.0,0.0,0.0,0.0,0.0,0.0,0.0,0.0,0.0,0.0,0.0,0.0,0.0,0.0,0.0,0.0,0.0,0.0,0.0,0.0,0.0,0.0,0.0,0.0,0.0,0.0,0.0,0.0,0.0,0.0,0.0,0.0,0.0,0.0,0.0,0.0,0.0,0.0,0.0,0.0,0.0,0.0,0.0,0.0,0.0,0.0,0.0,0.0,0.0,0.0,0.0,0.0,0.0,0.0,0.0,0.0,0.0,0.0,0.0,0.0,0.0,0.0,0.0,0.0,0.0,0.0,0.0,0.0,0.0,0.0,0.0,0.0,0.0,0.0,0.0,0.0,0.0,0.0,0.0,0.0,0.0,0.0,0.0,0.0,0.0,0.0,0.0,0.0,0.0,0.0,0.0,0.0,0.0,0.0,0.0,0.0,0.0,0.0,0.0,0.0,0.0,0.0,0.0,0.0,0.0,0.0,0.0,0.0,0.0,0.0,0.0,0.0,0.0,0.0,0.0,0.0,0.0,0.0,0.0,0.0,0.0,0.0,0.0,0.0,0.0,0.0,0.0,0.0,0.0,0.0,0.0,0.0,0.0,0.0,0.0,0.0,0.0,0.0,0.0,0.0,0.0,0.0,0.0,0.0,0.0,0.0,0.0,0.0,0.0,0.0,0.0,0.0,0.0,0.0,0.0,0.0,0.0,0.0,0.0,0.0,0.0,0.0,0.0,0.0,0.0,0.0,0.0,0.0,0.0,0.0,0.0,0.0,0.0,0.0,0.0,0.0,0.0,0.0,0.0,0.0,0.0,0.0,0.0,0.0,0.0,0.0,0.0,0.0,0.0,0.0,0.0,0.0,0.0,0.0,0.0,0.0,0.0,0.0,0.0,0.0,0.0,0.0,0.0,0.0,0.0,0.0,0.0,0.0,0.0,0.0,0.0,0.0,0.0,0.0,0.0,0.0,0.0,0.0,0.0,0.0,0.0,0.0,0.0,0.0,0.0,0.0,0.0,0.0,0.0,0.0,0.0,0.0,0.0,0.0,0.0,0.0,0.0,0.0,0.0,0.0,0.0,0.0,0.0,0.0,0.0,0.0,0.0,0.0,0.0,0.0,0.0,0.0,0.0,0.0,0.0,0.0,0.0,0.0,0.0,0.0,0.0,0.0,0.0,0.0,0.0,0.0,0.0,0.0,0.0,0.0,0.0,0.0,0.0,0.0,0.0,0.0,0.0,0.0,0.0,0.0,0.0,0.0,0.0,0.0,0.0,0.0,0.0,0.0,0.0,0.0,0.0,0.0,0.0,0.0,0.0,0.0,0.0,0.0,0.0,0.0,0.0,0.0,0.0,0.0,0.0,0.0,0.0,0.0,0.0,0.0,0.0,0.0,0.0,0.0,0.0,0.0,0.0,0.0,0.0,0.0,0.0,0.0,0.0,0.0,0.0,0.0,0.0,0.0,0.0,0.0,0.0,0.0,0.0,0.0,0.0,0.0,0.0,0.0,0.0,0.0,0.0,0.0,0.0,0.0,0.0,0.0,0.0,0.0,0.0,0.0,0.0,0.0,0.0,0.0,0.0,0.0,0.0,0.0,0.0,0.0,0.0,0.0,0.0,0.0,0.0,0.0,0.0,0.0,0.0,0.0,0.0,0.0,0.0,0.0,0.0,0.0,0.0,0.0,0.0,0.0,0.0,0.0,0.0,0.0,0.0,0.0,0.0,0.0,0.0,0.0,0.0,0.0,0.0,0.0,0.0,0.0,0.0,0.0,0.0,0.0,0.0,0.0,0.0,0.0,0.0,0.0,0.0,0.0,0.0,0.0,0.0,0.0,0.0,0.0,0.0,0.0,0.0,0.0,0.0,0.0,0.0,0.0,0.0,0.0,0.0,0.0,0.0,0.0,0.0,0.0,0.0,0.0,0.0,0.0,0.0,0.0,0.0,0.0,0.0,0.0,0.0,0.0,0.0,0.0,0.0,0.0,0.0,0.0,0.0,0.0,0.0,0.0,0.0,0.0,0.0,0.0,0.0,0.0,0.0,0.0,0.0,0.0,0.0,0.0,0.0,0.0,0.0,0.0,0.0,0.0,0.0,0.0,0.0,0.0,0.0,0.0,0.0,0.0,0.0,0.0,0.0,0.0,0.0,0.0,0.0,0.0,0.0,0.0,0.0,0.0,0.0,0.0,0.0,0.0,0.0,0.0,0.0,0.0,0.0,0.0,0.0,0.0,0.0,0.0,0.0,0.0,0.0,0.0,0.0,0.0,0.0,0.0,0.0,0.0,0.0,0.0,0.0,0.0,0.0,0.0,0.0,0.0,0.0,0.0,0.0,0.0,0.0,0.0,0.0,0.0,0.0,0.0,0.0,0.0,0.0,0.0,0.0,0.0,0.0,0.0,0.0,0.0,0.0,0.0,0.0,0.0,0.0,0.0,0.0,0.0,0.0,0.0,0.0,0.0,0.0,0.0,0.0,0.0,0.0,0.0,0.0,0.0,0.0,0.0,0.0,0.0,0.0,0.0,0.0,0.0,0.0,0.0,0.0,0.0,0.0,0.0,0.0,0.0,0.0,0.0,0.0,0.0,0.0,0.0,0.0,0.0,0.0,0.0,0.0,0.0,0.0,0.0,0.0,0.0,0.0,0.0,0.0,0.0,0.0,0.0,0.0,0.0,0.0,0.0,0.0,0.0,0.0,0.0,0.0,0.0,0.0,0.0,0.0,0.0,0.0,0.0,0.0,0.0,0.0,0.0,0.0,0.0,0.0,0.0,0.0,0.0,0.0,0.0,0.0,0.0,0.0,0.0,0.0,0.0,0.0,0.0,0.0,0.0,0.0,0.0,0.0,0.0,0.0,0.0,0.0,0.0,0.0,0.0,0.0,0.0,0.0,0.0,0.0,0.0,0.0,0.0,0.0,0.0,0.0,0.0,0.0,0.0,0.0,0.0,0.0,0.0,0.0,0.0,0.0,0.0,0.0,0.0,0.0,0.0,0.0,0.0,0.0,0.0,0.0,0.0,0.0,0.0,0.0,0.0,0.0,0.0,0.0,0.0,0.0,0.0,0.0,0.0,0.0,0.0,0.0,0.0,0.0,0.0,0.0,0.0,0.0,0.0,0.0,0.0,0.0,0.0,0.0,0.0,0.0,0.0,0.0,0.0,0.0,0.0,0.0,0.0,0.0,0.0,0.0,0.0,0.0,0.0,0.0,0.0,0.0,0.0,0.0,0.0,0.0,0.0,0.0,0.0,0.0,0.0,0.0,0.0,0.0,0.0,0.0,0.0,0.0,0.0,0.0,0.0,0.0,0.0,0.0,0.0,0.0,0.0,0.0,0.0,0.0,0.0,0.0,0.0,0.0,0.0,0.0,0.0,0.0,0.0,0.0,0.0,0.0,0.0,0.0,0.0,0.0,0.0,0.0,0.0,0.0,0.0,0.0,0.0,0.0,0.0,0.0,0.0,0.0,0.0,0.0,0.0,0.0,0.0,0.0,0.0,0.0,0.0,0.0,0.0,0.0,0.0,0.0,0.0,0.0,0.0,0.0,0.0,0.0,0.0,0.0,0.0,0.0,0.0,0.0,0.0,0.0,0.0,0.0,0.0,0.0,0.0,0.0,0.0,0.0,0.0,0.0,0.0,0.0,0.0,0.0,0.0,0.0,0.0,0.0,0.0,0.0,0.0,0.0,0.0,0.0,0.0,0.0,0.0,0.0,0.0,0.0,0.0,0.0,0.0,0.0,0.0,0.0,0.0,0.0,0.0,0.0,0.0,0.0,0.0,0.0,0.0,0.0,0.0,0.0,0.0,0.0,0.0,0.0,0.0,0.0,0.0,0.0,0.0,0.0,0.0,0.0,0.0,0.0,0.0,0.0,0.0,0.0,0.0,0.0,0.0,0.0,0.0,0.0,0.0,0.0,0.0,0.0,0.0,0.0,0.0,0.0,0.0,0.0,0.0,0.0,0.0,0.0,0.0,0.0,0.0,0.0,0.0,0.0,0.0,0.0,0.0,0.0,0.0,0.0,0.0,0.0,0.0,0.0,0.0,0.0,0.0,0.0,0.0,0.0,0.0,0.0,0.0,0.0,0.0,0.0,0.0,0.0,0.0,0.0,0.0,0.0,0.0,0.0,0.0,0.0,0.0,0.0,0.0,0.0,0.0,0.0,0.0,0.0,0.0,0.0,0.0,0.0,0.0,0.0,0.0,0.0,0.0,0.0,0.0,0.0,0.0,0.0,0.0,0.0,0.0,0.0,0.0,0.0,0.0,0.0,0.0,0.0,0.0,0.0,0.0,0.0,0.0,0.0,0.0,0.0,0.0,0.0,0.0,0.0,0.0,0.0,0.0,0.0,0.0,0.0,0.0,0.0,0.0,0.0,0.0,0.0,0.0,0.0,0.0,0.0,0.0,0.0,0.0,0.0,0.0,0.0,0.0,0.0,0.0,0.0,0.0,0.0,0.0,0.0,0.0,0.0,0.0,0.0,0.0,0.0,0.0,0.0,0.0,0.0,0.0,0.0,0.0,0.0,0.0,0.0,0.0,0.0,0.0,0.0,0.0,0.0,0.0,0.0,0.0,0.0,0.0,0.0,0.0,0.0,0.0,0.0,0.0,0.0,0.0,0.0,0.0,0.0,0.0,0.0,0.0,0.0,0.0,0.0,0.0,0.0,0.0,0.0,0.0,0.0,0.0,0.0,0.0,0.0,0.0,0.0,0.0,0.0,0.0,0.0,0.0,0.0,0.0,0.0,0.0,0.0,0.0,0.0,0.0,0.0,0.0,0.0,0.0,0.0,0.0,0.0,0.0,0.0,0.0,0.0,0.0,0.0,0.0,0.0,0.0,0.0,0.0,0.0,0.0,0.0,0.0,0.0,0.0,0.0,0.0,0.0,0.0,0.0,0.0,0.0,0.0,0.0,0.0,0.0,0.0,0.0,0.0,0.0,0.0,0.0,0.0,0.0,0.0,0.0,0.0,0.0,0.0,0.0,0.0,0.0,0.0,0.0,0.0,0.0,0.0,0.0,0.0,0.0,0.0,0.0,0.0,0.0,0.0,0.0,0.0,0.0,0.0,0.0,0.0,0.0,0.0,0.0,0.0,0.0,0.0,0.0,0.0,0.0,0.0,0.0,0.0,0.0,0.0,0.0,0.0,0.0,0.0,0.0,0.0,0.0,0.0,0.0,0.0,-3.5814,-3.4732,0.0,0.0,0.0,0.0,0.0,0.0,0.0,0.0,0.0,0.0,0.0,0.0,0.0,0.0,0.0,0.0,0.0,0.0,0.0,0.0,0.0,0.0,0.0,-1.8203,-1.8402,-1.7499,-1.5863,-1.3795,-1.1217,0.0,0.0,0.0,-0.5007,-0.5888,-0.8112,-1.007,-1.2507,-1.5496,-1.7228,-1.9127,-2.1167,-2.1746,-2.2293,-2.2764,0.0,0.0,0.0,0.0,0.0,0.0,0.0,0.0,0.0,0.0,0.0,0.0,0.0,0.0,0.0,0.0,0.0,0.0,0.0,0.0,0.0,0.0,0.0,0.0,0.0,0.0,0.0,0.0,0.0,0.0,0.0,0.0,0.0,0.0,0.0,0.0,0.0,0.0,0.0,0.0,0.0,0.0,0.0,0.0,0.0,0.0,0.0,0.0,0.0,0.0,0.0,0.0,0.0,0.0,0.0,0.0,0.0,0.0,0.0,0.0,0.0,0.0,0.0,0.0,0.0,0.0,0.0,0.0,0.0,0.0,-3.6257,-3.5083,0.0,0.0,0.0,0.0,0.0,0.0,0.0,0.0,0.0,0.0,0.0,0.0,0.0,0.0,0.0,0.0,0.0,0.0,0.0,0.0,0.0,-1.3829,-1.563,-1.6836,-1.7171,-1.6329,-1.4697,-1.2619,-0.993,-0.6941,-0.4606,-0.3021,-0.2971,-0.41,-0.6406,-0.8797,-1.1464,-1.4472,-1.6802,-1.9039,-2.1157,-2.168,-2.2022,-2.2135,-2.0936,0.0,0.0,0.0,0.0,0.0,0.0,0.0,0.0,0.0,0.0,0.0,0.0,0.0,0.0,0.0,0.0,0.0,0.0,0.0,0.0,0.0,0.0,0.0,0.0,0.0,0.0,0.0,0.0,0.0,0.0,0.0,0.0,0.0,0.0,0.0,0.0,0.0,0.0,0.0,0.0,0.0,0.0,0.0,0.0,0.0,0.0,0.0,0.0,0.0,0.0,0.0,0.0,0.0,0.0,0.0,0.0,0.0,0.0,0.0,0.0,0.0,0.0,0.0,-4.1704,-4.1977,-4.1469,-4.0837,-3.9725,-3.8227,-3.6361,-3.5303,-3.4723,-3.3741,0.0,0.0,0.0,0.0,0.0,0.0,0.0,0.0,0.0,0.0,0.0,0.0,0.0,0.0,0.0,0.0,0.0,0.0,0.0,-1.3793,-1.4922,-1.5861,-1.6127,-1.5429,-1.4003,-1.2111,-0.9788,-0.6867,-0.458,-0.3126,-0.2813,-0.3797,-0.6169,-0.8774,-1.1497,-1.4323,-1.7903,-2.0237,-2.13,-2.1748,-2.1911,-2.1751,-2.0814,-1.9982,-1.9236,0.0,0.0,0.0,0.0,0.0,0.0,0.0,0.0,0.0,0.0,0.0,0.0,0.0,0.0,0.0,0.0,0.0,0.0,0.0,0.0,0.0,0.0,0.0,0.0,0.0,0.0,0.0,0.0,0.0,0.0,0.0,0.0,0.0,0.0,0.0,0.0,0.0,0.0,0.0,0.0,0.0,-3.0856,-3.0678,0.0,0.0,0.0,0.0,0.0,0.0,0.0,0.0,0.0,0.0,0.0,0.0,0.0,-3.7698,-4.0182,-4.015,-4.0914,-4.2523,-4.2311,-4.2179,-4.2137,-4.0801,-3.9989,-3.9334,-3.7017,0.0,-3.432,-3.3659,0.0,0.0,0.0,0.0,0.0,0.0,0.0,0.0,0.0,0.0,0.0,0.0,0.0,0.0,0.0,0.0,0.0,0.0,0.0,0.0,0.0,-1.472,-1.4775,-1.432,-1.3072,-1.1495,-0.946,-0.706,-0.509,-0.3742,-0.3774,-0.4979,-0.7377,-1.001,-1.327,-1.7218,-1.9959,-2.1722,-2.2541,-2.263,-2.2622,-2.2441,-2.1438,-2.055,-1.9814,-1.9251,0.0,0.0,0.0,0.0,0.0,0.0,0.0,0.0,0.0,0.0,0.0,0.0,0.0,0.0,0.0,0.0,0.0,0.0,0.0,0.0,0.0,0.0,0.0,0.0,0.0,0.0,0.0,0.0,0.0,0.0,0.0,0.0,0.0,0.0,0.0,0.0,0.0,0.0,0.0,-3.0047,-3.1186,-3.1445,-3.1712,-3.1801,0.0,0.0,0.0,0.0,0.0,0.0,0.0,0.0,0.0,-3.8052,-3.8035,-3.8944,-4.0849,-4.0791,-4.1278,-4.2402,-4.2244,-4.198,-4.1672,-4.0696,-3.9816,-3.9093,-3.7888,-3.6652,-3.5324,-3.3678,-3.2811,-3.2441,0.0,0.0,0.0,0.0,-3.2067,-3.2538,0.0,0.0,0.0,0.0,0.0,0.0,0.0,0.0,0.0,0.0,0.0,0.0,-1.4181,-1.3991,-1.3657,-1.3109,-1.23,-1.1206,-0.9854,-0.8183,-0.6753,-0.5586,-0.5945,-0.7196,-0.9364,-1.2271,-1.5802,-2.0006,-2.161,-2.2716,-2.3335,-2.3274,-2.3126,-2.2775,-2.1817,-2.1055,-2.0395,-1.9945,-1.9624,-1.9391,0.0,0.0,0.0,0.0,0.0,0.0,0.0,0.0,0.0,0.0,0.0,0.0,0.0,0.0,0.0,0.0,0.0,0.0,0.0,0.0,0.0,0.0,0.0,0.0,0.0,0.0,0.0,0.0,0.0,0.0,0.0,0.0,0.0,0.0,0.0,0.0,0.0,-3.0208,-3.1617,-3.255,-3.2758,-3.2887,0.0,0.0,0.0,0.0,0.0,0.0,-3.6149,-3.657,-3.7404,-3.8659,-3.879,-3.9561,-4.091,-4.1106,-4.1337,-4.1808,-4.1901,-4.1573,-4.0972,-4.0285,-3.9627,-3.9043,-3.843,-3.7749,-3.6835,-3.44,-3.3386,-3.3267,-3.2163,-3.2178,-3.2806,-3.2877,-3.311,-3.3451,0.0,0.0,0.0,0.0,0.0,0.0,0.0,0.0,0.0,0.0,0.0,-1.59,-1.4685,-1.393,-1.3046,-1.1817,-1.1704,-1.1696,-1.1592,-1.0876,-1.0149,-0.9448,-0.9807,-1.0669,-1.2077,-1.58,-1.8923,-2.1395,-2.2255,-2.2721,-2.2833,-2.3277,-2.2953,-2.2049,-2.1601,-2.1261,-2.1023,-2.0628,-2.0323,-2.003,-1.9747,0.0,0.0,0.0,0.0,0.0,0.0,0.0,0.0,0.0,0.0,0.0,0.0,0.0,0.0,0.0,0.0,0.0,0.0,0.0,0.0,0.0,0.0,0.0,0.0,0.0,0.0,0.0,0.0,0.0,0.0,0.0,0.0,0.0,0.0,0.0,0.0,0.0,0.0,-3.428,-3.5021,0.0,0.0,0.0,0.0,-3.5602,-3.6119,-3.6257,-3.5849,-3.6289,-3.7068,-3.8208,-3.7855,-3.8589,-4.0517,-4.0648,-4.0896,-4.1319,-4.1306,-4.0972,-4.0216,-3.9722,-3.9621,-3.9906,-3.8238,-3.809,-3.8748,-3.6365,-3.5385,-3.5248,-3.4077,-3.4115,-3.4715,-3.4369,-3.3955,-3.3678,0.0,0.0,0.0,-0.5383,-0.573,-0.6701,-0.8091,-1.0816,-1.3761,-1.6677,-1.7773,-1.7719,-1.6232,-1.4655,-1.3062,-1.1529,-1.0894,-1.0629,-1.0875,-1.1099,-1.1129,-1.0925,-1.1905,-1.3527,-1.5928,-1.8739,-2.0679,-2.1687,-2.2877,-2.3456,-2.3446,-2.346,-2.3135,-2.2535,-2.1722,-2.1183,-2.0893,-2.0577,-2.0304,-2.0065,-1.9777,-1.9574,0.0,0.0,0.0,0.0,0.0,0.0,0.0,0.0,0.0,0.0,0.0,0.0,0.0,0.0,0.0,0.0,0.0,0.0,0.0,0.0,0.0,0.0,0.0,0.0,0.0,0.0,0.0,0.0,0.0,0.0,0.0,0.0,0.0,0.0,0.0,0.0,0.0,-3.5824,-3.6193,0.0,-3.6527,-3.6765,-3.676,-3.6443,-3.6808,-3.6856,-3.6334,-3.7154,-3.7729,-3.7916,-3.8538,-3.9285,-4.0205,-4.0417,-4.0655,-4.1007,-4.0993,-4.0646,-4.0021,-3.9916,-3.9877,-3.986,-3.9498,-3.963,-3.99,-3.8385,-3.7011,-3.5782,-3.5225,-3.5487,-3.6017,-3.5998,-3.5736,-3.5344,-0.9918,-0.9649,0.0,-0.7929,-0.8544,-0.9675,-1.1076,-1.3355,-1.5984,-1.8987,-1.9211,-1.8671,-1.7603,-1.5285,-1.3213,-1.1838,-1.0914,-1.0686,-1.143,-1.2092,-1.2626,-1.3027,-1.4452,-1.6381,-1.8793,-2.0634,-2.1809,-2.2251,-2.3398,-2.3777,-2.3399,-2.3328,-2.2939,-2.232,-2.1181,-2.0622,-2.0413,-1.9974,-1.9917,-2.0065,-1.969,-1.9523,-1.9465,0.0,0.0,0.0,0.0,0.0,0.0,0.0,0.0,0.0,0.0,0.0,0.0,0.0,0.0,0.0,0.0,0.0,0.0,0.0,0.0,0.0,0.0,0.0,0.0,0.0,0.0,0.0,0.0,0.0,0.0,0.0,0.0,0.0,0.0,-3.3944,-3.5602,-3.737,-3.779,-3.7988,-3.8116,-3.815,-3.8018,-3.7657,-3.7721,-3.7556,-3.6974,-3.7755,-3.821,-3.8065,-3.8739,-3.9408,-3.9999,-4.0242,-4.0472,-4.0674,-4.0727,-4.0493,-4.0172,-4.0114,-4.0277,-4.0554,-4.0436,-4.0578,-4.0818,-3.9755,-3.8496,-3.7118,-3.6693,-3.688,-3.7442,-3.7345,-3.707,-3.6707,-1.0225,-1.0059,-0.9739,-0.8892,-0.9578,-1.0787,-1.2448,-1.4311,-1.6853,-2.0555,-1.9705,-1.8738,-1.8717,-1.5834,-1.3487,-1.2635,-1.1847,-1.2045,-1.3508,-1.4063,-1.4826,-1.5909,-1.7634,-1.9168,-2.0477,-2.1447,-2.2323,-2.3095,-2.3746,-2.3544,-2.2596,-2.2895,-2.2394,-2.1212,-2.0004,-1.958,-1.9682,-1.8892,-1.9116,-2.0,-1.9624,-1.9398,-1.9265,0.0,0.0,0.0,0.0,0.0,0.0,0.0,0.0,0.0,0.0,0.0,0.0,0.0,0.0,0.0,0.0,0.0,0.0,0.0,0.0,0.0,0.0,0.0,0.0,0.0,0.0,0.0,0.0,0.0,0.0,0.0,0.0,0.0,-3.4076,-3.552,-3.7229,-3.8952,-3.9843,-4.0563,-4.1224,-4.0473,-3.9758,-3.9264,-3.8865,-3.8347,-3.7689,-3.8136,-3.8478,-3.8623,-3.8453,-3.8874,-3.9886,-4.014,-4.0366,-4.0481,-4.0525,-4.0598,-4.0676,-4.0323,-4.0903,-4.2045,-4.1033,-4.1043,-4.1621,-4.0372,-3.9714,-3.9482,-3.8615,-3.8488,-3.8765,-3.8408,-3.7991,-3.7456,-1.063,-1.0366,-1.0021,-0.9581,-1.0373,-1.1427,-1.2535,-1.4567,-1.6831,-1.9128,-1.9515,-1.9338,-1.8708,-1.6672,-1.4923,-1.3742,-1.2599,-1.2442,-1.3648,-1.4468,-1.5723,-1.7645,-1.9239,-2.0346,-2.0862,-2.22,-2.2981,-2.3095,-2.3102,-2.2865,-2.247,-2.2111,-2.1287,-2.0098,-1.9448,-1.8743,-1.8022,-1.7627,-1.7696,-1.8157,-1.8659,-1.8898,-1.8898,0.0,0.0,0.0,0.0,0.0,0.0,0.0,0.0,0.0,0.0,0.0,0.0,0.0,0.0,0.0,0.0,0.0,0.0,0.0,0.0,0.0,0.0,0.0,0.0,0.0,0.0,0.0,0.0,0.0,0.0,0.0,-3.5235,-3.6667,-3.6364,-3.7253,-3.856,-4.0212,-4.0743,-4.1014,-4.114,-4.084,-4.0461,-4.0095,-3.9687,-3.9217,-3.8651,-3.8883,-3.9024,-3.8889,-3.9575,-4.0005,-4.0055,-4.0955,-4.111,-4.0737,-4.0978,-4.1055,-4.1096,-4.1291,-4.1776,-4.2309,-4.2119,-4.218,-4.2328,-4.1353,-4.0965,-4.081,-3.9935,-3.945,-3.9229,-3.9432,-3.8978,-3.822,-1.0775,-1.0525,-1.0287,-0.9891,-1.073,-1.1746,-1.2688,-1.4451,-1.6368,-1.8374,-1.8625,-1.8712,-1.894,-1.7102,-1.566,-1.5251,-1.413,-1.3944,-1.5094,-1.6174,-1.7278,-1.8521,-2.0135,-2.1013,-2.1067,-2.2498,-2.3126,-2.2902,-2.2668,-2.2228,-2.1575,-2.1283,-2.0353,-1.8889,-1.8338,-1.7641,-1.687,-1.6243,-1.6198,-1.658,-1.7112,-1.7716,-1.8226,-1.8108,-1.7852,-1.7551,-1.6966,-1.6594,-1.632,-1.6446,0.0,0.0,0.0,0.0,0.0,0.0,0.0,0.0,0.0,0.0,0.0,0.0,0.0,0.0,0.0,0.0,0.0,0.0,0.0,0.0,0.0,0.0,0.0,0.0,-3.6829,-3.8184,-3.8847,-3.9454,-4.0209,-4.1209,-4.1748,-4.2035,-4.2054,-4.1638,-4.1247,-4.0981,-4.0569,-4.0093,-3.9547,-3.9876,-4.0021,-3.9901,-4.0469,-4.0829,-4.1016,-4.1444,-4.1526,-4.1262,-4.15,-4.1697,-4.1884,-4.2356,-4.2818,-4.318,-4.3086,-4.2996,-4.2754,-4.1966,-4.1633,0.0,0.0,0.0,0.0,0.0,-3.9216,-3.8562,-1.0906,-1.0668,-1.0573,-1.0071,-1.0845,-1.1848,-1.283,-1.4072,-1.568,-1.7881,-1.7417,-1.7539,-1.9165,-1.7283,-1.6179,-1.6888,-1.6087,-1.6055,-1.7188,-1.8359,-1.8968,-1.8858,-2.0409,-2.122,-2.1059,-2.2263,-2.2716,-2.2314,-2.217,-2.144,-2.0254,-2.0368,-1.9369,-1.7565,-1.6891,-1.6313,-1.582,-1.4858,-1.4676,-1.5094,-1.5264,-1.6115,-1.7341,-1.753,-1.7422,-1.7092,-1.6717,-1.6411,-1.6224,-1.6352,0.0,0.0,0.0,0.0,0.0,0.0,0.0,0.0,0.0,0.0,0.0,0.0,0.0,0.0,0.0,0.0,0.0,0.0,0.0,0.0,0.0,0.0,0.0,0.0,-3.8097,-3.8977,-4.0999,-4.1551,-4.1831,-4.1941,-4.2668,-4.3214,-4.334,-4.2612,-4.2049,-4.185,-4.1453,-4.0973,-4.0403,-4.092,0.0,0.0,0.0,-4.1615,-4.2327,-4.1873,-4.1753,-4.1898,-4.2097,-4.2443,-4.2916,-4.3468,-4.3941,-4.4358,-4.3864,-4.3472,-4.2996,-4.2363,-4.1951,-4.1619,-4.0944,-4.0544,-4.0312,-3.9571,-3.8948,-3.8602,-1.1638,-1.1069,-1.0776,-1.0576,-1.116,-1.1945,-1.2719,-1.3954,-1.5279,-1.6602,-1.7218,-1.7742,-1.8375,-1.7954,-1.7678,-1.7757,-1.744,-1.7535,-1.8276,-1.8842,-1.9166,-1.9201,-2.0109,-2.0445,-2.0162,-2.0776,-2.0952,-2.067,-2.0372,-1.9915,-1.9248,-1.8764,-1.7725,-1.6232,-1.57,-1.4862,-1.3844,-1.3534,-1.3529,-1.3777,-1.3708,-1.4678,-1.6263,-1.6863,-1.6995,-1.6826,-1.6523,-1.631,-1.616,-1.64,-1.7018,-1.7667,-1.7708,-1.7689,0.0,0.0,0.0,0.0,0.0,0.0,0.0,0.0,0.0,0.0,0.0,0.0,0.0,0.0,0.0,0.0,0.0,0.0,0.0,-3.7452,-3.9238,-4.0631,-4.1096,-4.1725,-4.2257,-4.2454,-4.2772,-4.305,-4.3214,-4.3014,-4.2813,-4.2702,-4.2279,-4.1848,-4.1376,-4.1748,-4.1854,-4.1512,-4.2334,-4.2691,-4.246,-4.2577,-4.2442,-4.2061,-4.25,0.0,-4.3551,-4.4046,-4.4518,-4.5024,-4.4419,-4.3879,-4.3472,-4.285,-4.2131,-4.1381,-4.0674,-4.0243,-4.0009,-3.9278,-3.8845,-3.8602,-1.229,-1.2089,-1.2049,-1.184,-1.2476,-1.3261,-1.4034,-1.4951,-1.6071,-1.7565,-1.8002,-1.8513,-1.9326,-1.891,-1.8542,-1.8457,-1.8403,-1.8559,-1.9013,-1.9327,-1.9499,-1.9439,-2.0058,-2.021,-1.9814,-2.0232,-2.0257,-1.9848,-1.9541,-1.8889,-1.7952,-1.7651,-1.6561,-1.4785,-1.4519,-1.3755,-1.2696,-1.2437,-1.2411,-1.2519,-1.2693,-1.3341,-1.4401,-1.5657,-1.6386,-1.6717,-1.6339,-1.6229,-1.6236,-1.5949,-1.6342,-1.6939,-1.6785,-1.6873,-1.6897,0.0,0.0,0.0,0.0,0.0,0.0,0.0,0.0,0.0,0.0,0.0,0.0,0.0,0.0,-2.951,-3.2284,0.0,-3.609,-3.8203,-3.9615,-4.0709,-4.1492,-4.1996,-4.2369,-4.257,-4.267,-4.2862,-4.316,-4.3068,-4.2994,-4.29,-4.2512,-4.2121,-4.1604,-4.2068,-4.223,-4.2159,-4.2898,-4.3272,-4.3165,-4.2949,-4.2696,-4.2254,-4.3115,-4.3683,-4.386,-4.489,-4.5444,-4.5484,-4.4949,-4.4419,-4.3879,-4.3155,-4.2444,-4.1814,-4.1114,-4.0502,-3.9908,-3.9176,-3.8742,-3.8512,-1.3082,-1.3459,-1.3709,-1.3122,-1.3788,-1.4713,-1.5503,-1.6185,-1.7229,-1.8903,-1.9056,-1.9428,-2.0565,-1.9821,-1.9152,-1.8966,-1.904,-1.9228,-1.9543,-1.9726,-1.9757,-1.9638,-1.9954,-1.9938,-1.9485,-1.9687,-1.9521,-1.9032,-1.8707,-1.7896,-1.6578,-1.6535,-1.5438,-1.3509,-1.336,-1.2792,-1.192,-1.1616,-1.1457,-1.1538,-1.1916,-1.2223,-1.2637,-1.422,-1.5447,-1.6265,-1.5883,-1.5959,-1.6139,-1.541,-1.5643,-1.6143,-1.5654,-1.5858,-1.6191,-1.5683,-1.5522,0.0,0.0,0.0,0.0,0.0,0.0,0.0,0.0,-2.2262,-2.3529,-2.585,-2.754,-2.9523,-3.2419,-3.3905,-3.5665,-3.8549,-3.9438,-4.0233,-4.1677,-4.1973,-4.2167,-4.2552,-4.2609,-4.2747,-4.316,-4.3013,-4.2882,-4.2882,-4.2512,-4.2121,-4.1604,-4.2253,-4.2639,-4.2689,-4.3274,-4.3687,-4.3814,-4.319,-4.2775,-4.2461,-4.3488,-4.4042,-4.4134,-4.548,-4.6008,-4.588,-4.5336,-4.4799,-4.4205,-4.3394,-4.285,-4.2459,-4.18,-4.0958,-3.9996,-3.9176,-3.8742,-3.8512,-1.4161,-1.5181,-1.5488,-1.3729,-1.4263,-1.5178,-1.5906,-1.7048,-1.8149,-1.9075,-1.9734,-2.0373,-2.098,-2.0296,-1.9609,-1.9109,-1.9305,-1.9553,-1.9755,-1.9839,-1.9835,-1.9695,-1.9394,-1.9036,-1.8635,-1.8207,-1.7783,-1.7354,-1.6855,-1.6233,-1.5477,-1.4753,-1.3841,-1.2787,-1.2245,-1.1745,-1.1292,-1.1132,-1.1057,-1.1057,-1.1109,-1.1432,-1.1954,-1.2608,-1.3662,-1.4823,-1.4908,-1.514,-1.5379,-1.5117,-1.5441,-1.5837,-1.5244,-1.5487,-1.5855,-1.5471,-1.5388,-1.564,-1.6696,-1.8073,-1.9296,-1.976,-2.0078,-2.066,0.0,-2.3187,-2.4452,-2.6626,-2.8349,-2.9989,-3.1721,-3.3952,-3.5846,-3.7075,-3.8531,-3.9911,-4.0966,-4.1049,-4.138,-4.248,-4.2609,-4.2747,-4.316,-4.3013,-4.2882,-4.2882,-4.2512,-4.2121,-4.1604,-4.2742,-4.3175,-4.2706,-4.382,-4.4192,-4.3814,-4.319,-4.2775,-4.2571,-4.3072,-4.3712,-4.4471,-4.5122,-4.5757,-4.6207,-4.5321,-4.4723,-4.4281,-4.3566,-4.3155,-4.2835,-4.2199,-4.1367,-4.0516,-3.9353,-3.8742,-3.8512,-1.3764,-1.5237,-1.6313,-1.5692,-1.6763,-1.7957,-1.877,-1.9543,-2.0335,-2.1134,-2.1405,-2.1518,-2.1568,-2.0379,-1.9575,-1.9452,-1.9378,-1.9434,-1.9731,-1.9839,-1.9847,-1.972,-1.9306,-1.8875,-1.838,-1.7832,-1.7272,-1.6747,-1.6172,-1.5521,-1.4769,-1.3868,-1.2995,-1.2092,-1.1457,-1.0981,-1.0725,-1.0649,-1.0611,-1.0639,-1.0639,-1.0952,-1.148,-1.1842,-1.2547,-1.34,-1.4097,-1.4559,0.0,-1.469,-1.4804,-1.4939,-1.4864,-1.4914,-1.5035,-1.5065,-1.5422,-1.6331,-1.8672,-1.9979,-2.0854,-2.1647,-2.2071,-2.2365,-2.266,-2.3761,-2.514,-2.6462,-2.7973,-2.9606,-3.1548,-3.2746,-3.4019,-3.5767,-3.7131,-3.8274,-3.9135,-3.9705,-4.0276,-4.0877,-4.1109,-4.1737,-4.3069,-4.3013,-4.2938,-4.2994,-4.2609,-4.2187,-4.1805,-4.2923,-4.3377,-4.2826,-4.4031,-4.448,-4.3964,-4.3432,-4.3084,-4.2775,-4.3251,-4.383,-4.4522,-4.523,-4.5731,-4.5977,-4.5336,-4.4739,-4.4281,-4.3895,-4.3503,-4.3076,-4.2459,-4.18,-4.0958,-3.9895,-3.9114,-3.8512,-1.3513,-1.501,-1.654,-1.7197,-1.8739,-2.0137,-2.0819,-2.1448,-2.2022,-2.2506,-2.2554,-2.2291,-2.1607,-2.0453,-1.967,-1.9503,-1.9399,-1.9402,-1.9543,-1.9726,-1.9757,-1.9688,-1.928,-1.8823,-1.8283,-1.7659,-1.7052,-1.6448,-1.5767,-1.5,-1.42,-1.3247,-1.2378,-1.1531,-1.0867,-1.0495,-1.0302,-1.0205,-1.0273,-1.0449,-1.0449,-1.0784,-1.1251,-1.1593,-1.2063,-1.267,-1.3568,-1.4018,-1.4228,-1.4338,-1.4332,-1.43,-1.4525,-1.4493,-1.4488,-1.4959,-1.6117,-1.7772,-2.0239,-2.1584,-2.2434,-2.3318,-2.3629,-2.3646,-2.3456,-2.4268,-2.533,-2.6311,-2.7525,-2.8966,-3.0802,-3.162,-3.2595,-3.4356,-3.5553,-3.6611,-3.7654,-3.8385,-3.9075,-3.9779,-4.0047,-4.078,-4.2359,-4.2559,-4.2667,-4.2777,-4.2562,-4.2251,-4.1917,-4.3015,-4.3444,-4.2894,-4.4085,-4.4536,-4.4097,-4.3552,-4.319,-4.2899,-4.3232,-4.3767,-4.4538,-4.5491,-4.5907,-4.576,-4.5352,-4.483,-4.4281,-4.405,-4.3738,-4.3344,-4.2703,-4.2049,-4.1381,-4.0516,-3.9557,-3.8782,-1.3859,-1.4881,-1.6074,-1.7509,-1.9383,-2.0737,-2.0947,-2.1954,-2.256,-2.225,-2.2647,-2.2382,-2.0805,-2.065,-2.0183,-1.9035,-1.9391,-1.9561,-1.9243,-1.9472,-1.9614,-1.9596,-1.9225,-1.8753,-1.8203,-1.7545,-1.6917,-1.6301,-1.5448,-1.4568,-1.3696,-1.274,-1.1911,-1.118,-1.0582,-1.0244,-1.0079,-0.9892,-1.0127,-1.0567,-1.0567,-1.0866,-1.1334,-1.189,-1.2425,-1.2965,-1.3424,-1.3601,-1.3607,-1.4138,-1.4268,-1.4235,-1.43,-1.4365,-1.4571,-1.5403,-1.7781,-2.02,-2.0828,-2.2394,-2.3918,-2.4273,-2.4037,-2.3938,-2.4821,-2.4662,-2.4804,-2.6454,-2.7391,-2.8205,-2.9095,-3.097,-3.2456,-3.2663,-3.3794,-3.5307,-3.7082,-3.7196,-3.78,-3.9771,-4.0065,-4.0291,-4.0725,-4.1469,-4.1923,-4.1941,-4.2237,-4.2251,-4.1917,-4.3015,-4.3444,-4.2894,-4.396,-4.435,-4.4097,-4.3416,-4.3068,-4.2899,-4.2603,-4.3138,-4.4554,-4.5747,-4.6104,-4.576,-4.5352,-4.483,-4.4281,-4.405,-4.391,-4.3611,-4.293,-4.2281,-4.1619,-4.0944,-4.0083,-3.9216,-1.2932,-1.4232,-1.564,-1.6579,-1.823,-1.9701,-2.049,-2.1899,-2.2776,-2.2489,-2.1966,0.0,0.0,0.0,0.0,0.0,-1.9739,-2.0014,-2.0315,-2.0589,-2.0509,-2.0028,-1.9687,-1.9043,-1.8013,-1.7399,-1.6747,-1.6034,-1.5197,-1.441,-1.3589,-1.2707,-1.197,-1.1367,-1.0802,-1.0457,-1.0332,-1.0456,-1.0627,-1.0749,-1.1018,-1.1426,-1.1901,-1.2398,-1.3075,-1.3868,0.0,-1.4761,-1.4119,-1.4363,-1.4369,-1.4465,-1.5091,-1.5268,-1.5618,-1.7733,-1.931,-2.0902,-2.3223,-2.4538,-2.532,-2.5647,-2.568,-2.5363,-2.4373,-2.4503,-2.4888,-2.5156,-2.6295,-2.7512,-2.8378,-2.9619,-3.0832,-3.1898,-3.2838,-3.377,-3.4836,-3.5773,-3.6602,-3.7319,-3.8114,-3.8672,-3.895,-4.0271,-4.1324,-4.1851,-4.1733,-4.1739,-4.2026,-4.3033,-4.3395,-4.3029,-4.4014,-4.4276,-4.3889,-4.3476,-4.3129,-4.2713,-4.3477,-4.3973,-4.4353,-4.5693,-4.6048,-4.5614,-4.5278,-4.4754,-4.4143,-4.4065,-4.3738,-4.317,-4.2703,-4.2199,-4.1619,-4.0944,-4.0257,-3.9645,-1.2575,-1.3593,-1.4769,-1.5495,-1.6985,0.0,0.0,0.0,0.0,0.0,0.0,0.0,0.0,0.0,0.0,0.0,0.0,-2.0196,-2.0622,-2.0918,-2.0886,-2.0442,-2.0129,-1.9439,-1.824,-1.7626,-1.6871,-1.595,-1.5167,-1.4428,-1.3696,-1.2951,-1.2283,-1.1752,-1.1234,-1.0905,-1.0718,-1.0975,-1.113,-1.1224,-1.1611,-1.2041,-1.2469,-1.3083,-1.3893,0.0,-1.6088,-1.6291,-1.5938,-1.573,-1.5592,-1.558,-1.6272,-1.6855,-1.7665,-1.9803,-2.1279,-2.2695,-2.4847,-2.6075,-2.6784,-2.6985,-2.6749,-2.6101,-2.4896,-2.4501,-2.4442,-2.462,-2.5393,-2.6435,-2.7671,-2.8673,-2.9826,-3.1429,-3.2278,-3.3046,-3.402,-3.5129,-3.5971,-3.6275,-3.7272,-3.7966,-3.8153,-3.9182,-4.0179,-4.0925,-4.1081,-4.1266,-4.1534,-4.252,-4.2947,-4.2584,-4.3243,-4.3564,-4.3315,-4.2977,-4.2684,-4.2445,-4.3507,-4.4115,-4.4269,-4.5437,-4.581,-4.5468,-4.5278,-4.4754,-4.3988,-4.3895,-4.3488,-4.2981,-4.2459,-4.2049,-4.1619,-4.0944,-4.0443,-4.0009,-1.2766,-1.3106,-1.3591,0.0,0.0,0.0,0.0,0.0,0.0,0.0,0.0,0.0,0.0,0.0,0.0,0.0,0.0,0.0,-2.0277,-2.0599,-2.078,-2.0833,-2.0506,-1.9874,-1.8857,-1.8241,-1.7338,-1.6141,-1.5447,-1.4777,-1.4052,-1.3514,-1.2978,-1.2437,-1.1968,-1.1575,-1.1357,-1.1535,-1.1778,-1.2027,-1.2358,-1.2732,-1.312,-1.3888,-1.4835,-1.5789,-1.6961,-1.8062,-1.8877,-1.8125,-1.7734,-1.7647,-1.7936,-1.9094,-2.0565,-2.156,-2.3558,-2.547,-2.5664,-2.6951,-2.8227,-2.8227,-2.718,-2.6184,-2.6227,-2.4661,-2.3558,-2.4746,-2.4734,-2.5075,-2.6995,-2.8158,-2.9444,-3.1231,-3.2053,-3.3007,-3.4568,-3.5284,-3.5897,-3.6576,-3.7543,-3.8153,-3.8289,-3.8307,-3.8531,-3.9153,-4.0339,-4.0895,-4.0616,-4.174,-4.2154,-4.1613,-4.1931,-4.2239,-4.2518,-4.2021,-4.1892,-4.2125,-4.2829,-4.3517,-4.4138,-4.4941,-4.5294,-4.5421,-4.5262,-4.4739,-4.3927,-4.3663,-4.3334,-4.2856,-4.2237,-4.184,-4.1619,-4.0944,-4.0544,-4.0312,0.0,0.0,0.0,0.0,0.0,0.0,0.0,0.0,0.0,0.0,0.0,0.0,0.0,0.0,0.0,0.0,0.0,0.0,-2.1266,-2.1627,-2.1601,-2.1129,-2.0935,-2.0353,-1.9336,-1.8868,-1.8387,-1.7877,-1.7285,-1.676,-1.626,-1.5834,-1.5367,-1.4813,-1.3934,-1.3338,-1.3006,-1.3161,-1.3177,-1.3131,-1.3716,-1.3774,-1.3604,-1.4171,-1.5133,-1.631,-1.7803,-1.9712,-2.1198,-1.9431,-1.9501,-2.0399,-2.0862,-2.1808,-2.2878,-2.3705,-2.4801,-2.602,-2.7098,-2.8061,-2.8764,-2.8607,-2.7786,-2.6767,-2.5669,-2.4311,-2.3325,-2.3463,-2.3843,-2.4672,-2.6222,-2.7457,-2.9042,-3.1539,-3.2042,-3.2646,-3.4154,-3.5322,-3.6095,-3.6231,-3.7494,-3.835,-3.8368,-3.8219,-3.8142,-3.8133,-3.9287,-4.0064,-4.0289,-4.1336,-4.1795,-4.1444,-4.1665,-4.1959,-4.2327,-4.2145,-4.2013,-4.1963,-4.2648,-4.3011,-4.3115,-4.4304,-4.4741,-4.4497,-4.4657,-4.4159,-4.3244,-4.2844,-4.244,-4.1966,-4.1323,-4.1216,-4.1381,-4.0873,-4.0544,-4.0399,0.0,0.0,0.0,0.0,0.0,0.0,0.0,0.0,0.0,0.0,0.0,0.0,0.0,0.0,0.0,0.0,0.0,0.0,0.0,-2.1777,-2.1843,-2.1479,-2.1339,-2.0825,-1.9918,-1.9554,-1.9128,-1.8603,-1.8207,-1.7997,-1.7956,-1.734,-1.6964,-1.6759,-1.564,-1.498,-1.4657,-1.4812,-1.4731,0.0,0.0,-1.5066,-1.4908,-1.5356,-1.629,-1.7515,-1.9068,-2.125,-2.3328,-2.272,-2.2665,-2.2926,-2.3406,-2.3968,-2.4614,-2.5327,-2.625,-2.7184,-2.7741,-2.8575,-2.9076,-2.8478,-2.7597,-2.654,-2.5042,-2.3759,-2.2959,-2.3047,-2.3485,-2.4384,-2.6219,-2.7321,-2.8885,-3.1669,-3.2123,-3.2799,-3.4738,-3.587,-3.6618,-3.686,-3.7911,-3.8559,-3.8546,-3.8285,-3.8,-3.7756,-3.883,-3.9546,-3.9565,-4.0664,-4.1117,-4.0747,-4.0769,-4.0922,-4.1363,-4.185,-4.2061,-4.1898,-4.228,-4.2563,-4.2679,-4.3453,-4.3694,-4.3593,-4.3673,-4.3256,-4.2395,-4.2,-4.1537,-4.1111,-4.0828,-4.0915,-4.1108,-4.093,-4.0773,-4.0616,0.0,0.0,0.0,0.0,0.0,0.0,0.0,0.0,0.0,-1.4724,-1.4777,-1.4714,-1.4828,-1.5328,0.0,0.0,0.0,0.0,0.0,0.0,-2.1617,-2.1661,-2.1573,-2.1203,-2.0524,-2.0281,-1.9778,-1.9037,-1.892,-1.9044,-1.9433,-1.8679,-1.8435,-1.8643,-1.7398,-1.6704,-1.6445,-1.6447,-1.6388,-1.6271,-1.6421,-1.6443,-1.6477,0.0,0.0,-1.8899,-2.0719,-2.288,-2.5093,-2.6535,-2.6135,-2.5136,-2.5564,-2.5756,-2.5975,-2.6505,-2.7545,-2.8417,-2.7914,-2.8597,-2.9159,-2.7981,-2.6932,-2.5785,-2.438,-2.309,-2.2412,-2.3023,-2.3268,-2.4109,-2.6472,-2.7432,-2.8765,-3.1633,-3.2203,-3.3147,-3.5637,-3.6521,-3.7175,-3.7854,-3.845,-3.8792,-3.8689,-3.8318,-3.8,-3.7792,-3.8773,-3.9186,-3.872,-3.9996,-4.0487,-3.9984,-3.9787,-3.9923,-4.0353,-4.1517,-4.1996,-4.1833,-4.1833,-4.2002,-4.2354,-4.2449,-4.2567,-4.2679,-4.2525,-4.2129,-4.1535,-4.1068,-4.0716,-4.0403,-4.0481,-4.0651,-4.0785,-4.0857,-4.093,-4.0916,0.0,0.0,0.0,0.0,0.0,0.0,-1.3163,-1.3173,-1.3382,-1.3801,-1.3702,-1.3714,-1.4036,-1.4856,0.0,0.0,0.0,0.0,0.0,0.0,0.0,-2.0974,-2.1119,-2.1103,-2.0974,-2.0943,-2.0847,-2.0782,-2.1066,-2.1227,-2.1264,-2.1414,-2.1416,-2.1196,-1.9715,-1.9,-1.8841,-1.8086,-1.7733,-1.7644,-1.7802,-1.7577,-1.7215,0.0,0.0,0.0,-2.3114,-2.4998,-2.6025,-2.7609,-2.7379,-2.6546,-2.7056,-2.7239,-2.7243,-2.7115,-2.7862,-2.8578,-2.7905,-2.8437,-2.8824,-2.7473,-2.627,-2.4995,-2.3526,-2.2243,-2.154,-2.2238,-2.2585,-2.3506,-2.6041,-2.709,-2.8552,-3.1547,-3.2143,-3.3088,-3.5553,-3.6539,-3.7248,-3.7984,-3.8535,-3.8803,-3.8634,-3.83,-3.7966,-3.7649,-3.8713,-3.9186,-3.872,-3.9996,-4.056,-4.0209,-4.0539,-4.0857,-4.111,-4.1757,-4.1916,-4.167,-4.1456,-4.1319,-4.1121,-4.1488,-4.1672,-4.1556,-4.18,0.0,-4.0606,-4.0173,-3.9885,-3.9657,-3.9281,-3.983,-4.0809,-4.0553,-4.0729,-4.1001,0.0,0.0,0.0,0.0,0.0,0.0,-1.3323,-1.3412,-1.3773,-1.4446,-1.4527,-1.4453,-1.4138,-1.4583,-1.5416,0.0,0.0,0.0,0.0,0.0,0.0,0.0,-2.0579,-2.0679,-2.0794,-2.0859,-2.0892,-2.0957,0.0,-2.1886,-2.2175,-2.2267,-2.2471,-2.2568,-2.147,-2.0933,-2.088,-2.037,-1.9916,-1.956,-1.9528,-1.9153,0.0,0.0,0.0,0.0,0.0,-2.5293,-2.6182,-2.7374,-2.7656,-2.7573,-2.7747,-2.7707,-2.7557,-2.723,-2.7555,-2.7844,-2.7136,-2.7248,-2.7317,-2.5969,-2.4786,-2.3547,-2.1988,-2.0967,-2.0648,-2.1719,-2.2386,-2.3604,-2.6117,-2.7225,-2.8626,-3.1214,-3.2147,-3.3478,-3.61,-3.7103,-3.7854,-3.8592,-3.8766,-3.8792,-3.8652,-3.8285,-3.7949,-3.7667,-3.8419,-3.8831,-3.8703,-3.9696,-4.0138,-3.9719,-4.0541,-4.0945,-4.0788,-4.1645,-4.1916,-4.1588,-4.139,-4.1055,-4.0677,-4.0863,-4.0876,-4.0639,-4.051,-4.0231,-3.9712,-3.9283,-3.8984,-3.8847,-3.8953,-3.9411,-3.9967,-4.0263,-4.0513,-4.0743,0.0,0.0,0.0,0.0,0.0,0.0,-1.356,-1.3715,-1.4226,-1.5304,-1.5627,-1.552,-1.4872,-1.4759,-1.5268,0.0,0.0,0.0,0.0,0.0,0.0,0.0,0.0,-2.0054,-2.0258,0.0,0.0,-2.0644,-2.1506,0.0,0.0,0.0,0.0,0.0,-2.2809,-2.2517,-2.2532,-2.2256,-2.1872,0.0,0.0,-2.0877,0.0,0.0,0.0,0.0,0.0,-2.4981,-2.6043,-2.6874,-2.7602,-2.8126,-2.7968,-2.7795,-2.7509,-2.7149,-2.7266,-2.7337,-2.6583,-2.6451,-2.6245,-2.4771,-2.3734,-2.2615,-2.0937,-2.0246,-2.0323,-2.1585,-2.2521,-2.387,-2.6251,-2.737,-2.8675,-3.0885,-3.201,-3.3597,-3.6515,-3.7405,-3.8093,-3.9017,-3.8892,-3.8701,-3.8658,-3.8238,-3.7915,-3.7703,-3.8167,-3.8649,-3.8901,-3.9589,-3.9796,-3.9491,-4.0334,-4.0701,-4.0635,-4.1483,-4.1772,-4.1588,-4.139,-4.0919,-4.0401,-4.0401,-4.0191,-3.9854,-3.9496,-3.9192,-3.9031,-3.8664,-3.8366,-3.826,-3.8783,-3.9073,-3.9242,-3.9828,-4.0196,-4.0331,0.0,0.0,0.0,0.0,0.0,0.0,-1.3788,-1.4105,-1.4634,-1.5472,-1.5821,-1.6085,-1.6375,-1.5899,-1.5809,0.0,0.0,0.0,0.0,0.0,0.0,0.0,0.0,0.0,0.0,0.0,0.0,-2.0527,-2.1884,0.0,0.0,0.0,0.0,0.0,0.0,-2.346,-2.3622,-2.2995,0.0,0.0,0.0,0.0,0.0,0.0,0.0,0.0,0.0,-2.4813,-2.5764,-2.665,-2.7423,-2.7968,-2.7806,-2.7659,-2.7509,-2.7051,-2.7498,-2.7941,-2.7073,-2.7226,-2.715,-2.5282,-2.4425,-2.3456,-2.1503,-2.1086,-2.1353,-2.2071,-2.2977,-2.4195,-2.603,-2.7095,-2.8457,-3.0677,-3.1371,-3.2804,-3.6144,-3.6644,-3.7202,-3.8736,-3.8695,-3.851,-3.8415,-3.8153,-3.788,-3.7613,-3.8362,-3.9068,-3.9595,-3.9927,-4.017,-4.0363,-4.0143,-4.0524,-4.165,-4.1367,-4.131,-4.1588,-4.1288,-4.0761,-4.0081,-4.0081,-3.9854,-3.9424,-3.925,-3.9017,0.0,-3.859,-3.8366,-3.8217,-3.8275,-3.8576,-3.8972,-3.9009,-3.9467,-4.0122,0.0,0.0,0.0,0.0,0.0,0.0,-1.404,-1.4268,-1.4804,-1.5938,-1.6235,-1.6508,-1.6858,-1.6597,-1.6409,-1.6518,0.0,0.0,0.0,0.0,0.0,0.0,0.0,0.0,0.0,0.0,-1.9803,-2.0085,-2.1572,0.0,0.0,0.0,0.0,0.0,0.0,-2.4135,-2.42,-2.4077,0.0,0.0,0.0,0.0,0.0,0.0,0.0,0.0,0.0,0.0,-2.5065,-2.5782,-2.6541,-2.7197,-2.7291,-2.7213,-2.7021,-2.674,-2.6892,-2.7032,-2.633,-2.6199,-2.5994,-2.463,-2.3693,-2.2791,-2.1614,-2.1182,-2.1354,-2.245,-2.3273,-2.4308,-2.587,-2.6839,-2.8132,-3.0295,-3.1329,-3.2921,-3.5993,-3.6738,-3.7426,-3.8633,-3.8546,-3.8336,-3.8252,-3.8036,-3.7972,-3.8049,-3.8572,-3.9145,-3.9652,-3.9961,-4.007,-3.9901,-3.9952,-4.0377,-4.1157,-4.1171,-4.1437,-4.1752,-4.1303,-4.083,-4.0261,-4.0066,-3.9854,-3.9553,-3.925,-3.9017,0.0,-3.859,-3.8366,-3.8202,-3.8202,-3.8211,-3.8361,-3.8566,-3.8788,-3.9045,0.0,0.0,0.0,0.0,0.0,-1.4144,-1.4189,-1.43,-1.482,-1.6044,-1.6316,-1.6569,-1.7122,-1.7008,-1.6771,-1.6584,-1.6321,0.0,0.0,0.0,0.0,0.0,0.0,0.0,0.0,0.0,-1.9782,-2.014,-2.166,-2.2369,0.0,0.0,-2.4082,-2.4082,0.0,0.0,0.0,0.0,0.0,0.0,0.0,0.0,0.0,0.0,0.0,0.0,0.0,0.0,0.0,0.0,0.0,-2.6452,-2.6619,-2.6655,-2.6556,-2.6333,-2.6438,-2.6477,-2.5897,-2.5788,-2.5619,-2.465,-2.387,-2.3169,-2.24,-2.2193,-2.2396,-2.3259,-2.3974,-2.4818,-2.6007,-2.6994,-2.8241,-3.0064,-3.1559,-3.3314,-3.578,-3.6796,-3.7582,-3.8473,-3.8405,-3.8223,-3.8068,-3.8079,-3.8165,-3.8316,-3.8891,-3.9388,-3.9606,-3.9912,-3.9935,-3.959,-3.9643,-3.9975,-4.0466,-4.0764,-4.1117,-4.158,-4.1276,-4.0898,-4.0455,-4.0191,-3.9925,-3.9681,-3.9322,-3.9104,0.0,-3.859,-3.8441,-3.8277,-3.8202,-3.8066,-3.7911,-3.811,-3.8225,-3.8215,0.0,0.0,0.0,0.0,0.0,0.0,-1.4235,-1.4268,-1.4654,-1.5661,-1.5821,-1.6224,-1.7261,-1.716,-1.6866,-1.6552,-1.6007,0.0,0.0,0.0,0.0,0.0,0.0,0.0,0.0,0.0,-2.0413,-2.0903,-2.2376,-2.2991,-2.2802,-2.348,-2.3797,-2.3824,0.0,0.0,0.0,0.0,0.0,0.0,0.0,0.0,-2.4715,0.0,0.0,0.0,0.0,0.0,0.0,0.0,0.0,0.0,0.0,-2.5983,-2.6243,-2.5905,-2.631,-2.68,-2.6228,-2.6464,-2.6674,-2.5806,-2.5545,-2.5315,-2.4218,-2.4522,-2.4983,-2.4717,-2.5265,-2.5911,-2.642,-2.7635,-2.8977,-3.011,-3.1984,-3.3876,-3.5579,-3.6549,-3.7398,-3.8216,-3.8241,-3.814,-3.8018,-3.8346,-3.8468,-3.8151,-3.9355,-3.9915,-3.9512,-3.9863,-3.9986,-3.9729,-3.9131,-3.9165,-3.9902,-3.9994,-4.0274,-4.0817,-4.1025,-4.0898,-4.0539,-4.0331,-4.0051,-3.9696,-3.9496,-3.9265,0.0,-3.8664,-3.8516,-3.8441,-3.8277,-3.8066,-3.7868,-3.7701,-3.7855,-3.8145,0.0,0.0,0.0,0.0,0.0,0.0,-1.4891,-1.509,-1.5432,-1.5944,-1.5958,-1.6163,-1.6731,-1.6795,-1.671,-1.6522,-1.6316,0.0,0.0,0.0,0.0,0.0,0.0,0.0,0.0,0.0,-2.0152,-2.0077,-2.2124,-2.2802,-2.2288,-2.3311,-2.3739,-2.3653,-2.3724,-2.3724,0.0,0.0,0.0,0.0,0.0,-2.5118,-2.531,0.0,0.0,0.0,0.0,0.0,0.0,0.0,0.0,0.0,0.0,0.0,0.0,-2.5192,-2.5526,-2.5913,-2.5538,-2.5586,-2.558,-2.4901,-2.511,-2.5162,-2.4149,-2.4817,-2.557,-2.5288,-2.5762,-2.643,-2.7248,-2.8012,-2.9092,-3.0709,-3.2094,-3.3598,-3.5517,-3.6421,-3.725,-3.8183,-3.8507,-3.8833,-3.9262,-3.9181,-3.923,-3.9656,-3.9861,-4.0066,-4.0302,-4.0201,-3.9986,-3.9729,-3.9185,-3.9276,-3.9886,-3.9612,-3.9978,-4.0976,-4.0734,-4.07,-4.0898,-4.0608,-4.0261,-3.9925,-3.9696,-3.9394,-3.9104,-3.8797,-3.8649,-3.8441,-3.8277,-3.8066,-3.7853,-3.7853,-3.7739,-3.76,0.0,0.0,0.0,0.0,0.0,0.0,-1.5287,-1.5362,-1.5466,-1.5754,-1.5734,-1.5953,-1.6629,-1.6835,-1.7055,-1.7257,-1.7359,0.0,0.0,0.0,0.0,0.0,0.0,0.0,-1.8028,-1.9782,-2.0629,-2.0587,-2.2519,-2.3198,-2.2672,-2.3363,-2.3625,-2.348,-2.3421,-2.3334,0.0,0.0,0.0,0.0,-2.4477,-2.4721,-2.4896,0.0,0.0,0.0,0.0,0.0,0.0,0.0,0.0,0.0,0.0,0.0,0.0,0.0,-2.4714,-2.4797,-2.4991,-2.5228,-2.5334,-2.5171,-2.5644,-2.6031,-2.5551,-2.6125,-2.667,-2.6393,-2.6749,-2.73,-2.793,-2.8816,-2.9859,-3.1085,-3.2606,-3.4133,-3.5447,-3.6476,-3.7482,-3.8415,-3.869,-3.9058,-3.9629,-3.9717,-3.9851,-4.0193,-4.0266,-4.0371,-4.0614,-4.0238,-3.9935,-3.9729,-3.9185,-3.9128,-3.9476,-3.9314,-3.9558,-4.0318,-4.0372,-4.0522,-4.0778,-4.069,-4.047,-4.0191,-3.991,-3.9625,0.0,-3.8943,-3.8723,-3.859,-3.8277,-3.8127,-3.7991,-3.7929,-3.7701,-3.738,0.0,0.0,0.0,0.0,0.0,0.0,0.0,-1.5159,-1.5049,-1.5298,-1.5288,-1.5679,-1.6839,-1.726,-1.7758,-1.8531,-1.8872,0.0,0.0,0.0,0.0,0.0,0.0,0.0,-1.857,-2.0454,-2.1635,-2.1994,-2.3422,-2.3964,-2.3721,-2.3566,-2.3422,-2.3275,-2.3127,-2.2994,0.0,0.0,0.0,0.0,-2.3894,-2.3993,0.0,0.0,0.0,0.0,0.0,0.0,0.0,0.0,0.0,0.0,0.0,0.0,0.0,0.0,0.0,0.0,0.0,-2.5243,-2.5771,-2.6324,-2.6962,-2.7579,-2.7908,-2.8158,0.0,-2.778,-2.8066,-2.8372,-2.8456,-2.9883,-3.1164,-3.1352,-3.3457,-3.5154,-3.5328,-3.6719,-3.799,-3.8866,-3.8843,-3.8954,-3.9482,-4.0095,-4.0315,-4.0002,-4.0521,-4.0776,-4.0485,-4.0087,-3.9833,-3.9677,-3.9131,-3.8805,-3.8805,-3.9039,-3.906,-3.9006,-3.9913,-4.0322,-4.0318,-4.0629,-4.0684,-4.0455,-4.0137,-3.9925,-3.9681,-3.909,-3.8782,-3.8782,-3.8352,-3.8202,-3.8202,-3.8005,-3.7777,-3.7548,0.0,0.0,0.0,0.0,0.0,0.0,0.0,0.0,0.0,0.0,-1.5533,-1.5728,-1.6303,-1.7276,-1.8057,0.0,0.0,0.0,0.0,0.0,0.0,0.0,0.0,0.0,-1.9484,-2.0902,-2.1807,-2.2164,-2.3478,-2.3777,-2.3182,-2.34,-2.3363,-2.3127,-2.2873,-2.2555,0.0,0.0,0.0,0.0,-2.3551,-2.3625,0.0,0.0,0.0,0.0,-2.0782,-2.0265,0.0,0.0,0.0,0.0,0.0,0.0,0.0,0.0,-2.393,-2.4035,-2.4524,0.0,-2.496,-2.5812,-2.7083,-2.8037,0.0,-2.8453,-2.8826,-2.7771,-2.83,-2.9007,-2.9076,-3.0127,-3.1359,-3.2669,-3.3987,-3.5155,-3.5954,-3.697,-3.8094,-3.9426,-3.9372,-3.97,-4.0963,-4.0969,-4.0863,-4.0659,-4.0737,-4.06,-4.0221,-3.9986,-3.9798,-3.9537,-3.9077,-3.8805,-3.8805,-3.8553,-3.8637,-3.9006,-3.9113,-3.9565,-4.0303,-4.0197,-4.0287,-4.0455,-4.0137,-3.9925,-3.9696,-3.925,-3.8943,-3.8797,-3.8516,-3.8366,-3.8202,-3.8127,-3.7915,-3.7625,0.0,0.0,0.0,0.0,0.0,0.0,0.0,0.0,0.0,0.0,-1.5635,-1.6086,-1.6829,-1.7678,-1.8682,0.0,0.0,0.0,0.0,0.0,0.0,0.0,0.0,-1.9636,-2.0586,-2.1675,-2.2394,-2.2685,-2.359,-2.3827,-2.3368,-2.3331,-2.3216,-2.2979,-2.254,-2.2137,0.0,0.0,0.0,-2.274,-2.3275,0.0,0.0,0.0,0.0,0.0,-2.0086,-1.963,0.0,-2.0274,-2.0724,-2.1106,0.0,0.0,0.0,0.0,-2.3613,-2.3882,-2.4901,-2.5237,-2.5501,-2.6459,-2.774,-2.8783,-2.8968,-2.935,-2.9359,-2.835,-2.9033,-2.9709,-2.9384,-3.0767,-3.2265,-3.3138,-3.4423,-3.561,-3.6535,-3.7126,-3.7854,-3.8903,-3.9241,-3.9719,-4.0627,-4.0915,-4.0935,-4.0728,-4.0534,-4.0337,-4.0121,-3.9849,-3.9642,-3.9379,-3.904,-3.8805,-3.8805,-3.8432,-3.8357,-3.851,-3.8695,-3.9055,-3.9503,-3.9626,-3.971,-3.9802,-3.9803,-3.9595,-3.9345,-3.9203,-3.8943,-3.8782,-3.8501,-3.8217,-3.8066,-3.8066,-3.7839,-3.7457,0.0,0.0,0.0,0.0,0.0,0.0,0.0,0.0,0.0,0.0,0.0,0.0,0.0,0.0,0.0,0.0,0.0,0.0,0.0,0.0,0.0,0.0,-2.0811,-2.1046,-2.1689,-2.2541,-2.3193,-2.365,-2.3971,-2.4137,-2.4055,-2.3555,-2.3182,-2.2838,-2.2212,-2.1793,0.0,-2.1746,-2.2123,-2.2558,-2.3143,0.0,0.0,0.0,0.0,0.0,0.0,0.0,0.0,-2.0144,-2.0458,-2.0655,-2.2195,0.0,0.0,0.0,0.0,0.0,-2.5603,-2.6408,-2.6983,-2.7817,-2.8952,-2.9997,-3.0709,-3.0563,-3.0099,-2.9319,-2.9935,-3.0448,-2.9884,-3.1633,-3.3273,-3.3554,-3.4944,-3.6253,-3.6981,-3.7164,-3.7461,-3.8181,-3.8818,-3.9356,-3.9802,-4.0444,-4.068,-4.0436,-4.0188,-4.0037,-4.0037,-3.9694,-3.9432,-3.9272,-3.8985,-3.8805,-3.875,-3.8488,-3.8221,-3.7876,-3.8483,-3.8715,-3.8523,-3.8937,-3.9061,-3.9043,0.0,0.0,-3.8985,-3.902,-3.8942,-3.8782,-3.8427,-3.8066,-3.7929,-3.7929,-3.7625,-3.7226,0.0,0.0,0.0,0.0,0.0,0.0,0.0,0.0,0.0,0.0,0.0,0.0,0.0,0.0,0.0,0.0,0.0,0.0,0.0,0.0,0.0,-2.3453,-2.207,-2.1768,-2.2728,-2.309,-2.3881,-2.5153,-2.4902,-2.4972,-2.53,-2.4674,-2.3792,-2.2672,-2.198,-2.1664,-2.1616,-2.1841,-2.2231,-2.2646,-2.3201,0.0,0.0,0.0,0.0,0.0,0.0,0.0,0.0,-1.9455,-1.9823,-2.0168,-2.211,0.0,0.0,0.0,0.0,0.0,-2.6553,-2.8148,-2.9571,-2.9871,-3.1061,-3.226,-3.2463,-3.2118,-3.1465,-3.0654,-3.0864,-3.1223,-3.1325,-3.2342,-3.3659,-3.5077,-3.6155,-3.6847,-3.7009,-3.6948,-3.7376,-3.8793,-3.8808,-3.9181,-4.0435,-4.0466,-4.0305,-4.0003,-3.9935,-3.9849,-3.959,-3.9537,-3.9379,-3.904,-3.8914,-3.8694,-3.8448,-3.8278,-3.8049,-3.7759,-3.7871,-3.8118,-3.8523,-3.8402,-3.8576,-3.9011,0.0,-3.88,-3.894,-3.8612,-3.8614,-3.8797,-3.8501,-3.8217,-3.7929,-3.7929,-3.7534,-3.6993,0.0,0.0,0.0,0.0,0.0,0.0,0.0,0.0,0.0,0.0,0.0,0.0,0.0,0.0,0.0,0.0,0.0,0.0,0.0,0.0,-2.4135,-2.4276,-2.3974,-2.4056,-2.4544,-2.4585,-2.5124,-2.6252,-2.5739,-2.5485,-2.5458,-2.4312,-2.3414,-2.2663,-2.2069,-2.1841,-2.1935,-2.2249,-2.2618,-2.3068,0.0,0.0,0.0,0.0,0.0,0.0,0.0,0.0,0.0,0.0,-1.9704,-2.003,-2.1993,0.0,0.0,0.0,0.0,0.0,-2.7183,-2.9074,-3.0931,-3.1689,-3.245,-3.3038,-3.3081,-3.2942,-3.253,-3.1674,-3.211,-3.2542,-3.232,-3.3467,-3.4861,-3.6208,-3.6759,-3.7128,-3.7532,-3.7498,-3.7836,-3.8825,-3.9109,-3.9353,-3.9688,-4.0,-4.0087,-3.9781,-3.9642,-3.9537,-3.9379,-3.9272,-3.9094,-3.8766,-3.8805,-3.8583,-3.8107,-3.818,-3.8049,-3.77,-3.77,-3.7816,-3.7954,-3.7878,-3.7869,-3.7951,0.0,-3.8089,-3.7925,-3.8292,-3.8302,-3.8296,-3.8295,-3.8066,-3.7701,-3.7394,-3.7099,-3.6772,0.0,0.0,0.0,0.0,0.0,0.0,0.0,0.0,0.0,0.0,0.0,0.0,0.0,0.0,0.0,0.0,0.0,0.0,0.0,0.0,-2.4539,-2.458,-2.5415,-2.59,-2.59,-2.6,-2.6381,-2.7086,-2.6489,-2.5993,-2.5551,-2.4177,-2.33,-2.2934,-2.247,-2.2264,-2.2356,-2.2663,-2.3054,-2.3551,0.0,0.0,0.0,0.0,0.0,0.0,0.0,0.0,0.0,0.0,0.0,0.0,0.0,0.0,0.0,-2.459,-2.5619,-2.6626,-2.7901,-2.9774,-3.1682,-3.2864,-3.3523,-3.3809,-3.3835,-3.3727,-3.3465,-3.2732,-3.3185,-3.3601,-3.3407,-3.474,-3.6142,-3.711,-3.7251,-3.7514,-3.8228,-3.8303,-3.8432,-3.898,-3.9342,-3.9457,-3.9174,-3.9632,-3.9833,-3.9573,-3.9362,-3.9272,-3.9218,-3.9148,-3.8931,-3.8672,-3.8766,-3.8528,-3.7992,-3.8107,-3.8008,-3.7642,-3.77,-3.7658,-3.748,-3.7464,-3.7285,-3.7046,-3.7483,-3.7432,-3.7031,-3.7691,-3.7768,-3.7605,-3.7812,-3.7785,-3.7471,-3.6943,-3.6624,-3.6484,0.0,0.0,0.0,0.0,0.0,0.0,0.0,0.0,0.0,0.0,0.0,0.0,0.0,0.0,0.0,0.0,0.0,0.0,0.0,0.0,-2.4645,-2.4782,-2.5497,-2.5843,-2.5811,-2.6651,-2.7245,-2.764,-2.7117,-2.6564,-2.6023,-2.5135,-2.4309,-2.371,-2.3259,-2.2895,-2.2694,-2.2949,-2.3348,-2.3782,-2.4177,0.0,0.0,0.0,0.0,0.0,0.0,0.0,0.0,0.0,0.0,0.0,0.0,0.0,-2.417,-2.6021,-2.7128,-2.7957,-2.8993,-3.0396,-3.1881,-3.3102,-3.4368,-3.5369,-3.5425,-3.4857,-3.4307,-3.4162,-3.3846,-3.3902,-3.4863,-3.6063,-3.7145,-3.79,-3.8023,-3.8263,-3.8951,-3.8963,-3.9085,-3.9577,-3.9354,-3.9323,-3.9783,-3.9661,-3.9432,-3.9094,-3.9202,-3.9218,-3.9023,-3.9202,-3.9148,-3.8805,-3.8805,-3.8583,-3.8164,-3.818,-3.795,-3.7539,-3.7642,-3.7658,-3.748,-3.7329,-3.715,-3.7015,-3.6847,-3.686,-3.6955,-3.6685,-3.6684,-3.6972,-3.7026,-3.7186,-3.7303,-3.6864,-3.6501,-3.6059,0.0,0.0,0.0,0.0,0.0,0.0,0.0,0.0,0.0,0.0,0.0,0.0,0.0,0.0,0.0,0.0,0.0,0.0,0.0,-2.4374,-2.4886,-2.4942,-2.571,-2.6281,-2.6572,-2.7379,-2.7987,-2.8435,-2.7643,-2.6865,-2.619,-2.542,-2.4944,-2.4765,-2.4404,-2.4061,-2.3774,-2.4134,-2.426,-2.4276,-2.4523,-2.4436,0.0,0.0,0.0,0.0,0.0,0.0,0.0,0.0,-2.0237,-2.0699,-2.2683,-2.3668,-2.4495,-2.6292,-2.7449,-2.8336,-2.918,-3.056,-3.2093,-3.3328,-3.444,-3.53,-3.5627,-3.5552,-3.5331,-3.5243,-3.5284,-3.5459,-3.6082,-3.7003,-3.7777,-3.8058,-3.8532,-3.9087,-3.973,-3.9765,-3.9839,-4.0277,-4.0089,-3.9915,-3.9816,-3.9677,-3.9468,-3.9202,-3.904,-3.8969,-3.9023,-3.8969,-3.8914,-3.8805,-3.8395,-3.8003,-3.7616,-3.7196,-3.6749,-3.6356,-3.7229,-3.7642,-3.7642,-3.7464,-3.7241,-3.7015,-3.6938,-3.6708,-3.6398,-3.6547,-3.6462,-3.631,-3.6649,-3.6839,-3.6931,-3.6724,-3.6568,-3.6381,0.0,0.0,0.0,0.0,0.0,0.0,0.0,0.0,0.0,0.0,0.0,0.0,0.0,0.0,0.0,0.0,0.0,0.0,-2.3499,-2.4453,-2.5005,-2.5005,-2.5815,-2.6548,-2.7083,-2.7762,-2.8336,-2.8889,-2.7925,-2.7115,-2.6525,-2.5936,-2.5673,-2.5633,-2.5477,-2.521,-2.4911,-2.5031,-2.4986,-2.4808,-2.4739,-2.4484,0.0,0.0,0.0,0.0,0.0,0.0,0.0,0.0,-2.0927,-2.1509,-2.3012,-2.4039,-2.494,-2.6557,-2.7665,-2.8528,-2.9316,-3.057,-3.1958,-3.3464,-3.4335,-3.5029,-3.5857,-3.6019,-3.5975,-3.5949,-3.6191,-3.6527,-3.6829,-3.7562,-3.8199,-3.8485,-3.9206,-3.9912,-4.0552,-4.0506,-4.0533,-4.0693,-4.0534,-4.0238,-3.9729,-3.9677,-3.9468,-3.9148,-3.8969,-3.886,-3.8876,-3.886,-3.8761,-3.8461,-3.8072,-3.7605,-3.7037,-3.6567,-3.6109,-3.5767,-3.6685,-3.716,-3.725,-3.7074,-3.7037,-3.7015,-3.6877,-3.6492,-3.6004,-3.628,-3.6119,-3.5722,-3.5971,-3.6151,-3.6319,-3.6501,-3.6367,-3.6172,0.0,0.0,0.0,0.0,0.0,0.0,0.0,0.0,0.0,0.0,0.0,0.0,0.0,0.0,0.0,0.0,0.0,0.0,-2.3302,-2.4374,-2.5005,-2.5005,-2.5782,-2.6497,-2.7083,-2.7762,-2.8322,-2.8794,-2.7974,-2.7386,-2.7003,-2.6803,-2.6542,-2.6229,-2.6327,-2.6261,-2.5986,-2.5436,-2.5321,-2.5459,-2.4844,-2.4605,-2.4567,0.0,0.0,0.0,0.0,0.0,0.0,0.0,-2.099,-2.2068,-2.2777,-2.412,-2.5689,-2.699,-2.791,-2.8685,-2.9572,-3.0393,-3.1455,-3.3431,-3.4159,-3.4787,-3.6197,-3.6251,-3.6019,-3.6182,-3.6478,-3.6783,-3.7005,-3.7619,-3.8415,-3.9365,-4.0074,-4.0701,-4.1321,-4.1272,-4.1088,-4.0745,-4.0453,-4.0138,-3.9729,-3.959,-3.9325,-3.886,-3.8914,-3.886,-3.8616,-3.886,-3.8569,-3.7724,-3.79,-3.7465,-3.6397,-3.6381,-3.6259,-3.5959,-3.5828,-3.6007,-3.6348,-3.6041,-3.6313,-3.6999,-3.6616,-3.6289,-3.5973,-3.5752,-3.5555,-3.5288,-3.4952,-3.5053,-3.5444,-3.5916,-3.5672,-3.525,0.0,0.0,0.0,0.0,0.0,0.0,0.0,0.0,0.0,0.0,0.0,0.0,0.0,0.0,0.0,0.0,0.0,0.0,-2.3856,-2.4384,-2.4806,-2.5005,-2.5782,-2.6455,-2.6938,-2.795,-2.8419,-2.8381,-2.794,-2.7539,-2.713,-2.7181,-2.7166,-2.716,-2.744,-2.724,-2.6699,-2.6734,-2.6226,-2.5392,-2.5886,-2.5842,-2.5487,0.0,0.0,0.0,0.0,0.0,0.0,0.0,0.0,0.0,-2.4287,-2.4733,-2.5328,-2.7045,-2.7707,-2.8215,-2.9472,-3.0393,-3.1495,-3.3527,-3.4216,-3.4826,-3.6479,-3.6667,-3.6544,-3.6748,-3.6891,-3.7206,-3.7905,-3.8669,-3.9446,-4.0282,-4.0994,-4.1429,-4.1525,-4.1346,-4.1088,-4.0745,-4.0551,-4.0238,-3.9729,-3.9677,-3.9468,-3.8969,-3.8914,-3.8592,-3.8063,-3.8051,-3.7761,-3.7176,-3.6717,-3.6288,-3.5956,-3.5297,-3.4783,-3.451,-3.437,-3.4851,-3.5823,-3.6127,-3.6225,-3.6266,-3.666,-3.6554,-3.5973,-3.5379,-3.5104,-3.499,-3.485,-3.4868,-3.5024,-3.5356,-3.5232,-3.4957,0.0,0.0,0.0,0.0,0.0,0.0,0.0,0.0,0.0,0.0,0.0,-2.5107,0.0,0.0,0.0,0.0,0.0,0.0,0.0,-2.4287,-2.4811,-2.5336,-2.5844,-2.6483,-2.7183,-2.8062,-2.8444,-2.8186,-2.7989,-2.769,-2.7372,-2.7488,-2.7775,-2.8182,-2.8399,-2.8271,-2.7939,-2.7856,-2.7149,-2.6164,-2.6554,-2.6541,-2.6325,0.0,0.0,0.0,0.0,0.0,0.0,0.0,0.0,0.0,-2.508,-2.5451,-2.5915,-2.7235,-2.7801,-2.8263,-2.9416,-3.0465,-3.1664,-3.3534,-3.4362,-3.5174,-3.6784,-3.6987,-3.6908,-3.7009,-3.7126,-3.745,-3.8362,-3.9124,-3.9881,-4.0719,-4.1432,-4.1841,-4.1692,-4.1453,-4.118,-4.084,-4.0631,-4.0271,-3.9729,-3.9677,-3.9451,-3.8969,-3.886,-3.8439,-3.7644,-3.7616,-3.7265,-3.6385,-3.5975,-3.5646,-3.5317,-3.466,-3.4201,-3.3797,-3.3745,-3.4053,-3.4682,-3.5228,-3.5655,-3.5895,-3.609,-3.5968,-3.5579,-3.4877,-3.4551,-3.4545,-3.4473,-3.4454,-3.4455,-3.4707,-3.4713,-3.4506,0.0,0.0,-2.1946,-2.2596,0.0,0.0,0.0,0.0,0.0,-2.5881,-2.5562,-2.5162,0.0,0.0,0.0,-2.3452,-2.3408,-2.3511,0.0,0.0,-2.5046,-2.5937,-2.6083,-2.6643,-2.7735,-2.8168,-2.8299,-2.8137,-2.8054,-2.784,-2.7625,-2.7801,-2.8314,-2.9006,-2.9205,-2.9388,-2.9458,-2.8842,-2.8196,-2.7566,-2.719,-2.7071,-2.7111,-2.7291,0.0,0.0,0.0,0.0,0.0,0.0,0.0,0.0,-2.5386,-2.6191,-2.7019,-2.7509,-2.8012,-2.8623,-2.9377,-3.0549,-3.1924,-3.3369,-3.4622,-3.5762,-3.7006,-3.7241,-3.7185,-3.7147,-3.7279,-3.762,-3.8498,-3.9203,-3.9962,-4.0877,-4.1576,-4.1945,-4.1841,-4.1604,-4.129,-4.0982,-4.068,-4.0337,-3.9781,-3.9729,-3.9451,-3.886,-3.8739,-3.8286,-3.7258,-3.7292,-3.6731,-3.5529,-3.5596,-3.5317,-3.4497,-3.4497,-3.425,-3.3694,-3.371,-3.3555,-3.3324,-3.3873,-3.4757,-3.5864,-3.5278,-3.4971,-3.4925,-3.4297,-3.3977,-3.3971,-3.3897,-3.3896,-3.3884,-3.4015,-3.3982,-3.3907,0.0,0.0,-2.3016,-2.3541,0.0,0.0,0.0,0.0,-2.6043,-2.5934,-2.5562,-2.5201,-2.4918,-2.4328,0.0,-2.4313,-2.4118,-2.434,-2.5136,0.0,-2.6008,-2.6517,-2.6972,-2.7504,-2.8245,-2.8125,-2.8005,-2.789,-2.7855,-2.774,-2.764,-2.8384,-2.8819,-2.9037,-2.9812,-3.0145,-3.0166,-3.013,-2.9716,-2.9164,-2.936,-2.9169,-2.8751,-2.8343,-2.804,0.0,0.0,0.0,0.0,0.0,0.0,0.0,-2.657,-2.6623,-2.6703,-2.754,-2.7837,-2.8153,-2.91,-3.0283,-3.1605,-3.2967,-3.5025,-3.6759,-3.7281,-3.754,-3.7703,-3.7595,-3.7685,-3.8026,-3.8833,-3.9546,-4.0256,-4.11,-4.1706,-4.2037,-4.1945,-4.171,-4.1426,-4.1093,-4.0793,-4.0453,-3.9901,-3.9781,-3.9451,-3.886,-3.8297,-3.7584,-3.6562,-3.6121,-3.544,-3.461,-3.4726,-3.471,-3.4497,-3.4399,-3.4201,-3.3848,-3.3745,-3.3555,-3.3324,-3.395,-3.4839,-3.5864,-3.5278,-3.4925,-3.4816,-3.4233,-3.3833,-3.3551,-3.383,-3.3827,-3.3619,-3.3367,-3.3112,-3.3052,0.0,0.0,0.0,0.0,0.0,0.0,0.0,0.0,-2.5917,-2.5828,-2.5432,-2.5084,-2.4879,-2.473,0.0,0.0,-2.479,-2.5072,-2.5555,-2.5863,-2.6336,-2.6963,-2.7535,-2.7915,-2.8088,-2.7855,-2.7705,-2.759,-2.759,-2.764,-2.769,-2.8586,-2.9225,-2.9611,-3.0545,-3.0994,-3.0979,-3.1151,-3.0814,-3.0195,-3.0541,-3.0577,-3.0369,-3.014,-2.9624,-2.8926,-2.8416,0.0,0.0,0.0,0.0,0.0,0.0,0.0,-2.764,-2.8203,-2.8679,-2.9136,-2.9501,-3.0671,-3.2169,-3.3835,-3.5538,-3.6913,-3.7299,-3.7667,-3.7951,-3.7967,-3.8002,-3.822,-3.9013,-3.9427,-3.9892,-4.0623,-4.0953,-4.1083,-4.0855,-4.0669,-4.0394,-4.0047,-3.9755,-3.9409,-3.8923,-3.8724,-3.8419,-3.7949,-3.7515,-3.6832,-3.5801,-3.55,-3.4998,-3.4316,-3.4349,-3.4399,-3.4399,-3.4349,-3.4151,-3.3899,-3.3745,-3.3555,-3.334,-3.4281,-3.4965,-3.5381,-3.4983,-3.4638,-3.4364,-3.3478,-3.3084,-3.31,-3.3303,-3.3474,-3.3536,-3.3227,-3.3002,-3.2888,0.0,0.0,0.0,0.0,0.0,0.0,0.0,0.0,0.0,-2.5572,-2.5224,-2.4926,-2.4831,-2.5072,-2.5195,0.0,0.0,0.0,-2.6025,-2.6258,-2.6765,-2.7456,-2.7913,-2.8039,-2.769,-2.7452,-2.735,-2.735,-2.735,-2.7548,-2.7936,-2.8803,-2.9514,-3.0219,-3.1281,-3.1796,-3.1865,-3.2039,-3.1763,-3.1287,-3.1397,-3.1612,-3.1855,-3.1838,-3.1096,-3.0019,-2.9562,-2.8451,-2.7165,-2.7403,0.0,0.0,0.0,0.0,-2.9055,-2.9179,-2.9781,-3.0346,-3.0089,-3.1223,-3.2949,-3.4851,-3.5805,-3.6481,-3.719,-3.7578,-3.7889,-3.8252,-3.8238,-3.8319,-3.8921,-3.912,-3.9356,-3.9854,-4.0032,-3.9988,-3.9656,-3.9499,-3.9269,-3.8877,-3.8567,-3.8213,-3.7838,-3.7614,-3.7336,-3.6949,-3.668,-3.613,-3.527,-3.5107,-3.4767,-3.4316,-3.43,-3.43,-3.4349,-3.4349,-3.4201,-3.3949,-3.3745,-3.3555,-3.334,-3.4479,-3.4892,-3.4737,-3.445,-3.4115,-3.3713,-3.2661,-3.2326,-3.2509,-3.2694,-3.3004,-3.3366,-3.3171,-3.3073,-3.2988,0.0,0.0,0.0,0.0,0.0,0.0,0.0,0.0,0.0,0.0,-2.491,-2.4822,-2.4806,-2.4829,-2.5264,-2.6262,-2.6315,-2.6704,-2.7677,0.0,0.0,-2.8258,-2.8125,-2.7775,-2.7284,-2.7144,-2.7055,-2.7055,-2.7196,-2.7683,-2.8524,-2.9433,-2.9924,-3.0114,-3.172,-3.2579,-3.2756,-3.2864,-3.3014,-3.3117,-3.2599,-3.2626,-3.2918,-3.2222,-3.1882,-3.1627,-3.1214,-3.0714,-3.0211,-3.0138,-2.9915,0.0,0.0,0.0,-2.9999,-3.0051,-3.0268,-3.0587,-3.0545,-3.1602,-3.3145,-3.4681,-3.5091,-3.5503,-3.6897,-3.7113,-3.7235,-3.8172,-3.8382,-3.8354,-3.8401,-3.8896,-3.9246,-3.9229,-3.9711,-3.9988,-3.9656,-3.9534,-3.9346,-3.9007,-3.8622,-3.8242,-3.7838,-3.7614,-3.7336,-3.6949,-3.6204,-3.5642,-3.5391,-3.4637,-3.4248,-3.43,-3.43,-3.4349,-3.4448,-3.4448,-3.4349,-3.405,-3.3694,-3.3503,-3.3482,-3.4137,-3.4282,-3.3995,-3.3681,-3.3337,-3.2899,-3.2422,-3.1999,-3.1714,-3.1983,-3.235,-3.2701,-3.2373,-3.2556,-3.2988,0.0,0.0,0.0,0.0,0.0,0.0,0.0,0.0,0.0,0.0,0.0,-2.4701,-2.4902,-2.5313,-2.5986,-2.6968,-2.728,-2.7656,-2.8306,-2.8317,0.0,-2.8039,-2.7725,-2.7372,-2.6974,-2.6712,-2.6659,-2.6698,-2.7205,-2.7806,-2.8396,-2.9771,-3.0524,-3.0731,-3.2037,-3.2718,-3.2912,-3.3058,-3.3256,-3.3519,-3.3738,-3.4078,-3.4447,-3.4426,-3.4199,-3.3826,-3.3374,-3.2507,-3.1589,-3.142,-3.0964,-3.0613,-3.1,0.0,0.0,0.0,-3.1281,-3.1628,-3.1696,-3.2374,-3.3182,-3.3762,-3.4258,-3.4915,-3.6007,-3.6488,-3.6994,-3.8125,-3.8368,-3.8382,-3.8368,-3.8594,-3.8712,-3.8456,-3.8599,-3.8649,-3.8344,-3.8205,-3.7965,-3.7634,-3.7318,-3.7011,-3.6586,-3.6387,-3.6119,-3.5811,-3.5366,-3.5038,-3.4872,-3.4529,-3.4349,-3.4399,-3.4399,-3.4448,-3.4497,-3.4497,-3.4349,-3.4101,-3.3745,-3.3555,-3.3519,-3.3609,-3.3756,-3.387,-3.3712,-3.3372,-3.2851,-3.2093,-3.1737,-3.1616,-3.1467,-3.1989,-3.2709,-3.2384,-3.2778,-3.3437,0.0,0.0,0.0,0.0,0.0,0.0,0.0,0.0,0.0,0.0,0.0,-2.5176,-2.5527,0.0,0.0,0.0,-2.8169,-2.8526,-2.8717,0.0,0.0,0.0,0.0,-2.7099,-2.6905,-2.6637,-2.664,-2.6946,-2.7585,-2.8123,-2.871,-3.0128,-3.1016,-3.1418,-3.2252,-3.2718,-3.2912,-3.3231,-3.3561,-3.3889,-3.4734,-3.534,-3.5768,-3.6234,-3.6104,-3.5616,-3.5129,-3.4139,-3.3108,-3.2898,-3.2269,-3.1717,-3.2232,-3.212,0.0,0.0,0.0,-3.2398,-3.2523,-3.2866,-3.3119,-3.2965,-3.3373,-3.409,-3.4864,-3.5647,-3.6484,-3.7685,-3.8125,-3.8318,-3.8318,-3.8318,-3.8219,-3.7934,-3.7757,-3.7559,-3.7279,-3.7066,-3.6811,-3.6485,-3.6293,-3.5993,-3.5577,-3.5412,-3.5198,-3.4899,-3.4804,-3.4659,-3.4546,-3.4497,-3.4497,-3.4546,-3.4546,-3.4546,-3.4594,-3.4546,-3.4448,-3.4201,-3.3899,-3.371,-3.3555,-3.3256,-3.3286,-3.3661,-3.3575,-3.3224,-3.271,-3.2,-3.1753,-3.174,-3.1464,-3.2004,-3.2911,-3.2656,-3.3135,-3.3827,0.0,0.0,0.0,0.0,0.0,0.0,0.0,0.0,0.0,0.0,0.0,-2.671,-2.7052,-2.7419,-2.7948,-2.8835,-2.8983,-2.9108,-2.9241,0.0,0.0,0.0,0.0,0.0,-2.7267,-2.7045,-2.7329,-2.8097,-2.8254,-2.8927,-3.0024,-3.0548,-3.1203,-3.1992,-3.2413,-3.2718,-3.2944,-3.3717,-3.4311,-3.4819,-3.5599,-3.6226,-3.6626,-3.6675,-3.6555,-3.6417,-3.605,-3.5678,-3.5387,-3.5292,-3.4636,-3.3928,-3.396,-3.3318,-3.2532,0.0,0.0,0.0,-3.2398,-3.2648,-3.287,-3.2682,-3.256,-3.2768,-3.3676,-3.4414,-3.5261,-3.66,-3.7543,-3.8101,-3.8101,-3.8101,-3.8052,-3.7934,-3.7739,-3.7503,-3.7147,-3.693,-3.669,-3.6343,-3.6148,-3.5844,-3.547,-3.5321,-3.5198,-3.4899,-3.4804,-3.4691,-3.4691,-3.4546,-3.4546,-3.4691,-3.4691,-3.4739,-3.4899,-3.4739,-3.4594,-3.4448,-3.4101,-3.3797,-3.3658,-3.3309,-3.3074,-3.2959,-3.264,-3.2293,-3.2088,-3.233,-3.2243,-3.2029,-3.2319,-3.2717,-3.3192,-3.2978,-3.3325,-3.3896,0.0,0.0,0.0,0.0,0.0,0.0,0.0,0.0,0.0,0.0,0.0,0.0,0.0,-2.7582,-2.816,-2.8976,-2.9349,0.0,0.0,0.0,0.0,0.0,0.0,0.0,-2.808,-2.7869,-2.7969,-2.8383,-2.8973,-2.9507,-3.0142,-3.0899,-3.1682,-3.2488,-3.2931,-3.3243,-3.3472,-3.4238,-3.4872,-3.5393,-3.6261,-3.7193,-3.81,-3.8372,-3.8884,-3.9331,-3.8917,-3.8033,-3.7036,-3.6921,-3.5989,-3.4888,-3.4801,-3.4419,-3.3913,-3.3198,-3.2599,-3.215,-3.215,-3.2373,-3.2369,-3.1569,-3.1774,-3.2229,-3.2521,-3.3593,-3.4902,-3.6114,-3.7095,-3.7613,-3.7093,-3.7538,-3.7916,-3.7739,-3.7466,-3.7223,-3.7048,-3.6771,-3.6544,-3.6251,-3.6105,-3.5657,-3.4796,-3.4673,-3.46,-3.4451,-3.4422,-3.4575,-3.5071,-3.5041,-3.4994,-3.4947,-3.5041,-3.5041,-3.5041,-3.4787,-3.4643,-3.4497,-3.4201,-3.3899,-3.371,-3.3346,-3.3112,-3.2897,-3.2523,-3.2532,-3.2749,-3.2687,-3.2751,-3.2911,-3.2775,-3.3004,-3.3507,-3.3177,-3.3595,-3.4142,0.0,0.0,0.0,-2.6606,0.0,-2.6464,-2.6449,-2.6591,-2.6779,-2.7103,0.0,0.0,0.0,0.0,-2.9597,-3.0182,-3.0424,-3.0387,-2.9911,-2.945,0.0,0.0,0.0,0.0,-2.8857,-2.8641,-2.8742,-2.9131,-2.974,-3.0178,-3.0482,-3.1409,-3.2122,-3.2749,-3.3541,-3.3925,-3.3944,-3.474,-3.5368,-3.5934,-3.7026,-3.8067,-3.9039,-3.9657,-4.0284,-4.0825,-4.0469,-3.9661,-3.8665,-3.8487,-3.7388,-3.6131,-3.587,-3.531,-3.4523,-3.3456,-3.2779,-3.2285,-3.2,-3.215,-3.2074,-3.0876,-3.116,-3.1656,-3.1371,-3.274,-3.4341,-3.5249,-3.6231,-3.6732,-3.62,-3.6398,-3.6666,-3.6666,-3.6427,-3.6201,-3.6138,-3.5884,-3.5641,-3.5452,-3.5309,-3.4874,-3.4081,-3.3943,-3.4001,-3.4214,-3.4231,-3.4594,-3.5379,-3.5367,-3.5274,-3.5198,-3.5245,-3.5245,-3.5152,-3.4761,-3.4572,-3.4643,-3.4105,-3.3824,-3.3761,-3.345,-3.3203,-3.2951,-3.2703,-3.2798,-3.3215,-3.3152,-3.3397,-3.3844,-3.3754,-3.3853,-3.409,-3.3775,-3.4051,-3.4414,-2.7821,-2.7821,-2.7836,-2.7851,-2.7851,-2.7851,-2.7851,-2.8213,-2.8539,-2.8747,0.0,0.0,0.0,0.0,0.0,-3.25,-3.2272,-3.19,-3.1453,-3.1042,0.0,0.0,0.0,0.0,-2.9639,-2.9375,-2.9617,-3.0312,-3.0507,-3.0762,-3.1161,-3.2094,-3.2571,-3.2809,-3.4319,-3.4699,-3.4286,-3.5169,-3.5807,-3.6346,-3.8042,-3.8914,-3.9323,-4.0313,-4.0605,-4.0534,-4.0561,-4.0441,-4.0276,-3.9971,-3.8893,-3.7716,-3.7345,-3.5957,-3.4263,-3.3328,-3.2998,-3.2788,0.0,0.0,0.0,-3.0698,-3.0857,-3.1102,-3.0277,-3.1783,-3.3529,-3.4068,-3.4849,-3.5466,-3.5431,-3.4727,-3.4265,-3.4621,-3.4582,-3.4449,-3.437,-3.4293,-3.412,-3.394,-3.3802,-3.3622,-3.3414,-3.3271,-3.3472,-3.4179,-3.4246,-3.4644,-3.5537,-3.5436,-3.5362,-3.5258,-3.5258,-3.5274,-3.5291,-3.4588,-3.4418,-3.4866,-3.3871,-3.3551,-3.3866,-3.3487,-3.3256,-3.3096,-3.2951,-3.3051,-3.3276,-3.383,-3.4212,-3.464,-3.5235,-3.5279,-3.4868,-3.475,-3.4698,-3.4631,-2.8269,-2.8374,-2.8576,-2.9177,-2.9237,-2.9327,-2.9535,-2.9725,-3.003,0.0,0.0,0.0,-3.1656,-3.2112,-3.2471,-3.2635,-3.2259,-3.1885,-3.1598,-3.1008,-3.0716,-3.0784,-3.0348,-3.0327,-3.0821,-3.0676,-3.066,-3.0895,-3.1058,-3.1161,-3.1249,-3.2094,-3.2691,-3.3108,-3.4006,-3.4494,-3.4728,-3.5672,-3.6245,-3.6644,-3.7746,-3.8821,-3.985,-4.0494,-4.1273,-4.1989,-4.1927,-4.1542,-4.1077,-4.1016,-4.0144,-3.9055,-3.8105,-3.6583,-3.4985,-3.4028,-3.3319,-3.2687,-3.1835,0.0,0.0,0.0,0.0,0.0,-2.9984,-3.1517,-3.3203,-3.3322,-3.4184,-3.4668,-3.3854,-3.3141,-3.2502,-3.1862,-3.3071,-3.4047,-3.4024,-3.4002,-3.394,-3.3761,-3.3802,-3.3596,-3.2906,-3.2798,-3.2842,0.0,-3.3539,-3.4227,-3.5053,-3.4854,-3.4766,-3.4861,-3.4639,-3.4818,-3.5446,-3.4633,-3.4168,-3.4087,-3.3813,-3.353,-3.329,-3.3707,-3.3694,-3.3398,-3.3256,-3.3701,-3.4556,-3.4337,-3.4941,-3.5904,-3.5706,-3.5539,-3.5294,-3.4949,-3.4683,-3.4414,-2.8586,-2.8782,-2.9009,-2.952,-2.9726,-2.994,-3.0083,-3.0381,-3.074,0.0,0.0,0.0,-3.4023,-3.436,-3.4502,-3.4502,-3.4201,-3.3761,-3.3393,-3.2809,-3.2532,-3.2548,-3.1838,-3.1582,-3.1796,-3.1323,-3.1087,-3.1087,-3.119,-3.1382,-3.159,-3.2377,-3.3015,-3.3543,-3.4194,-3.4632,-3.4935,-3.5429,-3.5879,-3.6413,-3.7571,-3.87,-3.9676,-4.0657,-4.1549,-4.2365,-4.2381,-4.2187,-4.1911,-4.1864,-4.107,-3.985,-3.8419,-3.7251,-3.6014,-3.447,-3.3607,-3.2975,-3.1925,-3.1826,-3.1794,-3.0861,0.0,0.0,-3.059,-3.1805,-3.3098,-3.3155,-3.3417,-3.3395,-3.2729,-3.1785,-3.0957,-3.0359,-3.1425,-3.2425,-3.2724,-3.2781,-3.2821,-3.2804,-3.2877,-3.2706,-3.2316,-3.2226,-3.2346,-3.2788,-3.3218,-3.3745,-3.45,-3.4328,-3.4261,-3.4278,-3.443,-3.4715,-3.5155,-3.4688,-3.4427,-3.4485,-3.4064,-3.3785,-3.3632,-3.3956,-3.3899,-3.3519,-3.3699,-3.4281,-3.508,-3.5074,-3.5552,-3.6352,-3.5958,-3.5653,-3.5359,-3.5001,-3.4668,-3.4346,0.0,-2.916,-2.9356,-2.9485,-2.9883,-3.0167,-3.0221,-3.0726,-3.1185,0.0,-3.3168,-3.5033,-3.692,-3.727,-3.727,-3.717,-3.6882,-3.645,-3.5883,-3.5387,-3.4951,-3.4577,-3.3497,-3.2824,-3.2526,-3.1693,-3.1205,-3.1132,-3.1205,-3.1485,-3.1999,-3.2783,-3.3416,-3.3927,-3.4574,-3.4802,-3.4802,-3.4802,-3.5118,-3.5744,-3.7466,-3.8477,-3.9087,-4.0657,-4.1636,-4.2237,-4.243,-4.2558,-4.2684,-4.2477,-4.1582,-4.0324,-3.8638,-3.7871,-3.7107,-3.4699,-3.394,-3.3547,-3.2161,-3.1898,-3.1886,-3.1513,-3.1663,0.0,-3.1596,-3.2273,-3.3,-3.3159,-3.2557,-3.1929,-3.1803,-3.0626,-2.9661,-2.9661,-2.9897,-3.0316,-3.1015,-3.1196,-3.1334,-3.1504,-3.15,-3.1576,-3.1763,-3.1691,-3.2004,-3.2899,-3.3075,-3.3367,-3.3891,-3.3825,-3.3722,-3.3624,-3.4267,-3.4669,-3.4729,-3.4627,-3.4864,-3.5357,-3.4476,-3.417,-3.4382,-3.4218,-3.3899,-3.3587,-3.4234,-3.477,-3.5169,-3.5701,-3.6028,-3.6211,-3.6037,-3.5668,-3.5213,-3.4935,-3.4601,-3.4278,-2.9276,-2.9493,-2.9827,-3.076,-3.1063,-3.1332,-3.1698,-3.2419,-3.3146,-3.3826,-3.5367,-3.662,-3.7352,-3.7435,-3.7435,-3.7418,-3.6984,-3.6555,-3.6152,-3.5498,-3.5008,-3.4852,-3.4145,-3.347,-3.294,-3.2451,-3.1886,-3.1234,-3.1753,-3.1959,-3.2014,-3.324,-3.3701,-3.3587,-3.4176,-3.4399,-3.4264,-3.4399,-3.4683,-3.5067,-3.6926,-3.8029,-3.8747,-4.0339,-4.1669,-4.276,-4.2973,-4.3234,-4.3347,-4.2446,-4.1518,-4.0531,-3.9297,-3.845,-3.739,-3.4744,-3.3985,-3.3637,-3.2204,-3.1898,-3.1886,-3.1365,-3.1626,0.0,-3.1231,-3.1944,-3.2528,-3.1902,-3.1565,-3.1133,-3.0352,-2.9501,-2.8873,-2.8795,-2.9074,-2.9572,-3.0351,-3.0723,-3.0925,-3.1095,-3.1346,-3.1555,-3.1617,-3.1765,-3.1927,-3.2119,-3.2782,-3.3236,-3.3355,-3.3166,-3.3089,-3.3051,-3.3048,-3.3635,-3.4823,-3.4159,-3.4084,-3.4682,-3.4315,-3.4043,-3.3787,-3.4235,-3.4201,-3.3845,-3.4393,-3.4863,-3.5266,-3.5583,-3.6043,-3.6414,-3.5958,-3.5653,-3.5359,-3.475,-3.4264,-3.3854,-2.9494,-2.9791,-3.019,-3.094,-3.1321,-3.1715,-3.2349,-3.297,-3.3692,-3.4628,-3.6212,-3.7541,-3.8403,-3.8488,-3.8488,-3.8385,-3.8005,-3.7563,-3.7148,-3.6546,-3.6041,-3.5804,-3.4957,-3.4319,-3.3849,-3.3216,-3.2645,-3.2258,-3.2387,-3.2603,-3.2878,-3.3331,-3.3682,-3.3787,-3.3998,-3.4088,-3.4005,-3.421,-3.4346,-3.4733,-3.6571,-3.7707,-3.8433,-4.0069,-4.156,-4.29,-4.3033,-4.3247,-4.3346,-4.27,-4.1898,-4.0958,-3.9563,-3.8729,-3.776,-3.5248,-3.4182,-3.3653,-3.2654,-3.2197,-3.1962,-3.1888,-3.2083,0.0,0.0,-3.228,-3.2379,-3.1636,-3.106,-3.0472,-2.9654,-2.8861,-2.835,-2.835,-2.8295,-2.8432,-2.8882,-2.943,-2.9773,-2.9705,-3.0163,-3.0577,-3.0844,-3.1227,-3.16,-3.1839,-3.2239,-3.2537,-3.2557,-3.2409,-3.2352,-3.2352,-3.2599,-3.3088,-3.3836,-3.4131,-3.438,-3.4609,-3.4706,-3.4555,-3.4259,-3.443,-3.425,-3.3861,-3.4745,-3.5126,-3.5143,-3.5838,-3.6107,-3.6085,-3.5718,-3.5409,-3.503,-3.4549,-3.4059,-3.3507,-2.954,-2.9898,-3.0312,-3.0702,-3.1161,-3.1719,-3.2496,-3.3117,-3.4006,-3.529,-3.6837,-3.8204,-3.9365,-3.9501,-3.9498,-3.9508,-3.9183,-3.8844,-3.8518,-3.7805,-3.7201,-3.6863,-3.5783,-3.5046,-3.4708,-3.3871,-3.3357,-3.3161,-3.2981,-3.3127,-3.3573,-3.344,-3.3571,-3.3922,-3.3813,-3.3758,-3.3813,-3.3937,-3.42,-3.469,-3.6409,-3.7419,-3.8113,-3.9879,-4.1492,-4.2833,-4.29,-4.3145,-4.3307,-4.2805,-4.2195,-4.122,-3.9544,-3.8753,-3.7996,-3.5611,-3.4394,-3.3683,-3.3107,-3.244,-3.2053,-3.2428,-3.2523,-3.2578,0.0,0.0,0.0,-3.1442,-3.0593,-2.9787,-2.8997,-2.8303,-2.7905,-2.7989,-2.7557,-2.721,-2.7226,-2.7674,-2.8049,-2.8178,-2.8758,-2.9281,-2.9631,-3.0364,-3.0992,-3.1562,-3.1634,-3.1691,-3.1785,-3.1783,-3.1763,-3.1763,-3.2331,-3.2651,-3.2745,-3.4035,-3.4661,-3.4686,-3.5121,-3.5152,-3.4899,-3.4594,-3.4201,-3.3774,-3.495,-3.5219,-3.4945,-3.5983,-3.61,-3.5638,-3.5489,-3.5096,-3.4631,-3.4346,-3.3799,-3.3157,-2.9463,-2.9713,-3.0007,-3.0507,-3.0881,-3.1471,-3.2407,-3.3306,-3.4768,-3.7239,-3.8277,-3.8995,-3.9432,-3.9501,-3.9698,-4.015,-3.9738,-3.9615,-3.977,-3.8742,-3.7857,-3.7448,-3.6407,-3.5501,-3.4708,-3.4304,-3.3754,-3.3004,-3.3372,-3.35,-3.3258,-3.3768,-3.3796,-3.3382,-3.3382,-3.3396,-3.3396,-3.3382,-3.4043,-3.5091,-3.6207,-3.7114,-3.7948,-3.9795,-4.1286,-4.2496,-4.2983,-4.3515,-4.3715,-4.2259,-4.1586,-4.1006,-3.9156,-3.8527,-3.7996,-3.547,-3.4317,-3.3608,-3.2915,-3.2266,-3.1841,-3.2053,-3.215,-3.2247,-3.2231,0.0,-3.1728,-3.0434,0.0,-2.9039,-2.7831,0.0,0.0,-2.7335,-2.6857,-2.6363,-2.5888,-2.5516,-2.579,-2.7262,-2.7721,-2.7996,-2.8139,-2.9036,-2.9916,-3.0767,-3.1067,-3.124,-3.1372,-3.1466,-3.1542,-3.1542,-3.1623,-3.1944,-3.261,-3.3383,-3.4049,-3.4695,-3.5121,-3.5152,-3.4899,-3.4497,-3.4101,-3.3774,-3.4841,-3.5049,-3.4728,-3.5661,-3.5861,-3.5489,-3.5294,-3.4883,-3.4346,-3.3868,-3.3437,-3.3002,-2.8944,-2.9449,-2.9837,-3.0326,-3.1008,-3.1854,-3.2809,-3.4455,-3.6117,-3.7605,-3.8319,-3.8766,-3.904,-3.9347,-3.9614,-3.978,-3.9709,-3.9678,-3.969,-3.8873,-3.8255,-3.7931,-3.7344,-3.6743,-3.6111,-3.5474,-3.4935,-3.4538,-3.4251,-3.3993,-3.3739,-3.3876,-3.373,-3.3312,-3.3157,-3.3157,-3.3143,-3.3241,-3.3945,-3.5051,-3.6166,-3.7198,-3.8286,-3.9879,-4.137,-4.2643,-4.3377,-4.3389,-4.2942,-4.2291,-4.1549,-4.0551,-3.8959,-3.8213,-3.7591,-3.5714,-3.4592,-3.3898,-3.36,-3.2841,-3.2093,-3.2284,-3.2025,-3.1781,-3.1682,-3.1625,-3.115,-2.968,0.0,0.0,0.0,0.0,0.0,0.0,-2.6621,-2.5958,-2.5342,-2.4724,-2.4627,-2.5346,-2.5968,-2.6572,-2.7147,-2.7743,-2.8241,-2.8625,-2.9329,-2.9838,-3.0016,-3.0593,-3.0925,-3.0965,-3.1117,-3.1382,-3.167,-3.2855,-3.366,-3.3965,-3.4858,-3.5152,-3.4916,-3.4889,-3.4665,-3.4329,-3.5331,-3.5544,-3.5285,-3.5689,-3.5589,-3.5148,-3.4817,-3.4549,-3.4128,-3.3591,-3.3086,-3.2561,-2.8942,-2.9306,-2.9659,-3.0311,-3.1159,-3.2173,-3.3464,-3.5415,-3.6969,-3.7836,-3.8338,-3.8748,-3.9194,-3.9511,-3.9725,-3.986,-3.9797,-3.9803,-3.9832,-3.9141,-3.857,-3.8354,-3.7865,-3.7434,-3.7089,-3.6232,-3.5742,-3.5605,-3.4704,-3.421,-3.4074,-3.3813,-3.3536,-3.3157,-3.2931,-3.2846,-3.2917,-3.3157,-3.396,-3.5224,-3.6239,-3.7619,-3.9198,-4.027,-4.1454,-4.2658,-4.3079,-4.2848,-4.2238,-4.1981,-4.1217,-4.0171,-3.8907,-3.8046,-3.724,-3.5889,-3.4756,-3.3897,-3.3977,-3.3136,-3.2222,-3.2242,-3.1886,-3.1427,-3.1205,-3.1102,-3.0734,-2.943,-2.8937,0.0,0.0,0.0,-2.6832,-2.6922,0.0,-2.556,-2.4907,-2.4221,-2.3754,-2.3799,-2.442,-2.5185,-2.6035,-2.633,-2.6565,-2.6851,-2.7716,-2.8356,-2.8702,-2.9475,-3.0037,-3.026,-3.0559,-3.0816,-3.1057,-3.2496,-3.3338,-3.3573,-3.4672,-3.5041,-3.482,-3.5083,-3.4945,-3.467,-3.5545,-3.5804,-3.5582,-3.5558,-3.5249,-3.4802,-3.4346,-3.4074,-3.3854,-3.3368,-3.2874,-3.2286,-2.9845,-2.9572,-2.9483,-3.0581,-3.12,-3.2244,-3.4343,-3.583,-3.7141,-3.8349,-3.8882,-3.9495,-4.0275,-4.0148,-4.027,-4.091,-4.0369,-4.0209,-4.0758,-3.9763,-3.9055,-3.8741,-3.7901,-3.7282,-3.7075,-3.6148,-3.5605,-3.5605,-3.4568,-3.4074,-3.3896,-3.3466,-3.3086,-3.2704,-3.2489,-3.2561,-3.2704,-3.2917,-3.42,-3.6101,-3.6655,-3.8461,-4.0768,-4.095,-4.1606,-4.2328,-4.1637,-4.1606,-4.1713,-4.0855,-4.0385,0.0,0.0,-3.8012,-3.7261,-3.5987,-3.4683,-3.3688,-3.3478,-3.2933,-3.228,-3.1671,-3.1511,-3.1384,-3.0908,-3.0702,-3.0513,-2.9973,-2.9159,-2.8295,-2.759,-2.6863,-2.634,-2.634,-2.5706,0.0,0.0,-2.3632,-2.3141,-2.3111,-2.3348,-2.3791,-2.4582,-2.4791,-2.5197,-2.5971,-2.6408,-2.6985,-2.7715,-2.8208,-2.8746,-2.9435,-2.9821,-3.0397,-3.1172,-3.221,-3.315,-3.4006,-3.4598,-3.4787,-3.4513,-3.4778,-3.4697,-3.436,-3.5288,-3.5536,-3.5232,-3.5205,-3.5016,-3.4631,-3.3882,-3.3536,-3.3312,-3.3072,-3.2646,-3.2096,-2.9714,-2.9902,-3.0223,-3.1026,-3.1997,-3.3194,-3.4872,-3.6058,-3.7079,-3.8182,-3.8613,-3.9125,-3.9856,-4.0056,-4.026,-4.032,-4.0313,-4.0346,-4.0409,-3.9878,-3.942,-3.9152,-3.877,-3.8364,-3.8003,-3.7171,-3.6417,-3.5896,-3.4853,-3.4072,-3.3466,-3.3227,-3.2917,-3.2489,-3.2417,-3.2489,-3.2704,-3.2917,-3.4214,-3.6273,-3.8023,-3.9485,-4.0593,-4.0799,-4.1226,-4.1586,-4.1148,-4.0938,0.0,-4.0307,-3.9879,-3.9489,-3.8546,-3.7538,-3.6538,-3.5685,-3.4679,-3.3825,0.0,0.0,-3.2672,-3.2456,-3.1782,-3.1108,-3.0955,-3.0582,-3.0047,-2.9387,-2.8968,-2.8439,-2.7342,-2.6931,-2.6647,-2.6236,-2.5887,-2.5233,0.0,-2.2774,-2.2042,-2.2231,-2.2618,-2.3036,-2.3466,-2.3599,-2.3792,-2.4059,-2.4777,0.0,-2.5727,-2.6826,-2.7659,-2.8061,-2.8837,-2.9683,-3.0617,-3.1776,-3.2833,-3.3713,-3.4457,-3.4906,-3.5184,-3.5352,-3.5514,-3.5717,-3.6055,-3.6014,-3.5655,-3.5175,-3.4668,-3.4059,-3.3591,-3.303,-3.253,-3.253,-3.2241,-3.189,-3.0268,-3.0791,-3.1199,-3.1607,-3.2825,-3.4053,-3.5175,-3.6006,-3.6971,-3.8137,-3.8591,-3.914,-4.0007,-4.0266,-4.0282,-4.0117,-4.0125,-4.0176,-4.0021,-3.9681,-3.9409,-3.9265,-3.9031,-3.8738,-3.8366,-3.7622,-3.675,-3.5797,-3.4881,-3.3973,-3.3086,-3.286,-3.2503,-3.2214,-3.2214,-3.2359,-3.2632,-3.2988,-3.4158,-3.6041,-3.8512,-3.9893,-4.0593,-4.0593,-4.0799,-4.0987,0.0,-4.0455,-4.0036,-3.9824,-3.9466,-3.903,-3.8383,-3.7287,-3.6157,-3.561,-3.4679,-3.3758,-3.3675,-3.3377,0.0,-3.278,-3.2127,-3.1417,-3.1027,-3.0614,-3.0131,-2.949,-2.9118,-2.8576,-2.7455,-2.7074,-2.661,-2.5882,-2.5674,-2.5025,0.0,-2.2309,-2.1556,-2.1533,-2.2044,-2.2463,-2.2723,-2.2828,-2.2947,-2.2947,-2.3478,-2.3997,0.0,-2.5373,-2.6268,-2.6879,-2.7734,-2.8856,-3.0319,-3.1326,-3.248,-3.3696,-3.417,-3.4725,-3.5289,-3.5492,-3.5767,-3.6162,-3.6245,-3.61,-3.5638,-3.5001,-3.4317,-3.3701,-3.3213,-3.2745,-3.2182,-3.2182,-3.1877,-3.1211,-3.1262,-3.1942,-3.2327,-3.218,-3.3561,-3.4765,-3.5148,-3.5767,-3.6748,-3.8277,-3.8738,-3.9396,-4.0644,-4.0593,-4.0385,-4.0146,-3.9879,-3.9696,-3.9681,-3.9322,-3.9104,-3.9104,-3.8664,-3.8366,-3.8202,-3.7414,-3.6484,-3.5461,-3.4607,-3.3687,-3.2704,-3.23,-3.2036,-3.189,-3.189,-3.2096,-3.2417,-3.3058,-3.4141,-3.5726,-3.8022,-3.9703,-4.073,-4.0401,-4.0331,-4.0455,-4.0455,-3.998,-3.9424,-3.9337,-3.9104,-3.8708,-3.8277,-3.7258,-3.6172,-3.5666,-3.4583,-3.3536,-3.3312,-3.3255,-3.3185,-3.2595,-3.2426,0.0,-3.109,-3.0828,-3.0616,-3.0221,-2.9458,-2.8686,-2.7931,-2.7169,-2.6313,-2.5367,-2.5061,-2.439,-2.2816,-2.2194,-2.1648,-2.1103,-2.1582,-2.203,-2.2324,-2.2509,-2.2555,-2.2555,-2.2632,-2.289,-2.3412,-2.38,-2.4604,-2.5862,-2.6445,-2.7898,-3.0304,-3.0845,-3.2056,-3.3799,-3.3864,-3.4266,-3.492,-3.5229,-3.5488,-3.5718,-3.5889,-3.5638,-3.5103,-3.4601,-3.4059,-3.3479,-3.2917,-3.2444,-3.2169,-3.2169,-3.1421,-3.0292,-3.0188,-3.1178,-3.2125,-3.2588,-3.3575,-3.4399,-3.4868,-3.5444,-3.6364,-3.7913,-3.8279,-3.8918,-4.0217,-4.0091,-3.9824,-3.961,-3.9394,-3.9162,-3.9017,-3.8943,-3.8797,-3.8664,-3.8427,-3.8217,-3.8005,-3.73,-3.6448,-3.53,-3.4463,-3.3471,-3.23,-3.1963,-3.1757,-3.1683,-3.1817,-3.2096,-3.2417,-3.3058,-3.4608,-3.6842,-3.8217,-3.9388,-4.0207,0.0,-3.9768,-3.9696,-3.9696,-3.9553,-3.9337,-3.8738,-3.8427,-3.8277,-3.7915,-3.6828,-3.5666,-3.5373,-3.4267,-3.3143,-3.2931,-3.3002,-3.303,-3.2877,-3.2583,-3.2328,0.0,0.0,0.0,-3.0255,-2.961,-2.8796,-2.8049,-2.7308,-2.6526,-2.5531,-2.4297,-2.3341,-2.2929,-2.199,-2.125,-2.1212,-2.1136,-2.1348,-2.1902,-2.2184,-2.2324,-2.2324,-2.2217,-2.224,-2.2362,0.0,-2.3611,-2.4676,-2.5416,-2.6806,-2.9048,-2.9913,-3.1094,-3.2708,-3.3689,-3.46,-3.5354,-3.5618,-3.5854,-3.6029,-3.5612,-3.5184,-3.475,-3.4128,-3.3563,-3.3129,-3.2516,-3.1936,-3.1286,-3.1286,-3.0761,-2.9934,-2.9947,-3.0842,-3.179,-3.2681,-3.3211,-3.3879,-3.4706,-3.5198,-3.5989,-3.7459,-3.7745,-3.8311,-3.9571,-3.9523,-3.9394,-3.9177,-3.9017,-3.8943,-3.8782,-3.8634,-3.8501,-3.8352,-3.8066,-3.7839,-3.7625,-3.7226,-3.6361,-3.5169,-3.4375,-3.3395,-3.2179,-3.1702,-3.1434,-3.1373,-3.1669,-3.195,-3.2345,-3.3269,-3.5056,-3.7273,-3.7922,-3.8852,0.0,-3.9625,-3.9409,-3.9104,-3.8958,-3.8885,-3.8811,-3.8352,-3.8052,-3.7839,-3.7457,-3.6453,-3.53,-3.5018,-3.3977,-3.2846,-3.2704,-3.2775,-3.2846,-3.2846,-3.2667,-3.2431,-3.2166,-3.1291,-3.0512,0.0,-2.9513,-2.8702,0.0,-2.7176,-2.6257,-2.4965,-2.3859,-2.3065,-2.2751,-2.212,-2.1623,-2.1434,-2.138,-2.1536,-2.1995,-2.1917,-2.1841,-2.1841,-2.1746,-2.1664,-2.1664,0.0,-2.2683,-2.3909,-2.4515,-2.5943,-2.8201,-2.9297,-3.0547,-3.1894,-3.3356,-3.4446,-3.5235,-3.5478,-3.5677,-3.58,-3.5234,-3.4668,-3.4196,-3.3563,-3.3072,-3.2588,-3.1936,-3.1211,-3.047,-3.047,-3.0075,-2.9611,-3.0079,-3.0689,-3.1422,-3.2376,-3.2734,-3.3274,-3.4394,-3.4957,-3.5644,-3.6926,-3.7287,-3.7793,-3.8971,-3.9031,-3.8943,-3.8797,-3.8723,-3.8708,-3.8708,-3.8352,-3.8127,-3.8127,-3.7763,-3.7457,-3.7303,-3.707,-3.6253,-3.4954,-3.4267,-3.3288,-3.2011,-3.151,-3.1198,-3.1061,-3.1447,-3.1877,-3.2359,-3.3563,-3.5277,-3.7159,-3.7327,-3.8312,-3.9538,-3.9337,-3.9031,-3.8634,-3.8277,-3.8127,-3.8127,-3.8052,-3.7825,-3.7457,-3.707,-3.6073,-3.5018,-3.4657,-3.3698,-3.2632,-3.2632,-3.2632,-3.2632,-3.2632,-3.2704,-3.2566,-3.2041,-3.1392,-3.0756,-3.0165,-2.9361,-2.8525,-2.7845,-2.6952,-2.5796,-2.4175,-2.3637,-2.3195,-2.2439,-2.2405,-2.2178,-2.16,-2.1809,0.0,-2.2198,-2.1807,-2.1556,-2.1556,-2.1408,-2.1322,-2.1309,0.0,-2.1982,-2.3466,-2.3895,-2.5204,-2.761,-2.8813,-3.0096,-3.1436,-3.2962,-3.4151,-3.4876,-3.514,-3.5256,-3.527,-3.4735,-3.4128,-3.3479,-3.3058,-3.2574,-3.195,-3.1211,-3.047,-2.9792,-2.9714,-2.9534,-2.9263,-2.9513,-3.0012,-3.0751,-3.1698,-3.2316,-3.3018,-3.3934,-3.4727,-3.5598,-3.6341,-3.7038,-3.7855,-3.8782,-3.8723,-3.859,-3.859,-3.8427,-3.8202,-3.8081,-3.8005,-3.7853,-3.7687,-3.7457,-3.7226,-3.707,-3.6693,-3.576,-3.4172,-3.3692,-3.2781,-3.1418,-3.1176,-3.1123,-3.1272,-3.1669,-3.2386,-3.3382,-3.3854,-3.514,-3.6755,-3.691,-3.7804,-3.8943,-3.8575,-3.8352,-3.8277,-3.7839,-3.7825,-3.7886,-3.7366,-3.7134,-3.7056,-3.6615,-3.564,-3.4671,-3.4417,-3.3449,-3.2417,-3.23,-3.2359,-3.2417,-3.2417,-3.2561,-3.2676,-3.2566,-3.1571,-3.0719,-3.0609,-2.9399,-2.8325,-2.8076,0.0,-2.5717,-2.4216,-2.3779,-2.3393,-2.2738,-2.2196,-2.1864,-2.1765,-2.1643,-2.1592,-2.166,-2.2057,-2.2313,-2.2313,-2.2167,-2.206,-2.1966,0.0,-2.2495,0.0,-2.3852,0.0,0.0,0.0,-2.9503,-3.1486,-3.3017,-3.4197,-3.4927,-3.519,-3.51,-3.4558,-3.4031,-3.3409,-3.2846,-3.2444,-3.1863,-3.1211,-3.0836,-3.0394,-2.9792,-2.9378,-2.8973,-2.8669,-2.9893,-3.0325,-3.086,-3.1769,-3.2269,-3.276,-3.3506,-3.4341,-3.5167,-3.5928,-3.6634,-3.7343,-3.813,-3.8066,-3.7991,-3.7991,-3.7915,-3.7839,-3.7777,-3.7625,-3.7534,-3.7457,-3.7226,-3.707,-3.685,-3.6549,-3.5792,-3.4407,-3.3721,-3.2811,-3.1708,-3.1192,-3.1136,-3.1347,-3.1936,-3.266,-3.3466,-3.373,0.0,-3.5851,-3.6256,-3.7011,-3.7886,-3.7997,-3.7901,-3.7672,-3.738,-3.7303,-3.7226,-3.707,-3.6836,-3.6559,-3.594,-3.5146,-3.4362,-3.3806,-3.3009,-3.23,-3.2241,-3.2241,-3.23,-3.23,-3.2372,-3.2444,-3.23,-3.1303,-3.0391,-3.024,-2.908,-2.7815,-2.7223,-2.6464,0.0,-2.4416,-2.3788,-2.3315,-2.2995,-2.2494,-2.2079,-2.2079,-2.2157,-2.223,-2.2334,-2.2694,-2.2734,-2.2263,-2.2034,-2.1979,-2.2005,0.0,-2.2457,0.0,0.0,0.0,-2.6679,0.0,-2.9766,-3.1176,-3.2879,-3.3969,-3.436,-3.4581,-3.4476,-3.3962,-3.3409,-3.2846,-3.2372,-3.179,-3.1136,-3.0394,-3.0241,-2.9844,-2.9221,-2.8895,-2.859,-2.8339,-3.0542,-3.0759,-3.1169,-3.1875,-3.2193,-3.2471,-3.3143,-3.3903,-3.4667,-3.5552,-3.6208,-3.6849,-3.7553,-3.7625,-3.7625,-3.7625,-3.7625,-3.7625,-3.7534,-3.738,-3.7226,-3.7148,-3.6993,-3.685,-3.6563,-3.6281,-3.5593,-3.4481,-3.359,-3.2771,-3.1869,-3.1346,-3.1211,-3.1495,-3.22,-3.2789,0.0,0.0,-3.417,-3.5107,-3.5525,-3.6186,-3.7008,-3.7437,-3.7405,-3.7226,-3.6993,-3.6772,-3.6536,-3.6526,-3.6341,-3.6036,-3.5333,-3.4585,-3.3888,-3.3275,-3.2643,-3.2182,-3.2182,-3.2182,-3.2182,-3.2182,-3.2182,-3.2109,-3.1963,-3.1057,-3.018,-2.9851,-2.8675,-2.7446,-2.6501,-2.5987,0.0,-2.4731,-2.3961,-2.3349,-2.3055,-2.2657,-2.2356,-2.2247,-2.2543,-2.2787,-2.2896,-2.309,-2.2917,-2.216,-2.2071,-2.2071,-2.214,0.0,0.0,0.0,0.0,-2.549,-2.6679,0.0,-3.0074,-3.0988,-3.2707,-3.3631,-3.3857,-3.3936,-3.3742,-3.3339,-3.2775,-3.2372,-3.1877,-3.1123,-3.0394,-2.9792,-2.9702,-2.93,-2.8724,-2.8578,-2.8339,-2.8018,-3.0827,-3.0894,-3.1102,-3.1695,-3.1875,-3.2152,-3.2904,-3.3589,-3.4349,-3.5362,-3.6074,-3.6699,-3.7539,-3.7625,-3.7625,-3.7625,-3.7625,-3.7534,-3.7303,-3.7303,-3.7162,-3.6786,-3.6707,-3.6549,-3.6166,-3.5631,-3.473,-3.3499,-3.2911,-3.2097,-3.114,-3.1224,-3.1569,-3.2096,-3.2503,0.0,0.0,-3.3536,-3.4085,-3.4853,-3.491,-3.5669,-3.6682,-3.6589,-3.6731,-3.6993,-3.6786,-3.647,-3.607,-3.5336,-3.5172,-3.5264,-3.4947,-3.4054,-3.3207,-3.3152,-3.2643,-3.2182,-3.2182,-3.2182,-3.2182,-3.2182,-3.2036,-3.189,-3.189,-3.1235,-3.0463,-2.9931,-2.8607,-2.7377,-2.6786,-2.6488,-2.5959,0.0,-2.4546,-2.3903,-2.2633,-2.2456,-2.2256,-2.182,-2.2073,-2.2247,-2.2247,-2.2555,-2.2702,-2.2603,-2.3012,-2.3119,-2.282,-2.3225,0.0,-2.4512,-2.4964,-2.5955,-2.7591,-2.8461,-2.9789,-3.1624,-3.2539,-3.3278,-3.3822,-3.3673,-3.3199,-3.2489,-3.23,-3.1803,-3.1061,-3.0457,-3.0011,-2.9792,-2.9509,-2.904,-2.851,-2.851,-2.8099,-2.7603,-3.1523,-3.1591,-3.1659,-3.2091,-3.2132,-3.2272,-3.2733,-3.304,-3.3501,-3.4419,-3.5198,-3.5906,-3.6603,-3.6674,-3.683,-3.7197,-3.7226,-3.7226,-3.7148,-3.7007,-3.6864,-3.6721,-3.6563,-3.6405,-3.6086,-3.5497,-3.4726,-3.3715,-3.2984,-3.2319,-3.1508,-3.1522,-3.1743,-3.2182,0.0,-3.2704,-3.3143,-3.3213,-3.3424,-3.3734,-3.4114,-3.4506,-3.4938,-3.5227,-3.5446,-3.5502,-3.5363,-3.5055,-3.4794,-3.4302,-3.4465,-3.4641,-3.3705,-3.3078,-3.2697,-3.2273,-3.2005,-3.1817,-3.1817,-3.1817,-3.1817,-3.1817,-3.1743,-3.1669,-3.1582,-3.0897,-3.025,-2.9882,-2.8575,-2.7339,-2.6627,-2.6302,-2.5881,-2.5175,-2.4665,-2.4113,-2.345,-2.2963,-2.2694,-2.2627,-2.2657,-2.2852,-2.3059,-2.295,-2.2844,-2.2856,-2.2924,-2.2982,-2.2909,-2.3477,0.0,-2.44,0.0,-2.6501,-2.7771,-2.8879,-3.016,-3.1774,-3.2319,-3.2821,-3.3129,-3.2874,-3.2286,-3.1556,-3.136,-3.0911,-3.0241,-3.0011,-2.9546,-2.8998,-2.8895,-2.8578,-2.8122,-2.7938,-2.7765,-2.7441,-3.1882,-3.1963,-3.195,-3.2214,-3.2286,-3.2431,-3.2561,-3.2632,-3.2856,-3.3501,-3.4091,-3.4826,-3.5714,-3.5798,-3.5981,-3.6402,-3.6445,-3.6529,-3.6634,-3.6521,-3.6448,-3.6549,-3.6405,-3.6163,-3.5732,-3.5145,-3.4376,-3.3612,-3.2866,-3.2307,-3.1817,-3.1757,-3.189,0.0,-3.2359,-3.2561,-3.2846,-3.2917,-3.2917,-3.2959,-3.3376,-3.3609,-3.3771,-3.42,-3.4389,-3.4479,-3.4251,-3.4099,-3.3842,-3.345,-3.351,-3.3632,-3.2804,-3.2355,-3.2142,-3.1729,-3.1609,-3.1609,-3.1609,-3.1609,-3.1609,-3.1609,-3.1535,-3.1447,-3.1272,-3.0734,-3.0108,-2.9477,-2.838,-2.7258,-2.6471,-2.6025,-2.5606,-2.5241,0.0,-2.4248,-2.3816,-2.326,-2.2971,-2.2889,-2.2922,-2.3045,-2.3325,-2.3138,-2.2989,-2.3078,-2.2923,-2.2884,-2.2911,-2.3679,0.0,0.0,0.0,0.0,-2.7758,-2.8934,-3.0218,-3.1457,-3.2,-3.2286,-3.2345,-3.1936,-3.1434,-3.0836,-3.0546,-3.0164,-2.9702,-2.9468,-2.9077,-2.851,-2.8351,-2.8111,-2.7708,-2.7522,-2.736,-2.7278,-3.1596,-3.1743,-3.189,-3.189,-3.2036,-3.2241,-3.2345,-3.2417,-3.2489,-3.2704,-3.2717,-3.3331,-3.5026,-3.524,-3.524,-3.5254,-3.5254,-3.5372,-3.5774,-3.5816,-3.5925,-3.6138,-3.6086,-3.5705,-3.4855,-3.418,-3.3522,-3.2777,-3.2199,-3.183,-3.1609,-3.1817,-3.2036,-3.2182,-3.2359,-3.2417,-3.2417,-3.2632,-3.2704,-3.2704,-3.2704,-3.309,-3.373,-3.373,-3.3955,-3.4251,-3.4099,-3.3869,-3.3557,-3.2535,-3.2196,-3.2273,-3.2399,-3.2075,-3.1622,-3.1609,-3.1609,-3.1609,-3.1609,-3.1609,-3.1609,-3.1609,-3.1434,-3.1272,-3.1061,-3.0836,-3.0286,-2.8762,-2.7801,-2.7047,-2.637,-2.5676,-2.5229,-2.5016,0.0,-2.416,-2.3228,-2.3078,-2.2815,-2.217,-2.2377,-2.2639,-2.2639,-2.2989,-2.3191,-2.3191,-2.3191,-2.3167,-2.3003,-2.398,0.0,-2.5252,-2.549,0.0,-2.7793,-2.8595,-2.9607,-3.069,-3.1522,-3.1803,-3.1556,-3.0986,-3.0609,-3.0368,-3.0011,-2.9689,-2.9341,-2.8736,-2.851,-2.8431,-2.8042,-2.7708,-2.751,-2.7267,-2.7115,-2.6891,-3.1663,-3.1743,-3.1743,-3.2036,-3.2182,-3.2241,-3.2241,-3.2228,-3.23,-3.2489,-3.2489,-3.2784,-3.3387,-3.389,-3.4321,-3.4738,-3.478,-3.4863,-3.4982,-3.4844,-3.4788,-3.4904,-3.4685,-3.4434,-3.4153,-3.3647,-3.3315,-3.3172,0.0,0.0,0.0,-3.2036,-3.2109,-3.2182,-3.2241,-3.2286,-3.2417,-3.2489,-3.2489,-3.2489,-3.2489,-3.2554,-3.2673,-3.2673,-3.2796,-3.2812,-3.2664,-3.2455,-3.2204,-3.1779,-3.1487,-3.1412,-3.1487,-3.1369,-3.1211,-3.1211,-3.1211,-3.1211,-3.1211,-3.1211,-3.1136,-3.0999,-3.0924,-3.0836,-3.0609,-3.0305,-2.9694,-2.8249,-2.7667,-2.7052,-2.5847,-2.5453,-2.517,-2.4754,-2.4478,0.0,-2.3682,-2.3441,-2.3229,-2.3145,-2.3122,-2.3266,-2.3635,-2.3244,-2.3039,-2.3306,-2.3178,-2.3167,-2.3245,0.0,0.0,0.0,-2.5881,0.0,-2.7808,-2.852,-2.9461,-3.0475,-3.0895,-3.0986,-3.0735,-3.0126,-2.9819,-2.9741,-2.9275,-2.8973,-2.8736,-2.8419,-2.8099,-2.7765,-2.7696,-2.7371,-2.7044,-2.7044,-2.688,-2.6644,-3.1256,-3.1596,-3.1817,-3.2036,-3.1992,-3.1843,-3.1843,-3.1843,-3.1915,-3.1959,-3.215,-3.2359,-3.2503,-3.2859,0.0,-3.3822,-3.385,-3.3947,-3.4107,-3.3971,-3.4005,-3.4162,-3.4023,-3.3837,-3.3683,-3.3377,0.0,-3.3038,-3.255,-3.23,-3.23,-3.2241,-3.2182,-3.2182,-3.2182,-3.2241,-3.2286,-3.2286,-3.2286,-3.2286,-3.2286,-3.23,-3.2182,-3.2182,-3.2182,-3.2036,-3.189,-3.1669,-3.1447,-3.1286,-3.1136,-3.0986,-3.0986,-3.0986,-3.0986,-3.0986,-3.0986,-3.0986,-3.0911,-3.0911,-3.0784,-3.0351,-3.0224,-3.0085,-2.9629,-2.929,-2.8737,-2.7606,-2.7213,-2.6651,-2.5539,-2.517,-2.4838,-2.4418,-2.42,-2.397,-2.374,-2.3372,-2.3224,-2.3224,-2.3224,-2.3372,0.0,-2.3397,-2.3205,0.0,-2.3446,0.0,0.0,0.0,0.0,-2.4979,-2.5973,-2.6967,-2.7728,-2.8286,-2.9037,-3.005,-3.0139,-3.0139,-2.9896,-2.9419,-2.9106,-2.8961,-2.8645,-2.8407,-2.8099,-2.7926,-2.7603,-2.7278,-2.7196,-2.7044,-2.6809,-2.6644,-2.6561,-2.6396,-3.0677,-3.1288,-3.1823,-3.1836,-3.1523,-3.1287,-3.1232,-3.1232,-3.1246,-3.1287,-3.1775,-3.22,-3.2241,-3.2255,-3.2372,-3.2704,0.0,0.0,-3.3211,-3.3252,-3.3363,-3.3797,-3.3747,-3.3628,-3.3266,-3.3252,-3.3038,-3.2704,-3.2489,-3.2417,-3.2417,-3.2241,-3.2182,-3.2182,-3.2182,-3.2182,-3.2182,-3.2182,-3.2182,-3.2182,-3.2182,-3.2182,-3.2182,-3.2182,-3.2109,-3.189,-3.1683,-3.1447,-3.1272,-3.1061,-3.0986,-3.0986,-3.0986,-3.0986,-3.0986,-3.0986,-3.0986,-3.0911,-3.0773,-3.0672,-3.0428,-2.9664,-2.9423,-2.9183,-2.8296,-2.795,-2.7569,-2.682,-2.642,-2.5961,-2.5337,-2.4838,-2.4418,-2.42,-2.397,-2.3751,-2.3298,-2.3075,-2.2927,-2.2703,0.0,0.0,-2.3001,-2.3298,-2.3519,0.0,-2.3762,0.0,0.0,0.0,-2.524,-2.5205,-2.5931,-2.6753,-2.7639,-2.7895,-2.846,-2.9341,-2.9341,-2.9197,-2.9052,-2.8803,-2.8486,-2.8179,-2.8099,-2.7846,-2.7441,-2.7267,-2.7033,-2.6891,-2.6644,-2.6561,-2.6561,-2.6313,-2.6157,-2.6063,0.0,0.0,-3.129,-3.1433,-3.1382,-3.1137,-3.069,-3.0622,-3.0785,-3.1232,-3.155,-3.1881,-3.2304,-3.2503,-3.2632,-3.2704,-3.2444,-3.2368,-3.2432,-3.2445,-3.2513,-3.2589,-3.2589,-3.2595,-3.2622,-3.2622,-3.2626,-3.2704,-3.2632,-3.2561,-3.2417,-3.2241,-3.2182,-3.2182,-3.2182,-3.2182,-3.2182,-3.2182,-3.2182,-3.2182,-3.2182,-3.2182,-3.2182,-3.2182,-3.2109,-3.189,-3.1683,-3.1447,-3.1272,-3.1061,-3.0986,-3.0986,-3.0986,-3.0986,-3.0986,-3.0986,-3.0911,-3.0773,-3.0698,-3.0224,-2.9702,-2.9325,-2.8747,-2.8174,-2.7889,-2.757,-2.7127,-2.6457,-2.6056,-2.5682,-2.4872,-2.449,-2.42,-2.397,-2.3666,-2.3372,-2.3075,-2.2927,-2.2703,0.0,-2.2478,-2.2628,-2.2777,-2.2703,-2.2777,0.0,0.0,-2.3337,-2.3348,-2.45,-2.5296,-2.5532,-2.6236,-2.6808,-2.7262,-2.7877,-2.8366,-2.8736,-2.8566,-2.8486,-2.8407,-2.7995,-2.7765,-2.7684,-2.7371,-2.7126,-2.7056,-2.6798,-2.6715,-2.6644,-2.6644,-2.6479,-2.6313,-2.6229,-2.599,-2.5728,-3.0131,-3.0564,-3.0753,-3.0893,-3.0649,-3.0419,-3.0093,-3.0052,-3.0228,-3.0624,-3.1035,-3.1392,-3.1694,-3.2053,-3.2289,-3.2289,-3.2338,-3.2444,-3.2444,-3.2444,-3.2444,-3.2444,-3.2444,-3.2503,-3.2704,-3.2704,-3.2775,-3.3002,-3.2846,-3.2775,-3.2704,-3.2431,-3.23,-3.23,-3.2241,-3.2182,-3.2182,-3.2182,-3.2182,-3.2182,-3.2182,-3.2182,-3.2182,-3.2182,-3.2036,-3.1743,-3.1609,-3.1447,-3.1123,-3.1061,-3.0986,-3.0986,-3.0986,-3.0729,-3.0433,-3.0433,-3.0358,-3.0222,-3.0059,-2.95,-2.8855,-2.8356,-2.7601,-2.6986,-2.683,-2.6542,-2.6239,-2.5745,-2.5407,-2.5034,-2.462,-2.4273,-2.397,-2.3824,-2.3457,-2.3152,-2.3156,-2.2798,-2.2569,-2.2569,-2.2492,-2.2408,-2.2424,-2.2327,-2.2423,-2.2863,-2.3012,0.0,-2.3753,-2.4598,-2.5191,-2.5441,-2.6211,-2.6806,-2.6978,-2.7475,-2.7765,-2.7926,-2.7765,-2.7684,-2.7615,-2.7371,-2.7208,-2.7126,-2.688,-2.6727,-2.6561,-2.6479,-2.6396,-2.6313,-2.6146,-2.6063,-2.5895,-2.5801,-2.5633,-2.538,-2.9522,-2.9903,-3.0269,-3.0269,-2.9835,-2.9508,-2.9558,-2.9611,-2.9704,-2.9997,-3.0439,-3.0865,-3.0962,-3.1432,-3.1737,-3.1737,-3.2207,-3.2581,-3.269,-3.2704,-3.2704,-3.2704,-3.2704,-3.2775,-3.2988,-3.3058,-3.3143,-3.3326,-3.3072,-3.2988,-3.2988,-3.2632,-3.2417,-3.2417,-3.23,-3.2241,-3.2182,-3.2182,-3.2182,-3.2182,-3.2182,-3.2182,-3.2182,-3.2182,-3.1963,-3.1609,-3.1609,-3.1373,-3.0973,-3.0882,-3.0856,-3.0843,-3.0764,-3.0225,-2.9675,-2.9615,-2.9551,-2.9426,-2.9134,-2.868,-2.805,-2.7139,-2.6524,-2.6062,-2.5676,-2.5465,-2.5241,-2.5052,-2.4778,-2.4502,-2.449,-2.4127,-2.3824,-2.3604,-2.329,-2.3102,-2.336,0.0,-2.2662,-2.283,-2.26,-2.2325,-2.2095,-2.1991,-2.2224,-2.284,-2.2995,-2.3462,-2.4333,-2.4619,-2.4946,-2.5131,-2.6008,-2.6644,-2.6809,-2.7033,-2.7103,-2.7103,-2.7103,-2.6951,-2.6798,-2.6727,-2.6644,-2.6479,-2.6479,-2.6396,-2.6146,-2.6146,-2.599,-2.5812,-2.5644,-2.5559,-2.5475,-2.5285,-2.52,-2.5115,-2.9572,-2.9617,-2.9618,-2.9618,-2.9683,-2.9504,-2.8998,-2.9045,-2.9366,-2.9941,-3.0211,-3.0606,-3.1082,-3.1369,-3.1559,-3.1559,-3.1643,-3.1983,-3.2635,-3.2704,-3.2704,-3.2704,-3.2704,-3.2775,-3.2988,-3.3157,-3.3241,-3.3326,-3.3072,-3.2988,-3.2988,-3.2775,-3.2561,-3.2417,-3.2345,-3.23,-3.2182,-3.2182,-3.2182,-3.2182,-3.2182,-3.2182,-3.2182,-3.2182,-3.1963,-3.1609,-3.1609,-3.1373,-3.0908,-3.0424,-3.0268,-3.0176,-2.9693,-2.9399,-2.9093,-2.889,-2.84,-2.8048,-2.8448,-2.8037,-2.7281,-2.6532,-2.6111,-2.591,-2.5676,-2.5324,-2.5052,-2.4861,-2.4634,-2.4418,-2.4273,-2.3897,-2.3677,-2.3604,-2.3426,-2.3262,-2.3171,0.0,-2.3311,-2.3161,-2.258,-2.2234,-2.2162,-2.1659,-2.1531,-2.1977,-2.2352,-2.2879,-2.3586,-2.4206,-2.4669,-2.4925,-2.56,-2.6229,-2.6644,-2.6644,-2.6715,-2.6715,-2.6445,-2.6362,-2.6279,-2.6135,-2.6063,-2.5979,-2.5979,-2.599,-2.5895,-2.5728,-2.5644,-2.5644,-2.538,-2.5285,-2.5285,-2.52,-2.5115,-2.4946,-2.9329,-2.932,-2.9255,-2.9255,-2.932,-2.9288,-2.914,-2.9226,-2.9386,-2.9742,-2.9847,-3.0023,-3.0317,-3.0704,-3.0965,-3.0965,-3.1288,-3.1657,-3.1999,-3.2027,-3.2027,-3.2027,-3.2027,-3.2109,-3.2178,-3.226,-3.2328,-3.2328,-3.2246,-3.2178,-3.2178,-3.1972,-3.182,-3.1764,-3.1871,-3.1867,-3.1837,-3.2105,-3.2182,-3.2182,-3.2182,-3.1992,-3.1707,-3.1707,-3.1276,-3.065,-3.065,-3.0434,-3.0019,-2.9758,-2.968,-2.9627,-2.9366,-2.8911,-2.837,-2.8312,-2.7908,-2.741,-2.7359,-2.7042,-2.6582,-2.6124,-2.591,-2.5688,-2.5465,-2.5194,-2.4921,-2.479,-2.4562,-2.4273,-2.4043,-2.3824,-2.3593,-2.3457,-2.3329,0.0,-2.3456,-2.3499,-2.3546,-2.3557,-2.2818,-2.2291,-2.2216,-2.1477,-2.133,-2.208,-2.2249,-2.2742,-2.3584,-2.3988,-2.4282,-2.47,-2.5211,-2.5633,-2.5874,-2.5874,-2.5874,-2.5874,-2.5695,-2.5695,-2.5695,-2.5538,-2.5549,-2.5549,-2.5549,-2.5549,-2.5549,-2.538,-2.538,-2.538,-2.5115,-2.5031,-2.5031,-2.4871,-2.4786,-2.47,-2.9198,-2.9099,-2.9099,-2.9099,-2.9162,-2.9226,-2.9352,-2.9477,-2.954,-2.9651,-2.9665,-2.9741,-2.9741,-3.0087,-3.0369,-3.0369,-3.0769,-3.105,-3.105,-3.105,-3.119,-3.1485,-3.1485,-3.1485,-3.1485,-3.1485,-3.1485,-3.1485,-3.1485,-3.1485,-3.1485,-3.1352,-3.1219,-3.1246,-3.1337,-3.1391,-3.1349,-3.17,-3.1833,-3.1762,-3.1762,-3.149,-3.1083,-3.1083,-3.0575,-2.9824,-2.9824,-2.9544,-2.9261,-2.9118,-2.9065,-2.9052,-2.8922,-2.8291,-2.7665,-2.7652,-2.7373,-2.7005,-2.6647,-2.6339,-2.6131,-2.598,-2.5758,-2.5535,-2.5382,-2.5052,-2.479,-2.479,-2.449,-2.4116,-2.397,-2.3751,-2.3519,-2.3298,0.0,-2.3275,-2.3753,-2.3649,-2.3617,-2.3794,-2.3052,-2.2433,-2.2068,-2.131,-2.1223,-2.2149,-2.2046,-2.2383,-2.3413,-2.3553,-2.3826,-2.4282,-2.4871,-2.52,-2.52,-2.52,-2.52,-2.52,-2.5115,-2.5115,-2.5115,-2.5115,-2.5115,-2.5115,-2.52,-2.52,-2.52,-2.5115,-2.5115,-2.5115,-2.4861,-2.4786,-2.4775,-2.4501,-2.4385,-2.4374,-2.9303,-2.9226,-2.9099,-2.9099,-2.9226,-2.9352,-2.9415,-2.9588,-2.9747,-2.9808,-2.9974,-3.005,-3.005,-2.9941,-2.9817,-2.9817,-2.9763,-2.9743,-2.9743,-2.9743,-3.0263,-3.1443,-3.1485,-3.1485,-3.1485,-3.1485,-3.1485,-3.1485,-3.1485,-3.1485,-3.1485,-3.1485,-3.1352,-3.1219,-3.1193,-3.1005,-3.0706,-3.0679,-3.0651,-3.054,-3.054,-3.0513,-3.0473,-3.0473,-3.0156,-2.9824,-2.9824,-2.9544,-2.9196,-2.8634,-2.8451,-2.836,-2.7621,-2.7237,-2.7007,-2.6858,-2.6653,-2.6584,-2.6533,-2.6339,-2.6131,-2.598,-2.5758,-2.5535,-2.5382,-2.5052,-2.479,-2.479,-2.449,-2.4116,-2.397,-2.3751,-2.3519,-2.3298,0.0,0.0,-2.3753,-2.3824,-2.3794,-2.3523,-2.298,-2.2362,-2.173,-2.1056,-2.084,-2.125,-2.1279,-2.1565,-2.2274,-2.269,-2.3258,-2.3831,-2.4775,-2.52,-2.52,-2.52,-2.52,-2.52,-2.5031,-2.4946,-2.4946,-2.4946,-2.4946,-2.4946,-2.5115,-2.52,-2.52,-2.5031,-2.4946,-2.4861,-2.4615,-2.454,-2.4488,-2.4084,-2.3929,-2.3867,-2.8989,-2.8979,-2.8968,-2.9345,-2.9477,-2.954,-2.9651,-2.9747,-2.9822,-2.9974,-3.0036,-3.0111,-3.0111,-3.0036,-2.9974,-2.9974,-2.9837,-2.9699,-2.9699,-2.9665,-2.9827,-3.0305,-3.0319,-3.0319,-3.0319,-3.0319,-3.0319,-3.0319,-3.0319,-3.0319,-3.0319,-3.0319,-3.0255,-3.0205,-3.0452,-3.0422,-3.0237,-3.0473,-3.0515,-3.0405,-3.0405,-3.0174,-2.9835,-2.97,-2.9268,-2.8745,-2.8584,-2.8394,-2.8164,-2.7928,-2.785,-2.7756,-2.74,-2.7146,-2.6943,-2.6658,-2.6521,-2.6533,-2.6533,-2.6258,-2.5992,-2.591,-2.5676,-2.5382,-2.5182,-2.4992,-2.479,-2.4646,-2.4273,-2.397,-2.3751,-2.3519,-2.3372,-2.315,0.0,-2.3179,-2.336,-2.3395,-2.3371,-2.3114,-2.2565,-2.206,-2.162,-2.0968,-2.0752,-2.1201,-2.123,-2.1426,-2.1938,-2.2547,-2.3023,-2.3268,-2.3947,-2.4348,-2.4348,-2.4529,-2.4615,-2.4615,-2.4615,-2.4615,-2.4615,-2.4615,-2.4615,-2.4605,-2.4493,-2.4367,-2.4357,-2.3981,-2.3856,-2.3856,-2.3619,-2.3619,-2.3681,-2.3351,-2.3371,-2.3422,-2.8578,-2.8573,-2.8595,-2.9078,-2.9148,-2.9148,-2.9302,-2.9348,-2.9423,-2.9571,-2.9645,-2.9645,-2.9645,-2.9817,-2.9872,-2.9872,-2.9907,-2.9884,-2.9808,-2.9651,-2.9602,-2.9602,-2.9602,-2.9602,-2.9602,-2.9602,-2.9602,-2.9602,-2.9602,-2.9602,-2.9602,-2.9602,-2.9602,-2.9617,-2.9925,-2.9914,-2.9748,-3.0031,-3.0023,-2.9835,-2.9835,-2.9591,-2.9197,-2.8985,-2.8558,-2.8079,-2.7855,-2.7656,-2.7523,-2.7523,-2.7469,-2.7403,-2.7268,-2.7011,-2.6807,-2.6602,-2.6533,-2.6465,-2.6396,-2.6188,-2.591,-2.591,-2.5606,-2.5241,-2.5111,-2.4921,-2.4718,-2.4562,-2.4189,-2.3824,-2.3677,-2.3446,-2.3224,-2.2927,-2.2907,-2.2868,-2.2939,-2.2929,-2.2806,-2.2484,-2.205,-2.165,-2.1332,-2.0889,-2.0693,-2.0996,-2.1025,-2.1211,-2.166,-2.2129,-2.2498,-2.2774,-2.3137,-2.3441,-2.357,-2.3937,-2.411,-2.4206,-2.4378,-2.4454,-2.454,-2.4395,-2.4248,-2.4132,-2.3773,-2.3577,-2.3474,-2.3155,-2.3032,-2.3032,-2.2869,-2.2869,-2.3012,-2.2706,-2.2655,-2.2715,-2.8068,-2.8096,-2.8053,-2.8211,-2.8111,-2.8067,-2.8211,-2.8326,-2.8383,-2.8383,-2.8553,-2.8681,-2.8681,-2.9117,-2.9376,-2.9376,-2.9846,-3.0021,-2.9794,-2.9651,-2.9602,-2.9602,-2.9602,-2.9602,-2.9602,-2.9602,-2.9602,-2.9602,-2.9602,-2.9602,-2.9602,-2.9602,-2.9602,-2.9602,-2.9602,-2.9415,-2.9099,-2.9099,-2.8908,-2.8587,-2.8587,-2.8587,-2.8587,-2.8365,-2.8183,-2.8079,-2.7855,-2.7656,-2.7523,-2.7523,-2.7403,-2.7268,-2.7079,-2.6739,-2.6533,-2.6533,-2.6533,-2.6465,-2.627,-2.6062,-2.591,-2.591,-2.5606,-2.5241,-2.5111,-2.4921,-2.4718,-2.4574,-2.42,-2.3824,-2.3604,-2.3446,-2.315,-2.2777,-2.2553,-2.2421,-2.2507,-2.2343,-2.2017,-2.16,-2.16,-2.1352,-2.0683,-2.0566,-2.0566,-2.0566,-2.0566,-2.0762,-2.1201,-2.123,-2.1621,-2.248,-2.251,-2.2705,-2.3125,-2.357,-2.3927,-2.4196,-2.4196,-2.4282,-2.4433,-2.4074,-2.3784,-2.3492,-2.3053,-2.2788,-2.2625,-2.2625,-2.2625,-2.2625,-2.2625,-2.2625,-2.2564,-2.204,-2.1869,-2.1809,-2.7607,-2.761,-2.7641,-2.8126,-2.8154,-2.8211,-2.8326,-2.8383,-2.844,-2.861,-2.8681,-2.8681,-2.8681,-2.884,-2.89,-2.89,-2.8901,-2.8783,-2.8547,-2.8912,-2.9092,-2.8956,-2.9378,-2.9602,-2.9602,-2.9602,-2.9602,-2.9602,-2.9602,-2.9602,-2.9602,-2.9602,-2.9602,-2.9602,-2.9477,-2.9352,-2.9099,-2.8972,-2.878,-2.8587,-2.8587,-2.8522,-2.8365,-2.8197,-2.8066,-2.7855,-2.7656,-2.7523,-2.7456,-2.7403,-2.7335,-2.7268,-2.693,-2.6658,-2.6465,-2.6339,-2.627,-2.627,-2.605,-2.5828,-2.5688,-2.5688,-2.5394,-2.5111,-2.4921,-2.4718,-2.4502,-2.4116,-2.3897,-2.3604,-2.3457,-2.3075,-2.2852,-2.2703,-2.2402,-2.2153,-2.1994,-2.186,-2.1551,-2.1173,-2.1095,-2.0957,-2.0654,-2.0566,-2.0566,-2.0566,-2.0566,-2.0625,-2.0762,-2.1064,-2.1348,-2.1611,-2.1914,-2.2129,-2.2256,-2.311,-2.3527,-2.3313,-2.3388,-2.3406,-2.3185,-2.3052,-2.2909,-2.2879,-2.2352,-2.216,-2.205,-2.1738,-2.1607,-2.1607,-2.145,-2.145,-2.1587,-2.1301,-2.1261,-2.1386,-2.7234,-2.7115,-2.7121,-2.7633,-2.7691,-2.7691,-2.7911,-2.7911,-2.7966,-2.809,-2.809,-2.809,-2.809,-2.8254,-2.84,-2.84,-2.8409,-2.8326,-2.8168,-2.8422,-2.8516,-2.8457,-2.875,-2.9111,-2.9602,-2.9602,-2.949,-2.9237,-2.9237,-2.9125,-2.8886,-2.8886,-2.8886,-2.8886,-2.9002,-2.8927,-2.8754,-2.8812,-2.8716,-2.8587,-2.8587,-2.8509,-2.83,-2.8131,-2.8,-2.7776,-2.759,-2.7523,-2.7469,-2.7335,-2.7201,-2.6998,-2.6726,-2.6533,-2.6339,-2.627,-2.6131,-2.6062,-2.5828,-2.5688,-2.5535,-2.5465,-2.5253,-2.5052,-2.4718,-2.4502,-2.4273,-2.397,-2.3677,-2.3446,-2.3224,-2.2927,-2.2628,-2.2478,-2.2176,-2.1873,-2.1578,-2.1359,-2.1128,-2.0819,-2.0819,-2.0731,-2.0644,-2.0566,-2.0566,-2.0566,-2.0566,-2.0566,-2.0566,-2.082,-2.1055,-2.123,-2.1494,-2.1709,-2.1885,-2.2562,-2.2784,-2.2601,-2.2768,-2.2712,-2.2625,-2.2453,-2.2281,-2.216,-2.1729,-2.145,-2.1342,-2.1073,-2.0964,-2.0964,-2.0819,-2.0896,-2.0964,-2.0819,-2.0896,-2.0964,-2.6989,-2.675,-2.6683,-2.6937,-2.6951,-2.6937,-2.7181,-2.7181,-2.7181,-2.7181,-2.7181,-2.7181,-2.7181,-2.7592,-2.7822,-2.7822,-2.8103,-2.8267,-2.821,-2.8054,-2.7924,-2.7924,-2.7865,-2.8296,-2.942,-2.9448,-2.9167,-2.8605,-2.8605,-2.8324,-2.7776,-2.7776,-2.7776,-2.779,-2.8144,-2.8213,-2.816,-2.8461,-2.8566,-2.8438,-2.8438,-2.8295,-2.8139,-2.8038,-2.7855,-2.771,-2.7577,-2.7523,-2.7523,-2.7335,-2.7066,-2.6658,-2.6589,-2.6358,-2.6126,-2.6126,-2.5951,-2.5693,-2.5472,-2.5402,-2.532,-2.498,-2.4909,-2.485,-2.448,-2.4241,-2.399,-2.3772,-2.3396,-2.3103,-2.287,-2.2648,-2.2446,-2.2113,-2.1811,-2.1603,-2.1272,-2.1061,-2.0819,-2.0644,-2.0566,-2.0566,-2.0566,-2.0566,-2.0566,-2.0566,-2.0566,-2.0566,-2.0566,-2.0566,-2.0752,-2.1162,-2.1172,-2.1367,-2.1768,-2.1768,-2.1869,-2.2145,-2.2145,-2.2217,-2.2412,-2.2,-2.164,-2.1531,-2.1065,-2.0741,-2.0566,-2.0566,-2.0566,-2.0566,-2.0566,-2.0566,-2.0566,-2.0566,-2.0566,-2.0566,-2.7078,-2.713,-2.7063,-2.713,-2.713,-2.713,-2.7181,-2.7181,-2.7181,-2.7181,-2.7181,-2.7181,-2.7181,-2.7299,-2.7336,-2.7336,-2.7325,-2.7186,-2.6928,-2.7363,-2.7483,-2.7244,-2.7682,-2.802,-2.8169,-2.8169,-2.8113,-2.7987,-2.7987,-2.7902,-2.7776,-2.7776,-2.7776,-2.7776,-2.7607,-2.7543,-2.7497,-2.7332,-2.7203,-2.7203,-2.708,-2.6881,-2.6783,-2.7072,-2.7116,-2.7169,-2.7552,-2.7723,-2.7723,-2.7403,-2.7066,-2.6714,-2.6658,-2.6151,-2.553,-2.5407,-2.4909,-2.4366,-2.4232,-2.4109,-2.3895,-2.368,-2.3555,-2.3524,-2.3652,-2.3223,-2.2729,-2.2391,-2.2251,-2.211,-2.1756,-2.1471,-2.1445,-2.1502,-2.1269,-2.1094,-2.1155,-2.1061,-2.0819,-2.0644,-2.0566,-2.0566,-2.0566,-2.0566,-2.0566,-2.0566,-2.0566,-2.0566,-2.0566,-2.0566,-2.0605,-2.0703,-2.0713,-2.0762,-2.085,-2.085,-2.1025,-2.1458,-2.1458,-2.1271,-2.1007,-2.0909,-2.0869,-2.0781,-2.0683,-2.0644,-2.0566,-2.0566,-2.0566,-2.0566,-2.0566,-2.0566,-2.0566,-2.0566,-2.0566,-2.0566,-2.6278,-2.6603,-2.6825,-2.6911,-2.7229,-2.7488,-2.759,-2.759,-2.759,-2.759,-2.7539,-2.7488,-2.7488,-2.7386,-2.7284,-2.7233,-2.7144,-2.6974,-2.675,-2.7031,-2.7043,-2.6743,-2.6974,-2.7046,-2.699,-2.6933,-2.7017,-2.7312,-2.7312,-2.7172,-2.6877,-2.6877,-2.6877,-2.6891,-2.6854,-2.6876,-2.6889,-2.6821,-2.6823,-2.6762,-2.6641,-2.6505,-2.6334,-2.6453,-2.6509,-2.6485,-2.6852,-2.6893,-2.6842,-2.6648,-2.6257,-2.5861,-2.5861,-2.5394,-2.4839,-2.4785,-2.431,-2.3893,-2.3839,-2.3628,-2.3416,-2.3282,-2.2905,-2.2657,-2.2891,-2.2582,-2.2194,-2.194,-2.1801,-2.1662,-2.1242,-2.1101,-2.0963,-2.0969,-2.0575,-2.0454,-2.0823,-2.0579,-2.0505,-2.0615,-2.0566,-2.0566,-2.0566,-2.0566,-2.0566,-2.0566,-2.0566,-2.0566,-2.0566,-2.0566,-2.0566,-2.0566,-2.0566,-2.0566,-2.0566,-2.0566,-2.0684,-2.076,-2.0839,-2.0791,-2.0566,-2.0489,-2.0498,-2.0411,-2.0333,-2.0255,-2.0255,-2.0411,-2.0498,-2.0469,-2.0342,-2.0254,-2.0225,-2.0029,-1.9951,-1.9961,-2.5491,-2.5968,-2.6355,-2.6486,-2.7033,-2.7508,-2.7622,-2.7671,-2.7671,-2.7671,-2.7557,-2.7554,-2.761,-2.753,-2.7386,-2.7233,-2.7233,-2.7196,-2.7055,-2.6884,-2.6765,-2.6578,-2.6312,-2.6165,-2.6111,-2.6002,-2.6201,-2.6652,-2.6652,-2.6399,-2.5893,-2.5893,-2.5893,-2.5921,-2.6175,-2.6297,-2.6268,-2.6485,-2.6584,-2.6511,-2.6391,-2.6196,-2.6014,-2.5999,-2.5977,-2.599,-2.6021,-2.5998,-2.5887,-2.5824,-2.5497,-2.5052,-2.5065,-2.468,-2.423,-2.4218,-2.3896,-2.3562,-2.3562,-2.3365,-2.3155,-2.3022,-2.2507,-2.2035,-2.2127,-2.2004,-2.1811,-2.1616,-2.1479,-2.1203,-2.0855,-2.0786,-2.0667,-2.0377,-1.9981,-1.9928,-2.037,-2.0039,-1.9971,-2.04,-2.0518,-2.0566,-2.0566,-2.0566,-2.0566,-2.0566,-2.0566,-2.0566,-2.0566,-2.0566,-2.0566,-2.0566,-2.0566,-2.0566,-2.0566,-2.0566,-2.0498,-2.0264,-2.0411,-2.0489,-2.0489,-2.0333,-2.0264,-2.0186,-2.002,-1.9863,-1.9932,-2.011,-2.0159,-2.011,-1.9829,-1.973,-1.9691,-1.9341,-1.9214,-1.9214,-2.5803,-2.6,-2.606,-2.606,-2.6182,-2.6243,-2.6289,-2.6289,-2.6289,-2.6289,-2.6243,-2.6408,-2.6871,-2.7345,-2.7539,-2.7386,-2.735,-2.7299,-2.7181,-2.7041,-2.6899,-2.6779,-2.6578,-2.6365,-2.6286,-2.6286,-2.6153,-2.602,-2.602,-2.5978,-2.5893,-2.5893,-2.5893,-2.5893,-2.5813,-2.58,-2.5813,-2.5702,-2.556,-2.542,-2.5249,-2.5135,-2.5016,-2.5362,-2.5608,-2.5781,-2.6304,-2.6356,-2.6246,-2.5998,-2.5735,-2.5421,-2.5294,-2.4735,-2.3979,-2.384,-2.3193,-2.2577,-2.2577,-2.2265,-2.191,-2.191,-2.1649,-2.1284,-2.0978,-2.0935,-2.0794,-2.0413,-2.0336,-2.0204,-1.9863,-1.9807,-1.98,-1.9858,-1.9583,-1.9475,-1.9917,-1.9594,-1.9531,-1.9951,-2.0332,-2.0566,-2.0566,-2.0566,-2.0566,-2.0566,-2.0566,-2.0566,-2.0566,-2.0566,-2.0566,-2.0566,-2.0566,-2.0566,-2.0566,-2.042,-2.0342,-2.0264,-2.0098,-2.002,-2.002,-1.9942,-1.9942,-1.9942,-1.9942,-1.9863,-1.9913,-1.9563,-1.9421,-1.9373,-1.9012,-1.8841,-1.8915,-1.9024,-1.9004,-1.9004,-2.4817,-2.5226,-2.5544,-2.5544,-2.5894,-2.6199,-2.6199,-2.6199,-2.6199,-2.6199,-2.6153,-2.6214,-2.6457,-2.6889,-2.7135,-2.7051,-2.733,-2.7437,-2.7335,-2.7248,-2.7144,-2.7026,-2.6817,-2.6659,-2.6568,-2.6394,-2.6233,-2.6111,-2.6111,-2.6111,-2.6002,-2.6002,-2.5948,-2.5893,-2.5784,-2.5729,-2.5674,-2.5536,-2.5439,-2.5369,-2.5131,-2.4948,-2.4919,-2.4958,-2.5052,-2.5208,-2.5464,-2.544,-2.5322,-2.5144,-2.4784,-2.442,-2.4359,-2.39,-2.3404,-2.3269,-2.285,-2.242,-2.242,-2.2061,-2.1698,-2.1698,-2.1371,-2.0967,-2.0733,-2.0604,-2.0475,-2.0151,-2.0085,-2.0009,-1.9671,-1.9605,-1.9547,-1.9412,-1.9182,-1.9071,-1.9455,-1.9282,-1.9226,-1.9512,-1.9736,-1.9853,-1.9853,-1.9853,-1.9853,-1.9853,-1.9853,-1.9853,-1.9853,-1.9853,-1.9853,-1.9853,-1.9853,-1.9853,-1.9853,-1.9778,-1.9628,-1.9392,-1.9317,-1.9487,-1.9863,-1.9794,-1.9715,-1.9696,-1.9394,-1.9204,-1.9177,-1.8929,-1.8826,-1.8789,-1.8512,-1.8209,-1.801,-1.8161,-1.8161,-1.8161]},{"header":{"parameterUnit":"m.s-1","parameterCategory":1,"la1":30.6,"la2":28.766,"lo1":-90.7593,"lo2":-88.6598,"dy":0.0162,"dx":0.0183,"nx":116,"ny":114,"refTime":"2024-06-24T12:00:00:Z","depth":0,"parameterNumber":3,"parameterNumberName":"V-component_of_WINDS"},"data":[0.0,0.0,0.0,0.0,0.0,0.0,0.0,0.0,0.0,0.0,0.0,0.0,0.0,0.0,0.0,0.0,0.0,0.0,0.0,0.0,0.0,0.0,0.0,0.0,0.0,0.0,0.0,0.0,0.0,0.0,0.0,0.0,0.0,0.0,0.0,0.0,0.0,0.0,0.0,0.0,0.0,0.0,0.0,0.0,0.0,0.0,0.0,0.0,0.0,0.0,0.0,0.0,0.0,0.0,0.0,0.0,0.0,0.0,0.0,0.0,0.0,0.0,0.0,0.0,0.0,0.0,0.0,0.0,0.0,0.0,0.0,0.0,0.0,0.0,0.0,0.0,0.0,0.0,0.0,0.0,0.0,0.0,0.0,0.0,0.0,0.0,0.0,0.0,0.0,0.0,0.0,0.0,0.0,0.0,0.0,0.0,0.0,0.0,0.0,0.0,0.0,0.0,0.0,0.0,0.0,0.0,0.0,0.0,0.0,0.0,0.0,0.0,0.0,0.0,0.0,0.0,0.0,0.0,0.0,0.0,0.0,0.0,0.0,0.0,0.0,0.0,0.0,0.0,0.0,0.0,0.0,0.0,0.0,0.0,0.0,0.0,0.0,0.0,0.0,0.0,0.0,0.0,0.0,0.0,0.0,0.0,0.0,0.0,0.0,0.0,0.0,0.0,0.0,0.0,0.0,0.0,0.0,0.0,0.0,0.0,0.0,0.0,0.0,0.0,0.0,0.0,0.0,0.0,0.0,0.0,0.0,0.0,0.0,0.0,0.0,0.0,0.0,0.0,0.0,0.0,0.0,0.0,0.0,0.0,0.0,0.0,0.0,0.0,0.0,0.0,0.0,0.0,0.0,0.0,0.0,0.0,0.0,0.0,0.0,0.0,0.0,0.0,0.0,0.0,0.0,0.0,0.0,0.0,0.0,0.0,0.0,0.0,0.0,0.0,0.0,0.0,0.0,0.0,0.0,0.0,0.0,0.0,0.0,0.0,0.0,0.0,0.0,0.0,0.0,0.0,0.0,0.0,0.0,0.0,0.0,0.0,0.0,0.0,0.0,0.0,0.0,0.0,0.0,0.0,0.0,0.0,0.0,0.0,0.0,0.0,0.0,0.0,0.0,0.0,0.0,0.0,0.0,0.0,0.0,0.0,0.0,0.0,0.0,0.0,0.0,0.0,0.0,0.0,0.0,0.0,0.0,0.0,0.0,0.0,0.0,0.0,0.0,0.0,0.0,0.0,0.0,0.0,0.0,0.0,0.0,0.0,0.0,0.0,0.0,0.0,0.0,0.0,0.0,0.0,0.0,0.0,0.0,0.0,0.0,0.0,0.0,0.0,0.0,0.0,0.0,0.0,0.0,0.0,0.0,0.0,0.0,0.0,0.0,0.0,0.0,0.0,0.0,0.0,0.0,0.0,0.0,0.0,0.0,0.0,0.0,0.0,0.0,0.0,0.0,0.0,0.0,0.0,0.0,0.0,0.0,0.0,0.0,0.0,0.0,0.0,0.0,0.0,0.0,0.0,0.0,0.0,0.0,0.0,0.0,0.0,0.0,0.0,0.0,0.0,0.0,0.0,0.0,0.0,0.0,0.0,0.0,0.0,0.0,0.0,0.0,0.0,0.0,0.0,0.0,0.0,0.0,0.0,0.0,0.0,0.0,0.0,0.0,0.0,0.0,0.0,0.0,0.0,0.0,0.0,0.0,0.0,0.0,0.0,0.0,0.0,0.0,0.0,0.0,0.0,0.0,0.0,0.0,0.0,0.0,0.0,0.0,0.0,0.0,0.0,0.0,0.0,0.0,0.0,0.0,0.0,0.0,0.0,0.0,0.0,0.0,0.0,0.0,0.0,0.0,0.0,0.0,0.0,0.0,0.0,0.0,0.0,0.0,0.0,0.0,0.0,0.0,0.0,0.0,0.0,0.0,0.0,0.0,0.0,0.0,0.0,0.0,0.0,0.0,0.0,0.0,0.0,0.0,0.0,0.0,0.0,0.0,0.0,0.0,0.0,0.0,0.0,0.0,0.0,0.0,0.0,0.0,0.0,0.0,0.0,0.0,0.0,0.0,0.0,0.0,0.0,0.0,0.0,0.0,0.0,0.0,0.0,0.0,0.0,0.0,0.0,0.0,0.0,0.0,0.0,0.0,0.0,0.0,0.0,0.0,0.0,0.0,0.0,0.0,0.0,0.0,0.0,0.0,0.0,0.0,0.0,0.0,0.0,0.0,0.0,0.0,0.0,0.0,0.0,0.0,0.0,0.0,0.0,0.0,0.0,0.0,0.0,0.0,0.0,0.0,0.0,0.0,0.0,0.0,0.0,0.0,0.0,0.0,0.0,0.0,0.0,0.0,0.0,0.0,0.0,0.0,0.0,0.0,0.0,0.0,0.0,0.0,0.0,0.0,0.0,0.0,0.0,0.0,0.0,0.0,0.0,0.0,0.0,0.0,0.0,0.0,0.0,0.0,0.0,0.0,0.0,0.0,0.0,0.0,0.0,0.0,0.0,0.0,0.0,0.0,0.0,0.0,0.0,0.0,0.0,0.0,0.0,0.0,0.0,0.0,0.0,0.0,0.0,0.0,0.0,0.0,0.0,0.0,0.0,0.0,0.0,0.0,0.0,0.0,0.0,0.0,0.0,0.0,0.0,0.0,0.0,0.0,0.0,0.0,0.0,0.0,0.0,0.0,0.0,0.0,0.0,0.0,0.0,0.0,0.0,0.0,0.0,0.0,0.0,0.0,0.0,0.0,0.0,0.0,0.0,0.0,0.0,0.0,0.0,0.0,0.0,0.0,0.0,0.0,0.0,0.0,0.0,0.0,0.0,0.0,0.0,0.0,0.0,0.0,0.0,0.0,0.0,0.0,0.0,0.0,0.0,0.0,0.0,0.0,0.0,0.0,0.0,0.0,0.0,0.0,0.0,0.0,0.0,0.0,0.0,0.0,0.0,0.0,0.0,0.0,0.0,0.0,0.0,0.0,0.0,0.0,0.0,0.0,0.0,0.0,0.0,0.0,0.0,0.0,0.0,0.0,0.0,0.0,0.0,0.0,0.0,0.0,0.0,0.0,0.0,0.0,0.0,0.0,0.0,0.0,0.0,0.0,0.0,0.0,0.0,0.0,0.0,0.0,0.0,0.0,0.0,0.0,0.0,0.0,0.0,0.0,0.0,0.0,0.0,0.0,0.0,0.0,0.0,0.0,0.0,0.0,0.0,0.0,0.0,0.0,0.0,0.0,0.0,0.0,0.0,0.0,0.0,0.0,0.0,0.0,0.0,0.0,0.0,0.0,0.0,0.0,0.0,0.0,0.0,0.0,0.0,0.0,0.0,0.0,0.0,0.0,0.0,0.0,0.0,0.0,0.0,0.0,0.0,0.0,0.0,0.0,0.0,0.0,0.0,0.0,0.0,0.0,0.0,0.0,0.0,0.0,0.0,0.0,0.0,0.0,0.0,0.0,0.0,0.0,0.0,0.0,0.0,0.0,0.0,0.0,0.0,0.0,0.0,0.0,0.0,0.0,0.0,0.0,0.0,0.0,0.0,0.0,0.0,0.0,0.0,0.0,0.0,0.0,0.0,0.0,0.0,0.0,0.0,0.0,0.0,0.0,0.0,0.0,0.0,0.0,0.0,0.0,0.0,0.0,0.0,0.0,0.0,0.0,0.0,0.0,0.0,0.0,0.0,0.0,0.0,0.0,0.0,0.0,0.0,0.0,0.0,0.0,0.0,0.0,0.0,0.0,0.0,0.0,0.0,0.0,0.0,0.0,0.0,0.0,0.0,0.0,0.0,0.0,0.0,0.0,0.0,0.0,0.0,0.0,0.0,0.0,0.0,0.0,0.0,0.0,0.0,0.0,0.0,0.0,0.0,0.0,0.0,0.0,0.0,0.0,0.0,0.0,0.0,0.0,0.0,0.0,0.0,0.0,0.0,0.0,0.0,0.0,0.0,0.0,0.0,0.0,0.0,0.0,0.0,0.0,0.0,0.0,0.0,0.0,0.0,0.0,0.0,0.0,0.0,0.0,0.0,0.0,0.0,0.0,0.0,0.0,0.0,0.0,0.0,0.0,0.0,0.0,0.0,0.0,0.0,0.0,0.0,0.0,0.0,0.0,0.0,0.0,0.0,0.0,0.0,0.0,0.0,0.0,0.0,0.0,0.0,0.0,0.0,0.0,0.0,0.0,0.0,0.0,0.0,0.0,0.0,0.0,0.0,0.0,0.0,0.0,0.0,0.0,0.0,0.0,0.0,0.0,0.0,0.0,0.0,0.0,0.0,0.0,0.0,0.0,0.0,0.0,0.0,0.0,0.0,0.0,0.0,0.0,0.0,0.0,0.0,0.0,0.0,0.0,0.0,0.0,0.0,0.0,0.0,0.0,0.0,0.0,0.0,0.0,0.0,0.0,0.0,0.0,0.0,0.0,0.0,0.0,0.0,0.0,0.0,0.0,0.0,0.0,0.0,0.0,0.0,0.0,0.0,0.0,0.0,0.0,0.0,0.0,0.0,0.0,0.0,0.0,0.0,0.0,0.0,0.0,0.0,0.0,0.0,0.0,0.0,0.0,0.0,0.0,0.0,0.0,0.0,0.0,0.0,0.0,0.0,0.0,0.0,0.0,0.0,0.0,0.0,0.0,0.0,0.0,0.0,0.0,0.0,0.0,0.0,0.0,0.0,0.0,0.0,0.0,0.0,0.0,0.0,0.0,0.0,0.0,0.0,0.0,0.0,0.0,0.0,0.0,0.0,0.0,0.0,0.0,0.0,0.0,0.0,0.0,0.0,0.0,0.0,0.0,0.0,0.0,0.0,0.0,0.0,0.0,0.0,0.0,0.0,0.0,0.0,0.0,0.0,0.0,0.0,0.0,0.0,0.0,0.0,0.0,0.0,0.0,0.0,0.0,0.0,0.0,0.0,0.0,0.0,0.0,0.0,0.0,0.0,0.0,0.0,0.0,0.0,0.0,0.0,0.0,0.0,0.0,0.0,0.0,0.0,0.0,0.0,0.0,0.0,0.0,0.0,0.0,0.0,0.0,0.0,0.0,0.0,0.0,0.0,0.0,0.0,0.0,0.0,0.0,0.0,0.0,0.0,0.0,0.0,0.0,0.0,0.0,0.0,0.0,0.0,0.0,0.0,0.0,0.0,0.0,0.0,0.0,0.0,0.0,0.0,0.0,0.0,0.0,0.0,0.0,0.0,0.0,0.0,0.0,0.0,0.0,0.0,0.0,0.0,0.0,0.0,0.0,0.0,0.0,0.0,0.0,0.0,0.0,0.0,0.0,0.0,0.0,0.0,0.0,0.0,0.0,0.0,0.0,0.0,0.0,0.0,0.0,0.0,0.0,0.0,0.0,0.0,0.0,0.0,0.0,0.0,0.0,0.0,0.0,0.0,0.0,0.0,0.0,0.0,0.0,0.0,0.0,0.0,0.0,0.0,0.0,0.0,0.0,0.0,0.0,0.0,0.0,0.0,0.0,0.0,0.0,0.0,0.0,0.0,0.0,0.0,0.0,0.0,0.0,0.0,0.0,0.0,0.0,0.0,0.0,0.0,0.0,0.0,0.0,0.0,0.0,0.0,0.0,0.0,0.0,0.0,0.0,0.0,0.0,0.0,0.0,0.0,0.0,0.0,0.0,0.0,0.0,0.0,0.0,0.0,0.0,0.0,0.0,0.0,0.0,0.0,0.0,0.0,0.0,0.0,0.0,0.0,0.0,0.0,0.0,0.0,0.0,0.0,0.0,0.0,0.0,0.0,0.0,0.0,0.0,0.0,0.0,0.0,0.0,0.0,0.0,0.0,0.0,0.0,0.0,0.0,0.0,0.0,0.0,0.0,0.0,0.0,0.0,0.0,0.0,0.0,0.0,0.0,0.0,0.0,0.0,0.0,0.0,0.0,0.0,0.0,0.0,0.0,0.0,0.0,0.0,0.0,0.0,0.0,0.0,0.0,0.0,0.0,0.0,0.0,0.0,0.0,0.0,0.0,0.0,0.0,0.0,0.0,0.0,0.0,0.0,0.0,0.0,0.0,0.0,0.0,0.0,0.0,0.0,0.0,0.0,0.0,0.0,0.0,0.0,0.0,0.0,0.0,0.0,0.0,0.0,0.0,-2.0781,-2.0154,0.0,0.0,0.0,0.0,0.0,0.0,0.0,0.0,0.0,0.0,0.0,0.0,0.0,0.0,0.0,0.0,0.0,0.0,0.0,0.0,0.0,0.0,0.0,-1.2687,-1.3679,-1.5825,-1.8249,-2.0356,-2.2014,0.0,0.0,0.0,-2.3556,-2.2767,-2.1989,-1.9551,-1.7373,-1.5496,-1.4013,-1.2962,-1.2283,-1.1563,-1.1054,-1.0797,0.0,0.0,0.0,0.0,0.0,0.0,0.0,0.0,0.0,0.0,0.0,0.0,0.0,0.0,0.0,0.0,0.0,0.0,0.0,0.0,0.0,0.0,0.0,0.0,0.0,0.0,0.0,0.0,0.0,0.0,0.0,0.0,0.0,0.0,0.0,0.0,0.0,0.0,0.0,0.0,0.0,0.0,0.0,0.0,0.0,0.0,0.0,0.0,0.0,0.0,0.0,0.0,0.0,0.0,0.0,0.0,0.0,0.0,0.0,0.0,0.0,0.0,0.0,0.0,0.0,0.0,0.0,0.0,0.0,0.0,-2.2766,-2.2029,0.0,0.0,0.0,0.0,0.0,0.0,0.0,0.0,0.0,0.0,0.0,0.0,0.0,0.0,0.0,0.0,0.0,0.0,0.0,0.0,0.0,-1.4637,-1.4512,-1.4571,-1.5461,-1.7434,-1.9592,-2.1423,-2.2837,-2.3814,-2.4552,-2.5053,-2.4193,-2.3254,-2.2342,-1.9643,-1.7239,-1.5184,-1.3545,-1.2602,-1.2338,-1.3027,-1.3102,-1.2715,-1.4122,0.0,0.0,0.0,0.0,0.0,0.0,0.0,0.0,0.0,0.0,0.0,0.0,0.0,0.0,0.0,0.0,0.0,0.0,0.0,0.0,0.0,0.0,0.0,0.0,0.0,0.0,0.0,0.0,0.0,0.0,0.0,0.0,0.0,0.0,0.0,0.0,0.0,0.0,0.0,0.0,0.0,0.0,0.0,0.0,0.0,0.0,0.0,0.0,0.0,0.0,0.0,0.0,0.0,0.0,0.0,0.0,0.0,0.0,0.0,0.0,0.0,0.0,0.0,-2.4443,-2.5473,-2.6546,-2.7158,-2.7302,-2.6891,-2.499,-2.415,-2.42,-2.4402,0.0,0.0,0.0,0.0,0.0,0.0,0.0,0.0,0.0,0.0,0.0,0.0,0.0,0.0,0.0,0.0,0.0,0.0,0.0,-1.6293,-1.65,-1.6935,-1.7832,-1.9397,-2.0663,-2.1848,-2.2919,-2.3184,-2.3563,-2.4154,-2.3327,-2.2098,-2.0498,-1.8816,-1.6651,-1.4014,-1.2536,-1.1861,-1.2051,-1.2875,-1.3362,-1.3658,-1.4778,-1.5823,-1.6722,0.0,0.0,0.0,0.0,0.0,0.0,0.0,0.0,0.0,0.0,0.0,0.0,0.0,0.0,0.0,0.0,0.0,0.0,0.0,0.0,0.0,0.0,0.0,0.0,0.0,0.0,0.0,0.0,0.0,0.0,0.0,0.0,0.0,0.0,0.0,0.0,0.0,0.0,0.0,0.0,0.0,-0.7837,-0.8724,0.0,0.0,0.0,0.0,0.0,0.0,0.0,0.0,0.0,0.0,0.0,0.0,0.0,-1.9834,-2.1817,-2.26,-2.386,-2.5551,-2.6311,-2.7391,-2.869,-2.9238,-2.959,-2.991,-2.8662,0.0,-2.4935,-2.5595,0.0,0.0,0.0,0.0,0.0,0.0,0.0,0.0,0.0,0.0,0.0,0.0,0.0,0.0,0.0,0.0,0.0,0.0,0.0,0.0,0.0,-1.8588,-1.9607,-2.1533,-2.1972,-2.22,-2.2422,-2.2738,-2.2958,-2.2978,-2.1963,-2.0739,-1.9344,-1.7337,-1.5198,-1.2916,-1.2472,-1.2415,-1.2753,-1.3264,-1.366,-1.3955,-1.446,-1.5276,-1.6188,-1.6883,0.0,0.0,0.0,0.0,0.0,0.0,0.0,0.0,0.0,0.0,0.0,0.0,0.0,0.0,0.0,0.0,0.0,0.0,0.0,0.0,0.0,0.0,0.0,0.0,0.0,0.0,0.0,0.0,0.0,0.0,0.0,0.0,0.0,0.0,0.0,0.0,0.0,0.0,0.0,-0.7771,-0.8502,-0.9165,-0.9771,-1.0333,0.0,0.0,0.0,0.0,0.0,0.0,0.0,0.0,0.0,-1.8972,-2.0117,-2.1476,-2.3111,-2.4148,-2.5419,-2.6754,-2.7828,-2.8987,-3.0,-3.0667,-3.1108,-3.1235,-3.0956,-2.9813,-2.8098,-2.703,-2.7288,-2.8325,0.0,0.0,0.0,0.0,-3.2207,-3.2538,0.0,0.0,0.0,0.0,0.0,0.0,0.0,0.0,0.0,0.0,0.0,0.0,-1.8734,-1.9888,-2.1335,-2.3528,-2.3256,-2.2849,-2.2529,-2.2483,-2.226,-2.1796,-2.0564,-1.9246,-1.7893,-1.5496,-1.3556,-1.2021,-1.2414,-1.2721,-1.2935,-1.3437,-1.3691,-1.382,-1.41,-1.4674,-1.5579,-1.6151,-1.6539,-1.6782,0.0,0.0,0.0,0.0,0.0,0.0,0.0,0.0,0.0,0.0,0.0,0.0,0.0,0.0,0.0,0.0,0.0,0.0,0.0,0.0,0.0,0.0,0.0,0.0,0.0,0.0,0.0,0.0,0.0,0.0,0.0,0.0,0.0,0.0,0.0,0.0,0.0,-0.8448,-0.8992,-0.9564,-1.0093,-1.0527,0.0,0.0,0.0,0.0,0.0,0.0,-1.6569,-1.7738,-1.8956,-2.0232,-2.1391,-2.2611,-2.4098,-2.5437,-2.6716,-2.7672,-2.9068,-3.0204,-3.1015,-3.1901,-3.2377,-3.2471,-3.2533,-3.2098,-3.1183,-2.8737,-2.8515,-2.9691,-2.9601,-3.067,-3.2379,-3.3165,-3.384,-3.4489,0.0,0.0,0.0,0.0,0.0,0.0,0.0,0.0,0.0,0.0,0.0,-1.5221,-1.8216,-2.0947,-2.3295,-2.5199,-2.4539,-2.3979,-2.39,-2.2423,-2.1278,-2.0613,-1.9247,-1.7582,-1.5598,-1.3257,-1.1882,-1.1556,-1.1895,-1.2017,-1.2013,-1.2836,-1.3252,-1.3248,-1.3894,-1.4408,-1.4789,-1.5334,-1.5736,-1.6076,-1.6423,0.0,0.0,0.0,0.0,0.0,0.0,0.0,0.0,0.0,0.0,0.0,0.0,0.0,0.0,0.0,0.0,0.0,0.0,0.0,0.0,0.0,0.0,0.0,0.0,0.0,0.0,0.0,0.0,0.0,0.0,0.0,0.0,0.0,0.0,0.0,0.0,0.0,0.0,-0.9911,-1.0707,0.0,0.0,0.0,0.0,-1.4384,-1.5332,-1.6332,-1.7388,-1.8391,-1.9606,-2.107,-2.1855,-2.3072,-2.4829,-2.6271,-2.7455,-2.8398,-2.9873,-3.1015,-3.1989,-3.2599,-3.3393,-3.4083,-3.3534,-3.3258,-3.3094,-3.0649,-3.0355,-3.146,-3.1501,-3.2516,-3.4114,-3.4519,-3.5008,-3.5489,0.0,0.0,0.0,-1.3665,-1.4094,-1.4288,-1.4228,-1.2388,-1.1094,-1.1355,-1.2619,-1.4737,-1.8027,-2.1424,-2.431,-2.6358,-2.5356,-2.43,-2.359,-2.2139,-2.0604,-1.9019,-1.7649,-1.5699,-1.3072,-1.2169,-1.1521,-1.117,-1.1972,-1.2341,-1.2401,-1.3071,-1.356,-1.3877,-1.4174,-1.4558,-1.4971,-1.5435,-1.5792,-1.6032,-1.6448,-1.6718,0.0,0.0,0.0,0.0,0.0,0.0,0.0,0.0,0.0,0.0,0.0,0.0,0.0,0.0,0.0,0.0,0.0,0.0,0.0,0.0,0.0,0.0,0.0,0.0,0.0,0.0,0.0,0.0,0.0,0.0,0.0,0.0,0.0,0.0,0.0,0.0,0.0,-1.0952,-1.1412,0.0,-1.2399,-1.32,-1.4111,-1.4909,-1.6004,-1.7088,-1.8215,-1.9651,-2.0806,-2.1671,-2.2814,-2.4074,-2.5367,-2.6625,-2.7811,-2.8847,-3.0334,-3.1472,-3.2264,-3.3345,-3.4058,-3.4497,-3.4792,-3.4908,-3.4838,-3.3811,-3.3034,-3.2502,-3.2704,-3.3823,-3.5548,-3.6314,-3.6844,-3.7408,-1.182,-1.1915,0.0,-1.2939,-1.3477,-1.3563,-1.2912,-1.1157,-0.9988,-1.0095,-1.16,-1.407,-1.7835,-2.1628,-2.485,-2.7225,-2.6027,-2.4723,-2.3696,-2.1702,-1.963,-1.7525,-1.5498,-1.3444,-1.1348,-1.132,-1.1232,-1.1094,-1.1986,-1.2443,-1.2573,-1.3266,-1.3851,-1.422,-1.4422,-1.4846,-1.5522,-1.5676,-1.5842,-1.6032,-1.6522,-1.6748,-1.6846,0.0,0.0,0.0,0.0,0.0,0.0,0.0,0.0,0.0,0.0,0.0,0.0,0.0,0.0,0.0,0.0,0.0,0.0,0.0,0.0,0.0,0.0,0.0,0.0,0.0,0.0,0.0,0.0,0.0,0.0,0.0,0.0,0.0,0.0,-1.1193,-1.1654,-1.1962,-1.2188,-1.2527,-1.3124,-1.3791,-1.4594,-1.5502,-1.6598,-1.7713,-1.8941,-2.0393,-2.1508,-2.231,-2.3392,-2.4506,-2.5728,-2.6889,-2.8077,-2.9281,-3.069,-3.1922,-3.2822,-3.3809,-3.4552,-3.5098,-3.5618,-3.59,-3.5954,-3.5796,-3.5121,-3.4311,-3.4366,-3.5305,-3.6634,-3.7508,-3.8053,-3.8512,-1.1763,-1.1674,-1.1867,-1.2466,-1.2885,-1.2799,-1.171,-1.0208,-0.9198,-0.9152,-1.0533,-1.3182,-1.753,-2.1497,-2.4969,-2.7725,-2.6453,-2.5112,-2.4245,-2.1047,-1.8228,-1.6048,-1.2812,-1.09,-1.049,-1.0693,-1.0948,-1.1326,-1.1904,-1.2256,-1.2332,-1.3352,-1.3993,-1.4307,-1.4534,-1.5229,-1.6225,-1.5923,-1.5899,-1.6051,-1.6539,-1.6863,-1.7044,0.0,0.0,0.0,0.0,0.0,0.0,0.0,0.0,0.0,0.0,0.0,0.0,0.0,0.0,0.0,0.0,0.0,0.0,0.0,0.0,0.0,0.0,0.0,0.0,0.0,0.0,0.0,0.0,0.0,0.0,0.0,0.0,0.0,-1.19,-1.2144,-1.2457,-1.2845,-1.3138,-1.3572,-1.4295,-1.4432,-1.4964,-1.6163,-1.7101,-1.8188,-1.9515,-2.0384,-2.1549,-2.3092,-2.3449,-2.4291,-2.5902,-2.7075,-2.8264,-2.9546,-3.0956,-3.2293,-3.3531,-3.3985,-3.4781,-3.591,-3.5827,-3.5994,-3.6341,-3.6511,-3.6711,-3.6817,-3.6485,-3.6845,-3.7599,-3.8074,-3.8491,-3.8957,-1.2446,-1.1977,-1.1733,-1.2045,-1.2253,-1.1989,-1.0706,-0.9733,-0.8949,-0.8466,-1.0761,-1.3415,-1.6049,-2.0225,-2.3424,-2.4919,-2.3695,-2.2446,-2.1526,-1.8686,-1.5655,-1.2528,-1.1052,-1.0144,-0.9839,-1.0529,-1.1023,-1.1326,-1.1835,-1.2286,-1.252,-1.3484,-1.4089,-1.4336,-1.4856,-1.5245,-1.5529,-1.5595,-1.6074,-1.6784,-1.7248,-1.7393,-1.7393,0.0,0.0,0.0,0.0,0.0,0.0,0.0,0.0,0.0,0.0,0.0,0.0,0.0,0.0,0.0,0.0,0.0,0.0,0.0,0.0,0.0,0.0,0.0,0.0,0.0,0.0,0.0,0.0,0.0,0.0,0.0,-1.4146,-1.4721,-1.3777,-1.3743,-1.4035,-1.4636,-1.4428,-1.4423,-1.4771,-1.4966,-1.5532,-1.6505,-1.7463,-1.8496,-1.9694,-2.0893,-2.1854,-2.268,-2.3897,-2.4877,-2.5641,-2.6979,-2.8254,-2.9192,-3.0322,-3.1645,-3.2983,-3.3736,-3.4591,-3.5659,-3.6453,-3.6829,-3.6957,-3.7727,-3.8033,-3.8056,-3.7732,-3.793,-3.855,-3.9261,-4.0012,-4.0629,-1.3013,-1.2432,-1.2045,-1.1893,-1.1969,-1.1593,-1.0183,-0.952,-0.9026,-0.8568,-1.0591,-1.2981,-1.5406,-1.8582,-2.1067,-2.2294,-2.1048,-1.973,-1.8639,-1.5416,-1.2438,-0.9848,-0.955,-0.9466,-0.949,-1.0491,-1.1217,-1.1669,-1.2116,-1.2512,-1.2899,-1.3954,-1.445,-1.4494,-1.5184,-1.5608,-1.5731,-1.5823,-1.634,-1.7169,-1.7876,-1.8107,-1.8068,-1.8187,-1.7697,-1.6802,-1.617,-1.5339,-1.4566,-1.4423,0.0,0.0,0.0,0.0,0.0,0.0,0.0,0.0,0.0,0.0,0.0,0.0,0.0,0.0,0.0,0.0,0.0,0.0,0.0,0.0,0.0,0.0,0.0,0.0,-1.5255,-1.5914,-1.5893,-1.5641,-1.5535,-1.5819,-1.5609,-1.5508,-1.5514,-1.5568,-1.5937,-1.6661,-1.764,-1.8696,-1.9825,-2.098,-2.207,-2.3037,-2.4077,-2.5142,-2.613,-2.7302,-2.8407,-2.9432,-3.0568,-3.1707,-3.2871,-3.3691,-3.4519,-3.5437,-3.6314,-3.6722,-3.7002,-3.7952,-3.8317,0.0,0.0,0.0,0.0,0.0,-4.0787,-4.1353,-1.3711,-1.2999,-1.2545,-1.1844,-1.1732,-1.1292,-0.9845,-0.9314,-0.9053,-0.8915,-1.0106,-1.1998,-1.4839,-1.6545,-1.8048,-1.9428,-1.8183,-1.6698,-1.5207,-1.164,-0.9047,-0.7908,-0.8349,-0.879,-0.9266,-1.0441,-1.1388,-1.2115,-1.2416,-1.2819,-1.3279,-1.4395,-1.4862,-1.4739,-1.5478,-1.6031,-1.6382,-1.6214,-1.6588,-1.7364,-1.8272,-1.8702,-1.876,-1.8717,-1.812,-1.7241,-1.6428,-1.5506,-1.4673,-1.453,0.0,0.0,0.0,0.0,0.0,0.0,0.0,0.0,0.0,0.0,0.0,0.0,0.0,0.0,0.0,0.0,0.0,0.0,0.0,0.0,0.0,0.0,0.0,0.0,-1.6269,-1.6746,-1.7827,-1.753,-1.7007,-1.6733,-1.67,-1.6588,-1.6312,-1.6251,-1.6352,-1.6803,-1.781,-1.8889,-2.0034,-2.0962,0.0,0.0,0.0,-2.5128,-2.6836,-2.7715,-2.8696,-2.9886,-3.1009,-3.1983,-3.2782,-3.3505,-3.433,-3.5126,-3.5679,-3.6156,-3.6722,-3.7479,-3.7939,-3.8304,-3.9024,-3.9496,-3.9788,-4.0443,-4.1043,-4.1396,-1.5515,-1.373,-1.2397,-1.1342,-1.0683,-0.989,-0.8701,-0.8097,-0.7743,-0.7654,-0.9011,-1.0555,-1.2047,-1.3529,-1.4573,-1.4966,-1.381,-1.2108,-0.9769,-0.834,-0.7405,-0.7036,-0.7619,-0.8312,-0.8977,-1.0021,-1.0849,-1.1457,-1.194,-1.2505,-1.3167,-1.4012,-1.4546,-1.4809,-1.5428,-1.573,-1.5786,-1.5847,-1.6412,-1.7242,-1.7546,-1.8046,-1.8626,-1.906,-1.8547,-1.75,-1.6595,-1.5613,-1.4743,-1.4446,-1.4599,-1.489,-1.4597,-1.4712,0.0,0.0,0.0,0.0,0.0,0.0,0.0,0.0,0.0,0.0,0.0,0.0,0.0,0.0,0.0,0.0,0.0,0.0,0.0,-1.6577,-1.7368,-1.7984,-1.819,-1.836,-1.8264,-1.7802,-1.739,-1.6958,-1.6588,-1.6727,-1.6973,-1.7145,-1.8164,-1.9182,-2.018,-2.1272,-2.2254,-2.3248,-2.4565,-2.5651,-2.6661,-2.7782,-2.8762,-2.9588,-3.0455,0.0,-3.1933,-3.2742,-3.3546,-3.4237,-3.5017,-3.5692,-3.6156,-3.6922,-3.7769,-3.8589,-3.9278,-3.9719,-4.0009,-4.0674,-4.1114,-4.1396,-1.7072,-1.5266,-1.3619,-1.1996,-1.0893,-0.9857,-0.8685,-0.7908,-0.7452,-0.7456,-0.8395,-0.9484,-1.0658,-1.1531,-1.2042,-1.2101,-1.0625,-0.8952,-0.7203,-0.6561,-0.6289,-0.641,-0.7251,-0.8165,-0.9082,-1.0198,-1.1113,-1.1867,-1.2329,-1.2861,-1.3466,-1.4421,-1.4912,-1.5045,-1.5915,-1.6248,-1.6105,-1.6282,-1.662,-1.7074,-1.7551,-1.7948,-1.8268,-1.891,-1.8933,-1.8404,-1.6994,-1.6088,-1.5407,-1.4424,-1.4394,-1.466,-1.421,-1.4347,-1.456,0.0,0.0,0.0,0.0,0.0,0.0,0.0,0.0,0.0,0.0,0.0,0.0,0.0,0.0,-1.4874,-1.6008,0.0,-1.7021,-1.7713,-1.8054,-1.8338,-1.8691,-1.8808,-1.8643,-1.8179,-1.7893,-1.7426,-1.6676,-1.6965,-1.7153,-1.7333,-1.8265,-1.9196,-2.0292,-2.1204,-2.2336,-2.3369,-2.4643,-2.5744,-2.6711,-2.7891,-2.8664,-2.9312,-3.033,-3.1015,-3.1575,-3.2316,-3.3017,-3.3656,-3.4335,-3.5017,-3.5692,-3.6534,-3.7387,-3.8148,-3.8845,-3.9455,-4.0083,-4.0745,-4.1184,-4.148,-1.8426,-1.6996,-1.5226,-1.2672,-1.1215,-0.9971,-0.8771,-0.7894,-0.7447,-0.7541,-0.7991,-0.8752,-0.9919,-1.0099,-1.0076,-0.9926,-0.8279,-0.6904,-0.6021,-0.561,-0.5572,-0.591,-0.7017,-0.8106,-0.919,-1.0358,-1.1384,-1.2183,-1.2677,-1.3182,-1.3788,-1.4823,-1.5304,-1.5404,-1.6424,-1.6822,-1.6712,-1.6901,-1.6986,-1.7025,-1.7666,-1.7952,-1.8047,-1.8532,-1.8906,-1.896,-1.7182,-1.6383,-1.5929,-1.4433,-1.4209,-1.4471,-1.3728,-1.3968,-1.4388,-1.3694,-1.3493,0.0,0.0,0.0,0.0,0.0,0.0,0.0,0.0,-1.2087,-1.2577,-1.3745,-1.4643,-1.5533,-1.6608,-1.709,-1.7588,-1.849,-1.839,-1.8441,-1.8993,-1.8907,-1.8664,-1.8172,-1.8087,-1.7707,-1.6676,-1.7052,-1.7326,-1.7326,-1.8265,-1.9196,-2.0292,-2.1182,-2.2315,-2.3663,-2.4733,-2.5734,-2.6849,-2.7914,-2.8581,-2.9046,-3.0309,-3.0982,-3.1191,-3.1993,-3.2666,-3.3181,-3.3854,-3.4531,-3.532,-3.625,-3.6922,-3.74,-3.8135,-3.9038,-3.9996,-4.0745,-4.1184,-4.148,-1.9671,-1.8416,-1.6321,-1.2307,-1.0506,-0.921,-0.8017,-0.7324,-0.7058,-0.737,-0.7724,-0.8335,-0.9396,-0.925,-0.8731,-0.7915,-0.6979,-0.6118,-0.5432,-0.527,-0.5361,-0.5647,-0.6725,-0.7836,-0.8839,-0.9937,-1.0791,-1.1432,-1.219,-1.2912,-1.3633,-1.4497,-1.5238,-1.5933,-1.6548,-1.693,-1.7142,-1.7224,-1.7272,-1.7272,-1.7354,-1.7773,-1.832,-1.809,-1.8049,-1.7902,-1.6485,-1.5816,-1.5446,-1.4345,-1.4399,-1.4833,-1.4153,-1.4379,-1.4785,-1.3991,-1.3674,-1.3595,-1.3521,-1.3071,-1.2531,-1.205,-1.1592,-1.1393,0.0,-1.2264,-1.2797,-1.4157,-1.4994,-1.5695,-1.6513,-1.7299,-1.797,-1.8083,-1.8482,-1.8717,-1.8669,-1.8816,-1.8749,-1.8141,-1.8087,-1.7707,-1.6676,-1.7052,-1.7326,-1.7326,-1.8265,-1.9196,-2.0292,-2.1427,-2.2595,-2.3672,-2.4919,-2.6031,-2.6849,-2.7914,-2.8581,-2.885,-2.988,-3.0466,-3.0707,-3.1448,-3.204,-3.2656,-3.3843,-3.4628,-3.5223,-3.6073,-3.6534,-3.6909,-3.7664,-3.8575,-3.9469,-4.0574,-4.1184,-4.148,-1.9475,-1.832,-1.6528,-1.3051,-1.1575,-1.042,-0.9054,-0.8295,-0.801,-0.8272,-0.8648,-0.9189,-0.9943,-0.972,-0.918,-0.8458,-0.7342,-0.6362,-0.5518,-0.527,-0.5318,-0.5701,-0.6742,-0.7818,-0.8964,-1.0089,-1.1057,-1.1836,-1.2579,-1.3374,-1.42,-1.5002,-1.5764,-1.6491,-1.6986,-1.732,-1.7502,-1.7549,-1.7572,-1.7532,-1.7532,-1.7959,-1.8552,-1.8323,-1.8086,-1.7782,-1.6726,-1.6169,0.0,-1.4754,-1.4612,-1.4809,-1.4354,-1.4528,-1.4711,-1.4172,-1.4132,-1.4259,-1.4327,-1.386,-1.3286,-1.3007,-1.2551,-1.2143,-1.2049,-1.2304,-1.274,-1.3629,-1.4407,-1.533,-1.6423,-1.6956,-1.7427,-1.8126,-1.8412,-1.8564,-1.8667,-1.8832,-1.8674,-1.82,-1.7768,-1.7288,-1.664,-1.7052,-1.7239,-1.7153,-1.8087,-1.9004,-1.9828,-2.1284,-2.2461,-2.3495,-2.4785,-2.581,-2.6678,-2.7536,-2.8113,-2.8581,-2.9448,-3.0123,-3.0599,-3.1086,-3.1873,-3.2946,-3.3854,-3.464,-3.5223,-3.5704,-3.6181,-3.6628,-3.74,-3.8135,-3.9038,-4.0069,-4.0859,-4.148,-1.9388,-1.8128,-1.6468,-1.3864,-1.2699,-1.1567,-0.993,-0.9104,-0.8842,-0.9207,-0.9748,-1.0335,-1.1069,-1.0875,-1.0349,-0.9512,-0.8284,-0.711,-0.6021,-0.561,-0.5572,-0.5879,-0.6875,-0.7941,-0.9116,-1.035,-1.1394,-1.2282,-1.3113,-1.3927,-1.4769,-1.5579,-1.6278,-1.6935,-1.7392,-1.7641,-1.7755,-1.7856,-1.7974,-1.8099,-1.8099,-1.8491,-1.9101,-1.8918,-1.8575,-1.8095,-1.7134,-1.6486,-1.5941,-1.5043,-1.4777,-1.4808,-1.4588,-1.462,-1.4679,-1.4509,-1.4704,-1.4979,-1.4908,-1.4559,-1.4223,-1.3942,-1.3368,-1.2772,-1.2341,-1.2299,-1.2491,-1.2975,-1.3648,-1.4521,-1.561,-1.6111,-1.6608,-1.7411,-1.7726,-1.8054,-1.8365,-1.8515,-1.8429,-1.8024,-1.7517,-1.6996,-1.6472,-1.6872,-1.7022,-1.685,-1.7848,-1.8812,-1.9546,-2.1096,-2.2375,-2.3411,-2.4689,-2.5713,-2.6496,-2.7347,-2.7914,-2.8395,-2.9023,-2.98,-3.061,-3.1119,-3.1995,-3.3247,-3.3866,-3.4555,-3.5223,-3.5512,-3.5895,-3.637,-3.7121,-3.7861,-3.8589,-3.9469,-4.043,-4.1227,-1.9885,-1.8132,-1.6215,-1.4562,-1.3384,-1.1973,-0.9935,-0.9262,-0.923,-0.9906,-1.0681,-1.1527,-1.2625,-1.2654,-1.2067,-1.066,-0.9563,-0.8303,-0.6862,-0.6374,-0.6184,-0.6179,-0.714,-0.8203,-0.9275,-1.0542,-1.1627,-1.2508,-1.3488,-1.4379,-1.5211,-1.5945,-1.6622,-1.7216,-1.7612,-1.7833,-1.7905,-1.8031,-1.8459,-1.9064,-1.9064,-1.9501,-2.0135,-1.9788,-1.941,-1.8865,-1.7494,-1.6353,-1.5448,-1.4963,-1.4839,-1.4871,-1.4808,-1.4746,-1.4763,-1.5005,-1.5389,-1.564,-1.4994,-1.4963,-1.5018,-1.4513,-1.3599,-1.293,-1.3059,-1.243,-1.1964,-1.2406,-1.2846,-1.3227,-1.349,-1.4689,-1.5568,-1.5405,-1.63,-1.703,-1.739,-1.7742,-1.7928,-1.7707,-1.7525,-1.6999,-1.6145,-1.6335,-1.6514,-1.6521,-1.7712,-1.8812,-1.9546,-2.1096,-2.2375,-2.3411,-2.4871,-2.5994,-2.6496,-2.7526,-2.8102,-2.8395,-2.8872,-2.9648,-3.0621,-3.1884,-3.2734,-3.3247,-3.3866,-3.4555,-3.5223,-3.5512,-3.5716,-3.6111,-3.6828,-3.7572,-3.8304,-3.9024,-3.9908,-4.0787,-1.8816,-1.7653,-1.6338,-1.4539,-1.3551,-1.2733,-1.2009,-1.1098,-1.0681,-1.1274,-1.2618,0.0,0.0,0.0,0.0,0.0,-1.1396,-0.9978,-0.8676,-0.811,-0.7719,-0.7389,-0.8205,-0.8981,-0.9679,-1.0819,-1.1836,-1.2754,-1.3683,-1.4537,-1.5359,-1.6047,-1.6628,-1.7093,-1.7455,-1.7664,-1.7805,-1.8387,-1.8784,-1.9096,-1.9573,-2.0195,-2.0823,-2.0532,-2.0037,-1.9353,0.0,-1.6981,-1.5959,-1.4938,-1.4686,-1.4784,-1.496,-1.5004,-1.5148,-1.5828,-1.5847,-1.5751,-1.6413,-1.6396,-1.6053,-1.5563,-1.5051,-1.4349,-1.3234,-1.2824,-1.2545,-1.1999,-1.2192,-1.2538,-1.2709,-1.3187,-1.3727,-1.4119,-1.4792,-1.5479,-1.6059,-1.6776,-1.7263,-1.7204,-1.6771,-1.6316,-1.5638,-1.5965,-1.6278,-1.6485,-1.75,-1.8474,-1.9263,-2.1105,-2.247,-2.3121,-2.4775,-2.6081,-2.6764,-2.7431,-2.8008,-2.8675,-2.9602,-3.0363,-3.0912,-3.1995,-3.2846,-3.3446,-3.3965,-3.4652,-3.5428,-3.5524,-3.5895,-3.6546,-3.7121,-3.7664,-3.8304,-3.9024,-3.9733,-4.0343,-1.8042,-1.7089,-1.5977,-1.4513,-1.3754,0.0,0.0,0.0,0.0,0.0,0.0,0.0,0.0,0.0,0.0,0.0,0.0,-1.1543,-1.0114,-0.9533,-0.9028,-0.8677,-0.9333,-0.9904,-1.032,-1.1337,-1.2201,-1.2859,-1.3716,-1.4491,-1.5211,-1.5851,-1.6374,-1.6783,-1.7134,-1.7368,-1.7576,-1.8447,-1.899,-1.9343,-2.0111,-2.0856,-2.1488,-2.1142,-2.0501,0.0,-1.8025,-1.6796,-1.5799,-1.4862,-1.4667,-1.485,-1.491,-1.511,-1.5492,-1.6108,-1.6255,-1.6413,-1.7157,-1.7259,-1.7063,-1.6781,-1.6232,-1.5528,-1.4301,-1.3651,-1.3065,-1.2208,-1.1909,-1.1839,-1.1889,-1.1877,-1.205,-1.2618,-1.3123,-1.3772,-1.4528,-1.5457,-1.611,-1.634,-1.6013,-1.5726,-1.5318,-1.5533,-1.5827,-1.6224,-1.7438,-1.8481,-1.9257,-2.1084,-2.2357,-2.3001,-2.459,-2.5789,-2.6804,-2.7379,-2.8118,-2.9035,-3.0041,-3.0604,-3.0998,-3.1815,-3.2676,-3.3645,-3.3965,-3.4652,-3.562,-3.5704,-3.6168,-3.6709,-3.74,-3.7861,-3.8304,-3.9024,-3.9571,-4.0009,-1.7571,-1.6403,-1.5227,0.0,0.0,0.0,0.0,0.0,0.0,0.0,0.0,0.0,0.0,0.0,0.0,0.0,0.0,0.0,-1.124,-1.0552,-1.0191,-0.9993,-1.0561,-1.096,-1.1163,-1.2074,-1.2655,-1.2839,-1.3667,-1.4332,-1.4937,-1.5477,-1.5955,-1.6355,-1.6701,-1.7,-1.724,-1.8194,-1.9033,-1.982,-2.0669,-2.1401,-2.1943,-2.1488,-2.0702,-1.9585,-1.726,-1.584,-1.5016,-1.4612,-1.475,-1.5005,-1.472,-1.512,-1.5709,-1.5881,-1.6649,-1.7423,-1.7311,-1.767,-1.807,-1.807,-1.7315,-1.6441,-1.6151,-1.4891,-1.3533,-1.295,-1.193,-1.1099,-1.0975,-1.0739,-1.0644,-1.0983,-1.1351,-1.1932,-1.2838,-1.381,-1.4594,-1.515,-1.5264,-1.5318,-1.5082,-1.509,-1.5372,-1.5918,-1.7435,-1.8637,-1.9373,-2.0811,-2.2061,-2.3066,-2.4209,-2.538,-2.6568,-2.7419,-2.839,-2.9497,-2.9989,-3.0471,-3.1049,-3.1468,-3.2457,-3.361,-3.3953,-3.464,-3.5571,-3.5833,-3.62,-3.6764,-3.7533,-3.8004,-3.8304,-3.9024,-3.9496,-3.9788,0.0,0.0,0.0,0.0,0.0,0.0,0.0,0.0,0.0,0.0,0.0,0.0,0.0,0.0,0.0,0.0,0.0,0.0,-1.3032,-1.2424,-1.1912,-1.1472,-1.1784,-1.2049,-1.2141,-1.2787,-1.3237,-1.3533,-1.4312,-1.4894,-1.5296,-1.5765,-1.6193,-1.6597,-1.6532,-1.6693,-1.7027,-1.8032,-1.8646,-1.9106,-2.0527,-2.091,-2.0554,-2.0144,-1.9282,-1.8035,-1.6101,-1.5057,-1.4501,-1.3417,-1.3591,-1.435,-1.488,-1.5199,-1.5504,-1.5989,-1.6494,-1.7059,-1.7766,-1.8398,-1.8858,-1.9024,-1.8742,-1.8225,-1.7478,-1.6244,-1.4932,-1.389,-1.2611,-1.1374,-1.0594,-0.9993,-0.9717,-0.9869,-1.0026,-1.045,-1.1428,-1.2595,-1.3495,-1.3908,-1.4487,-1.4817,-1.4824,-1.5151,-1.5604,-1.6186,-1.7594,-1.8896,-1.9868,-2.1518,-2.2693,-2.3329,-2.4665,-2.5839,-2.6836,-2.8294,-2.9282,-2.9794,-3.028,-3.068,-3.1038,-3.1894,-3.2655,-3.3379,-3.4267,-3.4812,-3.5018,-3.5475,-3.5928,-3.648,-3.7207,-3.7934,-3.8589,-3.9127,-3.9496,-3.97,0.0,0.0,0.0,0.0,0.0,0.0,0.0,0.0,0.0,0.0,0.0,0.0,0.0,0.0,0.0,0.0,0.0,0.0,0.0,-1.3542,-1.306,-1.2715,-1.2949,-1.3076,-1.2935,-1.3376,-1.3644,-1.3703,-1.4225,-1.4769,-1.5336,-1.5477,-1.5888,-1.6469,-1.6338,-1.642,-1.6787,-1.7809,-1.8355,0.0,0.0,-2.0268,-1.9874,-1.9479,-1.8576,-1.7287,-1.5372,-1.3932,-1.2865,-1.2594,-1.3086,-1.3912,-1.4768,-1.5049,-1.5157,-1.5749,-1.6483,-1.7235,-1.8102,-1.9003,-1.9797,-1.9941,-1.9867,-1.946,-1.853,-1.7341,-1.6076,-1.4967,-1.3423,-1.2025,-1.1062,-1.0079,-0.9385,-0.9306,-0.9211,-0.9405,-1.029,-1.1396,-1.2252,-1.2872,-1.3705,-1.4321,-1.4412,-1.4985,-1.5643,-1.6221,-1.7798,-1.9075,-2.0051,-2.1621,-2.2792,-2.3407,-2.4375,-2.5695,-2.7248,-2.8763,-2.9588,-2.9886,-3.0158,-3.05,-3.1008,-3.157,-3.2332,-3.3149,-3.3815,-3.4253,-3.4638,-3.5086,-3.5633,-3.6212,-3.7085,-3.7656,-3.8166,-3.8841,-3.9203,-3.9394,0.0,0.0,0.0,0.0,0.0,0.0,0.0,0.0,0.0,-1.7013,-1.7302,-1.7381,-1.7285,-1.6949,0.0,0.0,0.0,0.0,0.0,0.0,-1.3905,-1.38,-1.401,-1.3968,-1.3649,-1.3939,-1.3978,-1.3705,-1.4064,-1.4613,-1.532,-1.5262,-1.5676,-1.6421,-1.6224,-1.6273,-1.6589,-1.7484,-1.7885,-1.8071,-1.9057,-1.9424,-1.9292,0.0,0.0,-1.6721,-1.4778,-1.2748,-1.1107,-1.2092,-1.2889,-1.3506,-1.439,-1.4646,-1.4696,-1.5303,-1.6387,-1.7585,-1.8301,-1.9563,-2.0703,-2.0895,-2.0759,-2.0419,-1.9393,-1.8285,-1.712,-1.6121,-1.4399,-1.2819,-1.1994,-1.0668,-0.9624,-0.922,-0.8855,-0.8882,-0.9549,-1.0386,-1.1277,-1.2117,-1.3052,-1.3737,-1.4082,-1.4901,-1.5643,-1.6139,-1.7875,-1.9324,-2.0156,-2.1379,-2.2558,-2.367,-2.4262,-2.5556,-2.7734,-2.8936,-2.968,-2.9977,-2.9977,-3.0377,-3.1055,-3.1125,-3.1786,-3.2897,-3.3224,-3.3662,-3.4239,-3.4767,-3.5238,-3.5745,-3.677,-3.725,-3.7537,-3.8434,-3.8841,-3.8997,0.0,0.0,0.0,0.0,0.0,0.0,-1.5827,-1.5769,-1.5668,-1.5667,-1.5832,-1.5846,-1.5589,-1.5655,0.0,0.0,0.0,0.0,0.0,0.0,0.0,-1.4823,-1.4651,-1.4571,-1.4482,-1.4596,-1.4597,-1.4417,-1.5165,-1.5707,-1.5951,-1.6656,-1.7188,-1.7551,-1.6764,-1.6517,-1.6669,-1.6573,-1.6609,-1.6817,-1.7802,-1.7887,-1.7366,0.0,0.0,0.0,-1.348,-1.2192,-1.1316,-1.1933,-1.2405,-1.2804,-1.3711,-1.3954,-1.4031,-1.4569,-1.5763,-1.7171,-1.8208,-1.9727,-2.1135,-2.1464,-2.1559,-2.1348,-2.0451,-1.9336,-1.8235,-1.7219,-1.5449,-1.3777,-1.2771,-1.136,-1.0181,-0.9645,-0.9141,-0.9098,-0.986,-1.0391,-1.1033,-1.1704,-1.28,-1.3646,-1.4062,-1.4894,-1.5726,-1.6566,-1.8052,-1.9324,-2.0156,-2.1379,-2.2948,-2.4882,-2.5826,-2.6915,-2.8254,-2.9103,-2.976,-3.0136,-3.0397,-3.0714,-3.127,-3.1979,-3.2412,-3.2907,-3.3698,0.0,-3.3921,-3.4463,-3.4825,-3.5085,-3.568,-3.6498,-3.7395,-3.7816,-3.8314,-3.8908,0.0,0.0,0.0,0.0,0.0,0.0,-1.5668,-1.5566,-1.5431,-1.5424,-1.5375,-1.523,-1.4963,-1.497,-1.5215,0.0,0.0,0.0,0.0,0.0,0.0,0.0,-1.5367,-1.5232,-1.5108,-1.5085,-1.504,-1.4949,0.0,-1.6195,-1.6559,-1.7086,-1.7556,-1.8032,-1.7309,-1.7103,-1.7136,-1.7017,-1.686,-1.6705,-1.7277,-1.717,0.0,0.0,0.0,0.0,0.0,-1.166,-1.1249,-1.169,-1.2169,-1.2639,-1.3235,-1.3588,-1.389,-1.4478,-1.567,-1.7063,-1.8132,-1.9616,-2.0867,-2.1218,-2.1263,-2.1017,-2.0237,-1.9297,-1.8429,-1.7745,-1.6339,-1.4893,-1.4033,-1.2695,-1.1421,-1.0672,-1.0213,-1.0076,-1.0437,-1.0902,-1.1393,-1.1983,-1.2971,-1.3737,-1.4068,-1.4985,-1.5816,-1.6476,-1.7711,-1.8939,-2.0147,-2.1891,-2.3408,-2.4819,-2.6077,-2.7101,-2.8033,-2.9025,-2.976,-3.0216,-3.0487,-3.0937,-3.1496,-3.1925,-3.2224,-3.2616,-3.3394,-3.3608,-3.3619,-3.4148,-3.449,-3.4673,-3.5227,-3.5798,-3.6463,-3.7382,-3.7945,-3.8327,0.0,0.0,0.0,0.0,0.0,0.0,-1.5463,-1.5299,-1.5256,-1.5438,-1.5223,-1.5053,-1.5068,-1.4823,-1.5004,0.0,0.0,0.0,0.0,0.0,0.0,0.0,0.0,-1.5952,-1.5756,0.0,0.0,-1.5345,-1.5986,0.0,0.0,0.0,0.0,0.0,-1.782,-1.7592,-1.7604,-1.7545,-1.7243,0.0,0.0,-1.6831,0.0,0.0,0.0,0.0,0.0,-1.145,-1.1324,-1.1616,-1.2145,-1.2744,-1.3042,-1.3407,-1.3941,-1.4588,-1.5821,-1.7249,-1.8356,-1.9842,-2.1064,-2.125,-2.1277,-2.0997,-2.0043,-1.9381,-1.8786,-1.8273,-1.7203,-1.6025,-1.5156,-1.387,-1.2617,-1.1701,-1.1179,-1.0998,-1.1164,-1.1525,-1.2011,-1.2583,-1.3392,-1.399,-1.4166,-1.5159,-1.5899,-1.6394,-1.7696,-1.8955,-2.0359,-2.2284,-2.3794,-2.4557,-2.582,-2.6939,-2.7668,-2.8778,-2.9659,-3.0216,-3.0487,-3.1116,-3.1849,-3.1849,-3.2113,-3.2562,-3.2995,-3.3326,-3.3484,-3.3907,-3.4243,-3.445,-3.492,-3.5182,-3.5489,-3.6817,-3.7483,-3.7939,0.0,0.0,0.0,0.0,0.0,0.0,-1.5313,-1.4994,-1.4892,-1.527,-1.5079,-1.5197,-1.5883,-1.542,-1.54,0.0,0.0,0.0,0.0,0.0,0.0,0.0,0.0,0.0,0.0,0.0,0.0,-1.5468,-1.6491,0.0,0.0,0.0,0.0,0.0,0.0,-1.784,-1.7559,-1.7093,0.0,0.0,0.0,0.0,0.0,0.0,0.0,0.0,0.0,-1.1902,-1.1945,-1.2075,-1.2497,-1.3042,-1.3338,-1.364,-1.3941,-1.4688,-1.6198,-1.7973,-1.9222,-2.1081,-2.258,-2.2269,-2.2578,-2.2552,-2.0947,-2.0452,-2.0087,-1.9355,-1.8113,-1.6863,-1.5873,-1.4483,-1.3194,-1.2394,-1.1573,-1.1215,-1.2006,-1.2172,-1.2538,-1.3243,-1.3893,-1.4398,-1.465,-1.5318,-1.5982,-1.6648,-1.8607,-2.0121,-2.1053,-2.236,-2.3662,-2.4856,-2.5574,-2.6569,-2.7698,-2.8431,-2.9331,-3.0216,-3.0691,-3.1419,-3.2313,-3.2313,-3.2562,-3.3081,-3.3227,-3.3471,0.0,-3.3992,-3.4243,-3.441,-3.4463,-3.4887,-3.5555,-3.5746,-3.6804,-3.8075,0.0,0.0,0.0,0.0,0.0,0.0,-1.5056,-1.4839,-1.4999,-1.5799,-1.5747,-1.5942,-1.6785,-1.6742,-1.6844,-1.7255,0.0,0.0,0.0,0.0,0.0,0.0,0.0,0.0,0.0,0.0,-1.6324,-1.5976,-1.693,0.0,0.0,0.0,0.0,0.0,0.0,-1.8436,-1.8319,-1.7897,0.0,0.0,0.0,0.0,0.0,0.0,0.0,0.0,0.0,0.0,-1.1688,-1.2091,-1.2588,-1.3118,-1.3981,-1.4469,-1.4824,-1.5206,-1.656,-1.8148,-1.9218,-2.084,-2.2103,-2.1887,-2.1902,-2.1722,-2.0691,-2.0013,-1.9482,-1.9005,-1.802,-1.6941,-1.6244,-1.5031,-1.3873,-1.3251,-1.2658,-1.2391,-1.2746,-1.31,-1.3437,-1.3776,-1.4412,-1.4908,-1.5068,-1.5658,-1.6412,-1.744,-1.9022,-2.0269,-2.1194,-2.2379,-2.3485,-2.4451,-2.533,-2.6221,-2.7241,-2.8164,-2.9015,-3.0057,-3.0703,-3.133,-3.2025,-3.23,-3.2562,-3.2896,-3.3227,-3.3471,0.0,-3.3992,-3.4243,-3.4397,-3.4397,-3.4708,-3.5152,-3.565,-3.6329,-3.7053,0.0,0.0,0.0,0.0,0.0,-1.4904,-1.4887,-1.4808,-1.5147,-1.6327,-1.6387,-1.6714,-1.7731,-1.8001,-1.8223,-1.8419,-1.8366,0.0,0.0,0.0,0.0,0.0,0.0,0.0,0.0,0.0,-1.6896,-1.6529,-1.7384,-1.7873,0.0,0.0,-1.9328,-1.9328,0.0,0.0,0.0,0.0,0.0,0.0,0.0,0.0,0.0,0.0,0.0,0.0,0.0,0.0,0.0,0.0,0.0,-1.3478,-1.4378,-1.508,-1.5642,-1.5901,-1.7169,-1.8712,-1.9604,-2.107,-2.227,-2.2098,-2.1969,-2.1605,-2.0797,-1.9895,-1.9128,-1.8668,-1.774,-1.6819,-1.6172,-1.5195,-1.4312,-1.386,-1.3477,-1.3375,-1.3556,-1.3849,-1.4145,-1.4384,-1.4838,-1.5249,-1.5477,-1.6163,-1.6992,-1.8071,-1.939,-2.0395,-2.1281,-2.2466,-2.3406,-2.4024,-2.5013,-2.5836,-2.6657,-2.7755,-2.8791,-2.9659,-3.0543,-3.1241,-3.1749,-3.2113,-3.2475,-3.2711,-3.3142,-3.3398,0.0,-3.3992,-3.416,-3.4314,-3.4397,-3.4577,-3.4891,-3.5538,-3.5959,-3.6424,0.0,0.0,0.0,0.0,0.0,0.0,-1.4871,-1.4839,-1.5308,-1.6721,-1.6892,-1.7398,-1.8754,-1.9058,-1.9317,-1.9639,-1.9076,0.0,0.0,0.0,0.0,0.0,0.0,0.0,0.0,0.0,-1.7511,-1.7078,-1.7959,-1.8534,-1.8797,-1.9356,-1.9617,-1.9552,0.0,0.0,0.0,0.0,0.0,0.0,0.0,0.0,-1.6127,0.0,0.0,0.0,0.0,0.0,0.0,0.0,0.0,0.0,0.0,-1.5229,-1.6161,-1.6662,-1.8167,-1.9831,-2.0677,-2.2304,-2.3703,-2.3441,-2.3408,-2.2994,-2.1615,-2.0577,-1.9607,-1.8541,-1.7446,-1.6507,-1.5718,-1.5004,-1.4368,-1.404,-1.3824,-1.3859,-1.4285,-1.4489,-1.4732,-1.5054,-1.5257,-1.5506,-1.565,-1.6873,-1.7836,-1.8505,-1.9729,-2.0779,-2.1453,-2.2553,-2.3319,-2.3754,-2.469,-2.5434,-2.5913,-2.7359,-2.8463,-2.9114,-3.0357,-3.1241,-3.1673,-3.1937,-3.2288,-3.2723,-3.2995,-3.324,0.0,-3.3907,-3.4076,-3.416,-3.4314,-3.4577,-3.4852,-3.5003,-3.5611,-3.6356,0.0,0.0,0.0,0.0,0.0,0.0,-1.5487,-1.5971,-1.6694,-1.7708,-1.7958,-1.835,-1.9332,-1.9406,-1.9479,-1.969,-1.9531,0.0,0.0,0.0,0.0,0.0,0.0,0.0,0.0,0.0,-1.7364,-1.6698,-1.7836,-1.8301,-1.8129,-1.9131,-1.9656,-1.9759,-1.9643,-1.9643,0.0,0.0,0.0,0.0,0.0,-1.7588,-1.6752,0.0,0.0,0.0,0.0,0.0,0.0,0.0,0.0,0.0,0.0,0.0,0.0,-1.7722,-1.8631,-1.9616,-2.0133,-2.1375,-2.2433,-2.1934,-2.2021,-2.1873,-2.0353,-1.9564,-1.8834,-1.7789,-1.681,-1.6117,-1.589,-1.5209,-1.4663,-1.4647,-1.4541,-1.4522,-1.444,-1.4808,-1.505,-1.5137,-1.595,-1.6684,-1.7071,-1.8063,-1.8922,-1.9341,-2.0201,-2.108,-2.1882,-2.2629,-2.3319,-2.3754,-2.4605,-2.5263,-2.5902,-2.6845,-2.7863,-2.8959,-2.9731,-3.0531,-3.1241,-3.1584,-3.2025,-3.2475,-3.2723,-3.3056,-3.3398,-3.3725,-3.3894,-3.416,-3.4314,-3.4577,-3.4839,-3.4839,-3.5192,-3.5681,0.0,0.0,0.0,0.0,0.0,0.0,-1.6322,-1.6838,-1.7558,-1.8446,-1.8668,-1.9096,-2.0083,-2.0064,-2.0057,-2.0295,-2.0235,0.0,0.0,0.0,0.0,0.0,0.0,0.0,-1.8266,-1.8047,-1.7619,-1.697,-1.8154,-1.8619,-1.8524,-1.9345,-1.9823,-1.9965,-2.0003,-2.0105,0.0,0.0,0.0,0.0,-1.8697,-1.8043,-1.719,0.0,0.0,0.0,0.0,0.0,0.0,0.0,0.0,0.0,0.0,0.0,0.0,0.0,-1.8708,-1.9114,-1.9879,-2.0889,-2.1733,-2.1593,-2.1518,-2.1173,-2.0053,-1.9068,-1.8159,-1.7058,-1.6232,-1.5683,-1.5642,-1.5322,-1.505,-1.4993,-1.5204,-1.5197,-1.4864,-1.5389,-1.5718,-1.5814,-1.6622,-1.739,-1.8164,-1.8944,-1.9652,-2.0149,-2.0738,-2.1465,-2.2167,-2.2882,-2.3406,-2.3754,-2.4605,-2.5168,-2.5636,-2.6518,-2.7442,-2.8231,-2.9198,-2.9985,-3.0589,-3.1223,-3.1761,-3.2113,-3.2463,-3.281,0.0,-3.3556,-3.381,-3.3992,-3.4314,-3.4481,-3.466,-3.4756,-3.5003,-3.5318,0.0,0.0,0.0,0.0,0.0,0.0,0.0,-1.7593,-1.8095,-1.8976,-1.9134,-1.9623,-2.0795,-2.0753,-2.0792,-2.1131,-2.0959,0.0,0.0,0.0,0.0,0.0,0.0,0.0,-1.7855,-1.8176,-1.8154,-1.781,-1.8714,-1.9319,-1.9554,-1.9862,-2.0093,-2.0233,-2.0372,-2.0523,0.0,0.0,0.0,0.0,-1.9436,-1.8494,0.0,0.0,0.0,0.0,0.0,0.0,0.0,0.0,0.0,0.0,0.0,0.0,0.0,0.0,0.0,0.0,0.0,-2.0625,-2.1244,-2.1893,-2.1543,-2.0877,-2.0369,-1.8993,0.0,-1.6527,-1.5798,-1.5325,-1.521,-1.5391,-1.5453,-1.5292,-1.569,-1.5928,-1.5729,-1.6061,-1.6617,-1.7,-1.7294,-1.7855,-1.8938,-1.9555,-2.021,-2.0824,-2.1432,-2.1909,-2.2441,-2.3144,-2.358,-2.3841,-2.469,-2.52,-2.52,-2.6332,-2.7097,-2.7312,-2.8733,-2.9565,-2.9834,-3.0755,-3.1359,-3.1749,-3.2213,-3.2475,-3.2711,-3.3386,-3.3713,-3.3713,-3.423,-3.4397,-3.4397,-3.4673,-3.4921,-3.5168,0.0,0.0,0.0,0.0,0.0,0.0,0.0,0.0,0.0,0.0,-2.0061,-2.0131,-2.0223,-2.0228,-2.0142,0.0,0.0,0.0,0.0,0.0,0.0,0.0,0.0,0.0,-1.8169,-1.817,-1.7977,-1.763,-1.8675,-1.9083,-1.8856,-1.9635,-2.0131,-2.0372,-2.0686,-2.1033,0.0,0.0,0.0,0.0,-1.985,-1.8961,0.0,0.0,0.0,0.0,-1.5519,-1.562,0.0,0.0,0.0,0.0,0.0,0.0,0.0,0.0,-1.9206,-1.8948,-1.8988,0.0,-1.9413,-1.9717,-2.004,-2.0091,0.0,-1.8655,-1.7925,-1.6769,-1.6257,-1.5996,-1.5952,-1.5767,-1.5806,-1.6199,-1.6393,-1.6393,-1.6291,-1.646,-1.6961,-1.776,-1.8255,-1.8936,-1.9869,-2.065,-2.1159,-2.1505,-2.1774,-2.2274,-2.2872,-2.3319,-2.3677,-2.411,-2.4775,-2.52,-2.52,-2.6005,-2.6679,-2.7312,-2.777,-2.8614,-2.9822,-3.0291,-3.0914,-3.1749,-3.2213,-3.2475,-3.2723,-3.3227,-3.3556,-3.3725,-3.4076,-3.4243,-3.4397,-3.4481,-3.4743,-3.5086,0.0,0.0,0.0,0.0,0.0,0.0,0.0,0.0,0.0,0.0,-2.0376,-2.0222,-2.0145,-1.9982,-1.9859,0.0,0.0,0.0,0.0,0.0,0.0,0.0,0.0,-1.8634,-1.8293,-1.8349,-1.8216,-1.7884,-1.8848,-1.9209,-1.9092,-1.9838,-2.0271,-2.051,-2.1019,-2.1471,0.0,0.0,0.0,-2.0746,-2.0144,0.0,0.0,0.0,0.0,0.0,-1.6193,-1.6471,0.0,-1.7937,-1.8578,-1.9088,0.0,0.0,0.0,0.0,-1.9379,-1.8827,-1.8849,-1.8759,-1.8698,-1.8873,-1.9155,-1.9323,-1.8902,-1.834,-1.7728,-1.6867,-1.651,-1.6299,-1.6121,-1.6187,-1.6351,-1.6703,-1.6882,-1.6985,-1.7037,-1.7017,-1.7351,-1.8244,-1.8717,-1.9479,-2.0589,-2.1185,-2.1651,-2.1998,-2.2353,-2.2706,-2.3047,-2.359,-2.3937,-2.4368,-2.4871,-2.52,-2.52,-2.5801,-2.6362,-2.6965,-2.7347,-2.7986,-2.8965,-2.9456,-3.006,-3.0679,-3.1378,-3.192,-3.229,-3.3041,-3.3556,-3.3713,-3.4063,-3.441,-3.4577,-3.4577,-3.4825,-3.5236,0.0,0.0,0.0,0.0,0.0,0.0,0.0,0.0,0.0,0.0,0.0,0.0,0.0,0.0,0.0,0.0,0.0,0.0,0.0,0.0,0.0,0.0,-1.9322,-1.895,-1.8361,-1.8499,-1.8532,-1.8394,-1.9153,-1.9633,-1.9918,-2.0476,-2.0781,-2.0927,-2.145,-2.1793,0.0,-2.1841,-2.1458,-2.0944,-2.0295,0.0,0.0,0.0,0.0,0.0,0.0,0.0,0.0,-1.895,-1.9499,-1.9773,-2.0788,0.0,0.0,0.0,0.0,0.0,-1.9118,-1.9011,-1.8806,-1.894,-1.8892,-1.8927,-1.9189,-1.8455,-1.7553,-1.7184,-1.6937,-1.6618,-1.6141,-1.6555,-1.6954,-1.7005,-1.7327,-1.7584,-1.7738,-1.7627,-1.7868,-1.8622,-1.9143,-1.9945,-2.1163,-2.1618,-2.2087,-2.253,-2.2969,-2.3232,-2.3232,-2.3851,-2.4282,-2.454,-2.4956,-2.52,-2.5285,-2.5717,-2.6146,-2.6644,-2.7071,-2.7488,-2.7989,-2.868,-2.9168,-2.9421,0.0,0.0,-3.1711,-3.2742,-3.3407,-3.3713,-3.4147,-3.4577,-3.4756,-3.4756,-3.5086,-3.548,0.0,0.0,0.0,0.0,0.0,0.0,0.0,0.0,0.0,0.0,0.0,0.0,0.0,0.0,0.0,0.0,0.0,0.0,0.0,0.0,0.0,-1.9419,-1.8849,-1.851,-1.8487,-1.8285,-1.8574,-1.9388,-1.9897,-2.0494,-2.123,-2.1925,-2.2283,-2.2377,-2.2076,-2.1949,-2.1996,-2.1746,-2.1375,-2.0934,-2.0258,0.0,0.0,0.0,0.0,0.0,0.0,0.0,0.0,-1.9711,-2.0172,-2.0434,-2.1918,0.0,0.0,0.0,0.0,0.0,-1.9738,-1.9527,-1.948,-1.9306,-1.9693,-2.006,-1.9991,-1.9394,-1.8813,-1.8419,-1.7909,-1.7396,-1.7008,-1.6926,-1.7058,-1.7585,-1.783,-1.7971,-1.7951,-1.8121,-1.8533,-1.9236,-1.9987,-2.0833,-2.1841,-2.2315,-2.2803,-2.3329,-2.3406,-2.359,-2.4024,-2.411,-2.4368,-2.4871,-2.5031,-2.5369,-2.5812,-2.6063,-2.6396,-2.6809,-2.6888,-2.7315,-2.7989,-2.8286,-2.8806,-2.9397,0.0,-3.0725,-3.1674,-3.2256,-3.298,-3.3725,-3.4063,-3.441,-3.4756,-3.4756,-3.5154,-3.5723,0.0,0.0,0.0,0.0,0.0,0.0,0.0,0.0,0.0,0.0,0.0,0.0,0.0,0.0,0.0,0.0,0.0,0.0,0.0,0.0,-1.9198,-1.9052,-1.8899,-1.8794,-1.8834,-1.878,-1.9105,-1.9782,-2.0382,-2.1008,-2.1648,-2.2181,-2.2512,-2.2663,-2.2069,-2.1746,-2.165,-2.1299,-2.0908,-2.0409,0.0,0.0,0.0,0.0,0.0,0.0,0.0,0.0,0.0,0.0,-2.0315,-2.0651,-2.2283,0.0,0.0,0.0,0.0,0.0,-2.0299,-2.0076,-1.9896,-1.961,-1.9788,-1.9949,-1.9877,-1.9501,-1.9162,-1.8844,-1.8446,-1.8038,-1.7549,-1.7515,-1.7667,-1.7856,-1.7929,-1.8108,-1.8305,-1.8594,-1.8968,-1.9782,-2.0467,-2.1256,-2.2226,-2.2746,-2.3144,-2.3667,-2.3937,-2.411,-2.4368,-2.454,-2.4786,-2.5295,-2.52,-2.5538,-2.6313,-2.624,-2.6396,-2.6891,-2.6891,-2.7099,-2.7575,-2.7647,-2.8022,-2.8598,0.0,-2.9892,-3.0848,-3.1847,-3.2713,-3.329,-3.403,-3.4577,-3.5003,-3.5331,-3.567,-3.5978,0.0,0.0,0.0,0.0,0.0,0.0,0.0,0.0,0.0,0.0,0.0,0.0,0.0,0.0,0.0,0.0,0.0,0.0,0.0,0.0,-1.8744,-1.8691,-1.8978,-1.9078,-1.9078,-1.9239,-1.961,-2.0134,-2.0882,-2.1618,-2.2407,-2.2644,-2.2797,-2.2834,-2.2081,-2.1594,-2.1215,-2.0858,-2.0396,-1.985,0.0,0.0,0.0,0.0,0.0,0.0,0.0,0.0,0.0,0.0,0.0,0.0,0.0,0.0,0.0,-2.3031,-2.227,-2.1275,-2.074,-2.0368,-1.999,-1.9746,-1.9746,-1.9915,-1.9831,-1.9669,-1.9419,-1.928,-1.8967,-1.8625,-1.8044,-1.7988,-1.8118,-1.81,-1.8168,-1.8297,-1.8748,-1.8993,-1.9477,-2.0292,-2.1029,-2.1759,-2.2617,-2.3113,-2.358,-2.4013,-2.4358,-2.454,-2.4625,-2.47,-2.5041,-2.5475,-2.5295,-2.5622,-2.6479,-2.6313,-2.649,-2.6974,-2.6891,-2.6985,-2.7231,-2.7219,-2.7464,-2.7916,-2.8374,-2.9114,-3.0121,-3.1347,-3.2257,-3.2834,-3.3897,-3.4624,-3.5249,-3.5831,-3.599,-3.5853,0.0,0.0,0.0,0.0,0.0,0.0,0.0,0.0,0.0,0.0,0.0,0.0,0.0,0.0,0.0,0.0,0.0,0.0,0.0,0.0,-1.8572,-1.8422,-1.8867,-1.9123,-1.9099,-1.9274,-1.9886,-2.0828,-2.1474,-2.2789,-2.4587,-2.4272,-2.3888,-2.33,-2.2559,-2.1726,-2.0795,-2.0573,-2.0118,-1.9604,-1.9146,0.0,0.0,0.0,0.0,0.0,0.0,0.0,0.0,0.0,0.0,0.0,0.0,0.0,-2.3443,-2.3844,-2.3272,-2.2238,-2.0968,-2.0214,-1.9633,-1.9305,-2.0043,-2.073,-2.0556,-2.0328,-2.0108,-2.0123,-1.9541,-1.8889,-1.8635,-1.8276,-1.8117,-1.8485,-1.8545,-1.8766,-1.9314,-1.9639,-2.013,-2.1044,-2.1702,-2.2475,-2.3317,-2.3831,-2.4282,-2.4786,-2.4615,-2.4625,-2.4861,-2.4615,-2.47,-2.52,-2.52,-2.5538,-2.6229,-2.624,-2.6573,-2.7149,-2.6974,-2.6985,-2.7231,-2.7371,-2.7615,-2.7893,-2.8146,-2.8928,-3.0059,-3.0511,-3.1331,-3.2281,-3.3485,-3.4525,-3.5399,-3.5912,-3.5557,-3.4974,0.0,0.0,0.0,0.0,0.0,0.0,0.0,0.0,0.0,0.0,0.0,0.0,0.0,0.0,0.0,0.0,0.0,0.0,0.0,-1.8119,-1.8247,-1.8205,-1.8509,-1.892,-1.9483,-1.9801,-2.0427,-2.1233,-2.2285,-2.3456,-2.4637,-2.4229,-2.3879,-2.3501,-2.2658,-2.176,-2.0849,-2.0431,-1.9821,-1.9052,-1.8732,-1.833,0.0,0.0,0.0,0.0,0.0,0.0,0.0,0.0,-2.0504,-2.1063,-2.2782,-2.3259,-2.3245,-2.3778,-2.3135,-2.2039,-2.091,-2.0036,-1.9284,-1.8952,-1.9287,-1.987,-2.0362,-2.0217,-2.0091,-2.0245,-1.9659,-1.9053,-1.8583,-1.8449,-1.8425,-1.8562,-1.8793,-1.917,-1.9809,-2.0043,-2.0629,-2.1641,-2.2108,-2.2698,-2.357,-2.3841,-2.4186,-2.4615,-2.4871,-2.4946,-2.4861,-2.4946,-2.5031,-2.52,-2.4934,-2.5035,-2.5612,-2.5326,-2.5494,-2.6052,-2.6678,-2.6974,-2.6974,-2.7219,-2.7557,-2.7893,-2.7962,-2.8551,-2.9475,-3.0127,-3.0867,-3.1703,-3.3436,-3.4353,-3.4741,-3.5775,-3.5935,-3.5596,0.0,0.0,0.0,0.0,0.0,0.0,0.0,0.0,0.0,0.0,0.0,0.0,0.0,0.0,0.0,0.0,0.0,0.0,-1.795,-1.8012,-1.8084,-1.8084,-1.8329,-1.8849,-1.9677,-2.0171,-2.0777,-2.1474,-2.2714,-2.3675,-2.4305,-2.408,-2.3731,-2.3283,-2.2639,-2.1818,-2.0903,-2.036,-1.9697,-1.9036,-1.8642,-1.82,0.0,0.0,0.0,0.0,0.0,0.0,0.0,0.0,-2.0836,-2.1415,-2.2812,-2.3214,-2.3257,-2.3599,-2.2907,-2.1791,-2.0719,-1.9663,-1.8824,-1.855,-1.8545,-1.8822,-1.9672,-1.9863,-1.9942,-2.0029,-1.9548,-1.8913,-1.8362,-1.8422,-1.8631,-1.8667,-1.9016,-1.9574,-2.0218,-2.0527,-2.0988,-2.198,-2.2353,-2.2882,-2.3754,-2.3841,-2.4186,-2.47,-2.4946,-2.5115,-2.5126,-2.5115,-2.5052,-2.4977,-2.4607,-2.4538,-2.4864,-2.4549,-2.4701,-2.5161,-2.5926,-2.6506,-2.6816,-2.7059,-2.7406,-2.7893,-2.8042,-2.851,-2.9155,-2.9774,-3.0577,-3.1604,-3.3106,-3.3859,-3.4165,-3.5248,-3.5582,-3.5391,0.0,0.0,0.0,0.0,0.0,0.0,0.0,0.0,0.0,0.0,0.0,0.0,0.0,0.0,0.0,0.0,0.0,0.0,-1.8205,-1.8119,-1.8084,-1.8084,-1.8475,-1.8987,-1.9677,-2.0171,-2.0862,-2.1698,-2.2653,-2.339,-2.3891,-2.4028,-2.3586,-2.27,-2.2585,-2.1938,-2.0949,-2.0324,-1.9872,-1.9535,-1.8892,-1.8625,-1.8513,0.0,0.0,0.0,0.0,0.0,0.0,0.0,-2.0717,-2.1877,-2.2383,-2.2989,-2.354,-2.3462,-2.2702,-2.1616,-2.042,-1.9177,-1.8252,-1.8246,-1.7877,-1.7725,-1.8743,-1.9478,-1.9863,-1.9645,-1.9091,-1.854,-1.8049,-1.8348,-1.8633,-1.8776,-1.9329,-1.9961,-2.0602,-2.0916,-2.1275,-2.2008,-2.2539,-2.3057,-2.3754,-2.4024,-2.4454,-2.5115,-2.5031,-2.5115,-2.5559,-2.5115,-2.4809,-2.4498,-2.4261,-2.4214,-2.4205,-2.4194,-2.4342,-2.4714,-2.4971,-2.5565,-2.653,-2.6913,-2.7364,-2.7881,-2.8351,-2.8736,-2.9131,-2.9341,-3.0367,-3.1913,-3.2309,-3.2974,-3.3783,-3.4532,-3.4448,-3.4041,0.0,0.0,0.0,0.0,0.0,0.0,0.0,0.0,0.0,0.0,0.0,0.0,0.0,0.0,0.0,0.0,0.0,0.0,-1.8891,-1.8626,-1.8356,-1.8084,-1.8475,-1.9045,-1.9842,-2.0871,-2.1708,-2.2173,-2.2726,-2.321,-2.3688,-2.3628,-2.3408,-2.2993,-2.272,-2.2256,-2.1621,-2.117,-2.049,-1.9749,-1.9684,-1.9385,-1.8946,0.0,0.0,0.0,0.0,0.0,0.0,0.0,0.0,0.0,-2.3351,-2.3165,-2.2805,-2.3098,-2.2237,-2.0973,-2.0256,-1.9177,-1.8184,-1.8109,-1.7812,-1.7649,-1.8188,-1.8683,-1.8922,-1.8523,-1.8193,-1.7946,-1.7979,-1.8237,-1.8604,-1.8891,-1.9443,-1.9983,-2.0365,-2.0727,-2.1275,-2.2008,-2.2362,-2.2882,-2.3754,-2.3841,-2.4186,-2.4946,-2.5031,-2.5062,-2.4836,-2.4711,-2.4405,-2.3798,-2.3391,-2.3229,-2.3239,-2.3142,-2.3351,-2.3718,-2.3955,-2.463,-2.5789,-2.6368,-2.6927,-2.7328,-2.7877,-2.8431,-2.9131,-2.9819,-3.0381,-3.0957,-3.2074,-3.2657,-3.2948,-3.3846,-3.4172,-3.4203,0.0,0.0,0.0,0.0,0.0,0.0,0.0,0.0,0.0,0.0,0.0,-1.7909,0.0,0.0,0.0,0.0,0.0,0.0,0.0,-1.8975,-1.8612,-1.8492,-1.8691,-1.9241,-2.0299,-2.1436,-2.2123,-2.242,-2.2665,-2.303,-2.3378,-2.3271,-2.3203,-2.3232,-2.2997,-2.269,-2.2323,-2.1861,-2.1211,-2.0442,-2.0192,-1.9819,-1.939,0.0,0.0,0.0,0.0,0.0,0.0,0.0,0.0,0.0,-2.3593,-2.3424,-2.3028,-2.3056,-2.2213,-2.1105,-2.0406,-1.9502,-1.8745,-1.8302,-1.8079,-1.7826,-1.7743,-1.804,-1.8201,-1.7951,-1.7708,-1.7663,-1.7787,-1.814,-1.8597,-1.8879,-1.943,-1.9845,-2.011,-2.0555,-2.1096,-2.183,-2.2176,-2.2784,-2.3754,-2.3841,-2.4176,-2.4946,-2.5115,-2.5082,-2.4798,-2.4662,-2.42,-2.3403,-2.3029,-2.2709,-2.2608,-2.2616,-2.2852,-2.3446,-2.3519,-2.4066,-2.4967,-2.5712,-2.6384,-2.7172,-2.7818,-2.8355,-2.8811,-2.9656,-3.0035,-3.0162,-3.1589,-3.2128,-3.227,-3.3225,-3.3669,-3.3909,0.0,0.0,-1.7931,-1.7105,0.0,0.0,0.0,0.0,0.0,-1.6807,-1.7323,-1.7865,0.0,0.0,0.0,-2.0207,-2.0259,-2.0169,0.0,0.0,-1.9045,-1.9192,-1.9125,-1.9715,-2.0995,-2.181,-2.2309,-2.2482,-2.2616,-2.2848,-2.3078,-2.3019,-2.3133,-2.3489,-2.3335,-2.3168,-2.3015,-2.2534,-2.2029,-2.144,-2.0582,-2.0123,-1.997,-1.9556,0.0,0.0,0.0,0.0,0.0,0.0,0.0,0.0,-2.3466,-2.3686,-2.3695,-2.3185,-2.2482,-2.1569,-2.0666,-2.0124,-1.9563,-1.8879,-1.8506,-1.8222,-1.7552,-1.7465,-1.7538,-1.7619,-1.7383,-1.7343,-1.7443,-1.7969,-1.8423,-1.8629,-1.9167,-1.9671,-1.9845,-2.0292,-2.0925,-2.1562,-2.2087,-2.2706,-2.3667,-2.3754,-2.4176,-2.5115,-2.5158,-2.5101,-2.5131,-2.48,-2.4196,-2.3073,-2.2896,-2.2608,-2.2402,-2.2402,-2.2777,-2.3593,-2.3604,-2.3824,-2.4212,-2.495,-2.5955,-2.7148,-2.7936,-2.8319,-2.8408,-2.9163,-2.9535,-2.9661,-3.1061,-3.1609,-3.1736,-3.2705,-3.3104,-3.332,0.0,0.0,-1.8063,-1.734,0.0,0.0,0.0,0.0,-1.6591,-1.6761,-1.7323,-1.781,-1.8104,-1.8922,0.0,-2.0492,-2.0781,-2.0972,-2.1091,0.0,-2.0229,-1.9982,-2.0417,-2.1104,-2.187,-2.2372,-2.2678,-2.2787,-2.286,-2.2969,-2.309,-2.3294,-2.3441,-2.3513,-2.3608,-2.3658,-2.3568,-2.3329,-2.2905,-2.2277,-2.1725,-2.1192,-2.0603,-2.0031,-1.9817,0.0,0.0,0.0,0.0,0.0,0.0,0.0,-2.3819,-2.3347,-2.2807,-2.2905,-2.2043,-2.1023,-2.0853,-2.0522,-2.0038,-1.9419,-1.8623,-1.7929,-1.7286,-1.6812,-1.6492,-1.664,-1.6484,-1.6436,-1.6784,-1.7298,-1.7818,-1.8084,-1.8787,-1.9379,-1.9671,-2.0119,-2.0654,-2.1392,-2.1919,-2.2539,-2.3503,-2.3667,-2.4176,-2.5115,-2.487,-2.4641,-2.4661,-2.4021,-2.3457,-2.28,-2.2551,-2.2433,-2.2402,-2.2553,-2.2852,-2.3372,-2.3519,-2.3824,-2.4212,-2.4779,-2.5779,-2.7148,-2.7936,-2.8408,-2.8572,-2.9238,-2.967,-3.0077,-3.1135,-3.1683,-3.1904,-3.2364,-3.2681,-3.2908,0.0,0.0,0.0,0.0,0.0,0.0,0.0,0.0,-1.6751,-1.6853,-1.7479,-1.7975,-1.8159,-1.8976,0.0,0.0,-2.0986,-2.1319,-2.1443,-2.1131,-2.0855,-2.0783,-2.1416,-2.2007,-2.2543,-2.286,-2.3042,-2.315,-2.315,-2.309,-2.303,-2.3356,-2.356,-2.3765,-2.3972,-2.3998,-2.3986,-2.3795,-2.3431,-2.2857,-2.2393,-2.1911,-2.1463,-2.1006,-2.0551,-2.0254,-2.0931,0.0,0.0,0.0,0.0,0.0,0.0,0.0,-2.309,-2.3145,-2.271,-2.2056,-2.1631,-2.1576,-2.1393,-2.033,-1.9195,-1.8103,-1.7294,-1.6476,-1.5914,-1.5824,-1.5741,-1.5929,-1.636,-1.6736,-1.7139,-1.7663,-1.8126,-1.8506,-1.9051,-1.9398,-1.992,-2.0736,-2.125,-2.1845,-2.2699,-2.3038,-2.3543,-2.4293,-2.4246,-2.4148,-2.4148,-2.372,-2.3275,-2.2713,-2.2628,-2.2553,-2.2553,-2.2628,-2.2927,-2.3298,-2.3519,-2.3824,-2.4223,-2.5021,-2.5872,-2.6783,-2.7332,-2.78,-2.8076,-2.8467,-2.9014,-2.9673,-3.0785,-3.1489,-3.1963,-3.2228,-3.2431,-3.2602,0.0,0.0,0.0,0.0,0.0,0.0,0.0,0.0,0.0,-1.7168,-1.7744,-1.8193,-1.829,-1.8979,-1.9684,0.0,0.0,0.0,-2.1549,-2.1358,-2.1289,-2.1548,-2.2104,-2.2604,-2.303,-2.3343,-2.3463,-2.3463,-2.3463,-2.3321,-2.3131,-2.3429,-2.3793,-2.4037,-2.433,-2.4398,-2.434,-2.4143,-2.3827,-2.3257,-2.2811,-2.2445,-2.2098,-2.1882,-2.1272,-2.0632,-2.1282,-2.1245,-2.1128,-2.1993,0.0,0.0,0.0,0.0,-2.3739,-2.3524,-2.3583,-2.3496,-2.2674,-2.2685,-2.2645,-2.1253,-1.9847,-1.8488,-1.7342,-1.6339,-1.5501,-1.5068,-1.5159,-1.5482,-1.6022,-1.6204,-1.6503,-1.7226,-1.7406,-1.77,-1.8387,-1.8629,-1.9153,-2.0023,-2.0614,-2.1182,-2.1846,-2.2267,-2.2768,-2.3426,-2.3594,-2.3688,-2.3678,-2.3569,-2.334,-2.2713,-2.2703,-2.2703,-2.2628,-2.2628,-2.2852,-2.3224,-2.3519,-2.3824,-2.4223,-2.5281,-2.5937,-2.6177,-2.6554,-2.7015,-2.7422,-2.7528,-2.81,-2.9015,-3.009,-3.1047,-3.1802,-3.2033,-3.2218,-3.2417,0.0,0.0,0.0,0.0,0.0,0.0,0.0,0.0,0.0,0.0,-1.8182,-1.8367,-1.8356,-1.8457,-1.8951,-2.006,-2.0375,-2.1052,-2.2213,0.0,0.0,-2.2077,-2.2372,-2.2896,-2.3509,-2.37,-2.3832,-2.3832,-2.3641,-2.3644,-2.3829,-2.4048,-2.4124,-2.4169,-2.4783,-2.4886,-2.4684,-2.4541,-2.4207,-2.3731,-2.3146,-2.2528,-2.1995,-2.1734,-2.1505,-2.1534,-2.206,-2.2521,-2.2869,-2.3126,-2.3477,0.0,0.0,0.0,-2.3969,-2.3904,-2.3755,-2.3471,-2.3333,-2.296,-2.2357,-2.1566,-2.0158,-1.8679,-1.7599,-1.6233,-1.5139,-1.4844,-1.4734,-1.4915,-1.5223,-1.5616,-1.6156,-1.6652,-1.7164,-1.77,-1.8387,-1.8646,-1.9084,-1.9768,-2.0428,-2.1089,-2.1846,-2.2267,-2.2768,-2.3426,-2.3287,-2.3257,-2.3425,-2.3253,-2.2992,-2.2703,-2.2703,-2.2628,-2.2478,-2.2478,-2.2628,-2.3075,-2.3593,-2.3897,-2.3993,-2.4688,-2.5252,-2.5734,-2.6079,-2.6518,-2.712,-2.7448,-2.794,-2.8556,-2.9565,-3.0432,-3.1168,-3.1537,-3.1993,-3.2417,0.0,0.0,0.0,0.0,0.0,0.0,0.0,0.0,0.0,0.0,0.0,-1.853,-1.8259,-1.8391,-1.8794,-1.9503,-2.0003,-2.084,-2.2015,-2.2223,0.0,-2.2604,-2.2957,-2.3378,-2.3865,-2.4157,-2.4216,-2.4144,-2.4281,-2.4278,-2.4253,-2.4651,-2.4718,-2.4554,-2.4917,-2.4992,-2.4801,-2.4574,-2.4273,-2.3909,-2.3734,-2.3312,-2.28,-2.3112,-2.2959,-2.2709,-2.3369,-2.3509,-2.3375,-2.3569,-2.3653,-2.3597,-2.3895,0.0,0.0,0.0,-2.433,-2.4489,-2.4431,-2.3956,-2.3234,-2.2135,-2.0686,-1.9155,-1.7952,-1.6532,-1.5418,-1.5018,-1.4824,-1.4734,-1.4824,-1.5106,-1.5445,-1.6225,-1.6683,-1.7107,-1.7779,-1.8121,-1.8619,-1.9279,-1.9842,-2.041,-2.1123,-2.1541,-2.2025,-2.2486,-2.2531,-2.2645,-2.2863,-2.2746,-2.2628,-2.2553,-2.2553,-2.2478,-2.2402,-2.2402,-2.2628,-2.3001,-2.3519,-2.3824,-2.3909,-2.4418,-2.4978,-2.5639,-2.5751,-2.619,-2.684,-2.6929,-2.7467,-2.8343,-2.9088,-2.9961,-3.0905,-3.1273,-3.1653,-3.2009,0.0,0.0,0.0,0.0,0.0,0.0,0.0,0.0,0.0,0.0,0.0,-1.8971,-1.8462,0.0,0.0,0.0,-1.9633,-2.0347,-2.1542,0.0,0.0,0.0,0.0,-2.387,-2.4439,-2.4731,-2.4842,-2.48,-2.5056,-2.5101,-2.4847,-2.5169,-2.5228,-2.5103,-2.5085,-2.4992,-2.4801,-2.4702,-2.4384,-2.4062,-2.4321,-2.4062,-2.3563,-2.4097,-2.401,-2.3686,-2.437,-2.4351,-2.3944,-2.4232,-2.4097,-2.3792,-2.4179,-2.4425,0.0,0.0,0.0,-2.5312,-2.5182,-2.4766,-2.4062,-2.2656,-2.1261,-1.9781,-1.8343,-1.6907,-1.5769,-1.5226,-1.5018,-1.4901,-1.4901,-1.4901,-1.5151,-1.6004,-1.6319,-1.6722,-1.7383,-1.7878,-1.8353,-1.8993,-1.9399,-1.9951,-2.0644,-2.0964,-2.1359,-2.1807,-2.1959,-2.2187,-2.2327,-2.2402,-2.2402,-2.2327,-2.2327,-2.2327,-2.2252,-2.2327,-2.2478,-2.2852,-2.3298,-2.3604,-2.3824,-2.4273,-2.4856,-2.5366,-2.5415,-2.5841,-2.6488,-2.6614,-2.724,-2.8205,-2.8831,-2.9714,-3.069,-3.0989,-3.1307,-3.1683,0.0,0.0,0.0,0.0,0.0,0.0,0.0,0.0,0.0,0.0,0.0,-1.9855,-1.9386,-1.8933,-1.8851,-1.9176,-1.9093,-1.9541,-2.0858,0.0,0.0,0.0,0.0,0.0,-2.5316,-2.5553,-2.5821,-2.6201,-2.6118,-2.6046,-2.5985,-2.5519,-2.5494,-2.5791,-2.5324,-2.4992,-2.4825,-2.5063,-2.4814,-2.4267,-2.4581,-2.432,-2.3785,-2.3817,-2.3966,-2.4104,-2.4546,-2.4982,-2.5358,-2.5524,-2.5396,-2.5106,-2.5129,-2.5107,-2.5075,0.0,0.0,0.0,-2.5312,-2.5052,-2.4434,-2.3097,-2.1756,-2.0278,-1.8571,-1.7252,-1.6162,-1.5348,-1.5264,-1.5394,-1.5394,-1.5394,-1.5567,-1.6004,-1.6409,-1.6894,-1.7619,-1.8112,-1.8594,-1.9222,-1.9627,-2.0177,-2.0789,-2.1118,-2.1359,-2.1807,-2.1959,-2.2101,-2.2101,-2.2327,-2.2327,-2.2101,-2.2101,-2.2025,-2.1807,-2.2025,-2.2252,-2.2478,-2.3001,-2.3446,-2.3677,-2.42,-2.4585,-2.4837,-2.5159,-2.5572,-2.5984,-2.6889,-2.7538,-2.7965,-2.8846,-2.9718,-3.0415,-3.0618,-3.1076,-3.1609,0.0,0.0,0.0,0.0,0.0,0.0,0.0,0.0,0.0,0.0,0.0,0.0,0.0,-1.8868,-1.8639,-1.8997,-1.9426,0.0,0.0,0.0,0.0,0.0,0.0,0.0,-2.573,-2.5988,-2.6081,-2.6122,-2.6317,-2.6336,-2.6087,-2.6043,-2.6233,-2.6544,-2.5961,-2.5624,-2.5453,-2.58,-2.5569,-2.5013,-2.5273,-2.5087,-2.4743,-2.5398,-2.5615,-2.5787,-2.6374,-2.6385,-2.6174,-2.6336,-2.6027,-2.5581,-2.5634,-2.5819,-2.5905,-2.5937,-2.5814,-2.5688,-2.5688,-2.5407,-2.4838,-2.3467,-2.2146,-2.073,-1.9061,-1.7862,-1.6835,-1.6268,-1.6226,-1.616,-1.5936,-1.5837,-1.5997,-1.6409,-1.6976,-1.7456,-1.787,-1.8434,-1.8922,-1.9478,-1.9706,-2.0071,-2.0394,-2.0526,-2.0687,-2.1008,-2.1094,-2.1292,-2.1492,-2.1578,-2.1655,-2.1731,-2.1578,-2.1578,-2.1578,-2.1949,-2.2176,-2.2402,-2.2852,-2.3298,-2.3604,-2.4116,-2.4502,-2.479,-2.5182,-2.5646,-2.6284,-2.6825,-2.7482,-2.8109,-2.8743,-2.9457,-3.0038,-3.0401,-3.0784,-3.1286,0.0,0.0,0.0,-2.1642,0.0,-2.1815,-2.1803,-2.1629,-2.1397,-2.0985,0.0,0.0,0.0,0.0,-1.9404,-1.9507,-2.0137,-2.0787,-2.1533,-2.2192,0.0,0.0,0.0,0.0,-2.6212,-2.6476,-2.6569,-2.6577,-2.6778,-2.6699,-2.6381,-2.6589,-2.6834,-2.6996,-2.692,-2.6624,-2.6282,-2.6657,-2.641,-2.5869,-2.6289,-2.6163,-2.584,-2.6498,-2.679,-2.6893,-2.7425,-2.7258,-2.6948,-2.72,-2.6792,-2.613,-2.6422,-2.6487,-2.6491,-2.6493,-2.6308,-2.6144,-2.6029,-2.5688,-2.5059,-2.38,-2.2639,-2.1352,-1.9603,-1.8524,-1.7782,-1.7192,-1.7088,-1.7031,-1.6784,-1.6683,-1.6613,-1.6613,-1.7083,-1.7559,-1.7821,-1.8284,-1.8752,-1.9149,-1.9371,-1.963,-1.9875,-1.9994,-2.0128,-2.0456,-2.0466,-2.0581,-2.0944,-2.1041,-2.1195,-2.1359,-2.1282,-2.1282,-2.1436,-2.1511,-2.1814,-2.2176,-2.2467,-2.2922,-2.353,-2.397,-2.4345,-2.4718,-2.4981,-2.5624,-2.642,-2.6966,-2.7653,-2.8398,-2.8956,-2.9558,-3.0028,-3.0411,-3.066,-3.0986,-2.2934,-2.2934,-2.2946,-2.2958,-2.2958,-2.2958,-2.2958,-2.2543,-2.2097,-2.1761,0.0,0.0,0.0,0.0,0.0,-2.0705,-2.1058,-2.1618,-2.2332,-2.2865,0.0,0.0,0.0,0.0,-2.6687,-2.7035,-2.7377,-2.7776,-2.759,-2.7335,-2.6969,-2.717,-2.721,-2.7046,-2.7915,-2.7973,-2.7395,-2.7601,-2.7352,-2.6895,-2.7387,-2.7375,-2.7026,-2.7063,-2.7259,-2.7469,-2.7359,-2.7536,-2.7811,-2.8248,-2.7742,-2.6903,-2.7383,-2.7219,-2.689,-2.6748,-2.6721,-2.667,0.0,0.0,0.0,-2.4092,-2.3147,-2.1981,-2.004,-1.9381,-1.8874,-1.7924,-1.7948,-1.8071,-1.8053,-1.7886,-1.7459,-1.6699,-1.6867,-1.7269,-1.7512,-1.7662,-1.7952,-1.8332,-1.8544,-1.8829,-1.9195,-1.9403,-1.9717,-2.0133,-2.0173,-2.0305,-2.0518,-2.0769,-2.0934,-2.1185,-2.1185,-2.1195,-2.1205,-2.0783,-2.0988,-2.1787,-2.1787,-2.2312,-2.3276,-2.3886,-2.4273,-2.449,-2.4718,-2.5361,-2.6469,-2.7152,-2.8077,-2.8938,-2.9566,-2.9998,-3.0444,-3.0609,-3.0698,-3.0773,-2.3616,-2.3704,-2.3767,-2.4052,-2.4101,-2.3961,-2.3704,-2.3434,-2.3043,0.0,0.0,0.0,-2.1352,-2.1054,-2.0786,-2.0492,-2.115,-2.171,-2.2125,-2.2945,-2.3783,-2.4707,-2.524,-2.5902,-2.6675,-2.6902,-2.7126,-2.7214,-2.6998,-2.685,-2.6807,-2.717,-2.7553,-2.8028,-2.8661,-2.9202,-2.953,-2.8758,-2.8191,-2.7865,-2.8187,-2.8076,-2.7774,-2.8354,-2.8499,-2.8455,-2.8547,-2.8418,-2.8232,-2.8321,-2.824,-2.7986,-2.8196,-2.7945,-2.7456,-2.7311,-2.7102,-2.6825,-2.6477,0.0,0.0,0.0,0.0,0.0,-2.0511,-1.9885,-1.9558,-1.9238,-1.9144,-1.9118,-1.9251,-1.8846,-1.8389,-1.8211,-1.8049,-1.8008,-1.8091,-1.8175,-1.8332,-1.8618,-1.8544,-1.8432,-1.8428,-1.8462,-1.8581,0.0,-1.8976,-1.9266,-1.9631,-2.0022,-2.0174,-2.0127,-2.0506,-2.0817,-2.0984,-2.0707,-2.0836,-2.13,-2.1334,-2.1775,-2.256,-2.3058,-2.3593,-2.4043,-2.4273,-2.5051,-2.6158,-2.6827,-2.7669,-2.8687,-2.9303,-2.9689,-3.0011,-3.0381,-3.0685,-3.0986,-2.4631,-2.4583,-2.4558,-2.477,-2.4613,-2.4353,-2.4144,-2.3737,-2.327,0.0,0.0,0.0,-2.22,-2.1784,-2.1559,-2.1559,-2.2105,-2.2772,-2.3274,-2.4057,-2.485,-2.5658,-2.6013,-2.6383,-2.6918,-2.699,-2.7024,-2.7024,-2.6875,-2.6922,-2.722,-2.7652,-2.8198,-2.8902,-2.9463,-2.9972,-3.0368,-2.9729,-2.9184,-2.8706,-2.9222,-2.9031,-2.8694,-2.9404,-2.95,-2.9117,-2.9128,-2.8859,-2.8536,-2.8638,-2.8757,-2.882,-2.8689,-2.8454,-2.8264,-2.7665,-2.7458,-2.7182,-2.6552,-2.6119,-2.5632,-2.4548,0.0,0.0,-2.1419,-2.0952,-2.0783,-2.0617,-2.0378,-2.0265,-2.0452,-1.9862,-1.9344,-1.9341,-1.9069,-1.8721,-1.8233,-1.8171,-1.8099,-1.809,-1.8037,-1.7943,-1.7638,-1.768,-1.7746,-1.771,-1.7942,-1.8322,-1.8732,-1.9126,-1.9286,-1.9295,-1.9778,-2.0144,-2.0399,-2.023,-2.0482,-2.1029,-2.1079,-2.1523,-2.2366,-2.2796,-2.3298,-2.3909,-2.426,-2.5021,-2.6077,-2.6671,-2.7651,-2.8657,-2.9118,-2.9521,-2.9934,-3.0292,-3.0672,-3.1061,0.0,-2.546,-2.5294,-2.5294,-2.4853,-2.4538,-2.4472,-2.3898,-2.3393,0.0,-2.3117,-2.3188,-2.307,-2.2839,-2.2839,-2.3001,-2.3496,-2.4126,-2.4893,-2.5592,-2.6218,-2.6772,-2.7005,-2.7058,-2.7172,-2.7069,-2.7007,-2.6943,-2.7007,-2.737,-2.794,-2.8497,-2.9048,-2.9622,-3.0188,-3.052,-3.052,-3.052,-3.0126,-2.9596,-3.0204,-3.0062,-2.9588,-3.036,-3.025,-2.9575,-2.9298,-2.9112,-2.8927,-2.9057,-2.9251,-2.9297,-2.8853,-2.8929,-2.8991,-2.7849,-2.7607,-2.7532,-2.6511,-2.6062,-2.5706,-2.4731,-2.4186,0.0,-2.2433,-2.2284,-2.2258,-2.1843,-2.1549,-2.1435,-2.1552,-2.0852,-2.0291,-2.0291,-1.9977,-1.9407,-1.8269,-1.792,-1.7638,-1.7373,-1.7461,-1.7323,-1.6978,-1.7028,-1.7107,-1.7126,-1.7126,-1.737,-1.7926,-1.8175,-1.8405,-1.8543,-1.8995,-1.9317,-1.9649,-1.9591,-1.9926,-2.0827,-2.0818,-2.1352,-2.2328,-2.2756,-2.3298,-2.3847,-2.4419,-2.5146,-2.6023,-2.678,-2.777,-2.8803,-2.9052,-2.9534,-3.0075,-3.0368,-3.0748,-3.1136,-2.6476,-2.644,-2.6388,-2.6388,-2.6181,-2.5828,-2.544,-2.5443,-2.5205,-2.4351,-2.3743,-2.3217,-2.2666,-2.2605,-2.2605,-2.2594,-2.3335,-2.3966,-2.45,-2.5438,-2.6142,-2.6382,-2.7039,-2.7225,-2.6793,-2.711,-2.7113,-2.6794,-2.724,-2.7659,-2.7952,-2.8895,-2.9555,-2.9978,-3.0637,-3.0973,-3.1123,-3.0973,-3.0685,-3.0484,-3.0984,-3.0658,-3.0001,-3.0814,-3.0833,-3.036,-3.009,-2.9714,-2.9376,-2.9446,-2.9342,-2.9178,-2.9211,-2.8974,-2.8561,-2.7761,-2.752,-2.736,-2.6429,-2.6062,-2.5706,-2.4949,-2.4267,0.0,-2.3004,-2.2786,-2.267,-2.2338,-2.2308,-2.2309,-2.2255,-2.173,-2.1365,-2.1502,-2.1123,-2.042,-1.9243,-1.8643,-1.8307,-1.8134,-1.7735,-1.7401,-1.7166,-1.689,-1.6709,-1.672,-1.6884,-1.7026,-1.7179,-1.7542,-1.7687,-1.7759,-1.8131,-1.8644,-1.9402,-1.9228,-1.948,-2.0124,-2.0517,-2.0964,-2.1629,-2.2232,-2.2852,-2.3479,-2.4194,-2.4983,-2.5858,-2.6936,-2.7782,-2.8578,-2.9118,-2.9521,-2.9934,-3.0609,-3.1123,-3.1569,-2.7624,-2.7418,-2.7183,-2.7015,-2.6633,-2.6377,-2.6313,-2.6226,-2.597,-2.5506,-2.4656,-2.3916,-2.3418,-2.3355,-2.3355,-2.3523,-2.4096,-2.4744,-2.5293,-2.6189,-2.6913,-2.7226,-2.7682,-2.7791,-2.7656,-2.7748,-2.7759,-2.7551,-2.803,-2.8466,-2.8833,-2.9619,-3.0194,-3.069,-3.1154,-3.1373,-3.1434,-3.1211,-3.1061,-3.0864,-3.1373,-3.1083,-3.0434,-3.1165,-3.1176,-3.06,-3.0413,-3.0142,-2.993,-3.0038,-2.9886,-2.9621,-2.9409,-2.9317,-2.9106,-2.8163,-2.7804,-2.7495,-2.668,-2.619,-2.5767,-2.5139,-2.473,0.0,0.0,-2.3886,-2.385,-2.3409,-2.33,-2.3171,-2.2858,-2.2447,-2.2149,-2.2149,-2.1614,-2.0943,-2.0317,-1.9479,-1.8695,-1.8025,-1.7945,-1.7742,-1.7273,-1.7309,-1.7157,-1.6751,-1.6872,-1.6848,-1.6768,-1.7051,-1.7202,-1.7202,-1.7608,-1.8059,-1.8563,-1.8919,-1.9353,-1.9781,-2.0546,-2.1175,-2.1616,-2.2146,-2.2777,-2.349,-2.4442,-2.5287,-2.6123,-2.7376,-2.8337,-2.8961,-2.9443,-2.9844,-3.0318,-3.0836,-3.1347,-3.1936,-2.8651,-2.8249,-2.7776,-2.7403,-2.685,-2.6615,-2.7026,-2.6698,-2.633,-2.6352,-2.5436,-2.4691,-2.4241,-2.4206,-2.4323,-2.4567,-2.5083,-2.571,-2.6473,-2.7215,-2.7906,-2.8414,-2.8463,-2.8507,-2.8611,-2.8547,-2.8489,-2.8448,-2.8924,-2.9437,-2.9965,-3.0375,-3.0897,-3.1495,-3.1669,-3.1757,-3.1669,-3.1508,-3.1338,-3.1235,-3.165,-3.1399,-3.0864,-3.1438,-3.1266,-3.0694,-3.06,-3.0492,-3.0465,-3.0532,-3.0376,-3.0224,-2.9664,-2.9737,-2.982,-2.8709,-2.8101,-2.7643,-2.6929,-2.6387,-2.584,-2.5336,-2.5182,-2.5111,0.0,0.0,0.0,-2.4345,-2.4226,-2.4014,-2.3376,-2.3022,-2.28,-2.2665,-2.2018,-2.1451,-2.1176,-2.0292,-1.9188,-1.8038,-1.8145,-1.8119,-1.7541,-1.7797,-1.7803,-1.7226,-1.7176,-1.7028,-1.6811,-1.6899,-1.6978,-1.6978,-1.7281,-1.7636,-1.7872,-1.8769,-1.9411,-1.9725,-2.0688,-2.1436,-2.1807,-2.2252,-2.2852,-2.3649,-2.4929,-2.5824,-2.6453,-2.7987,-2.8973,-2.9509,-2.9779,-3.0241,-3.0773,-3.1061,-3.1656,-3.23,-2.8702,-2.8444,-2.8105,-2.759,-2.7201,-2.6998,-2.7193,-2.7333,-2.7164,-2.6563,-2.5576,-2.4723,-2.4282,-2.4206,-2.4446,-2.5088,-2.5806,-2.6595,-2.7718,-2.8019,-2.8527,-2.9126,-2.909,-2.8876,-2.8611,-2.8912,-2.8956,-2.869,-2.9396,-2.99,-3.0342,-3.0942,-3.1516,-3.2096,-3.2096,-3.2109,-3.2109,-3.2096,-3.2024,-3.2014,-3.2175,-3.1699,-3.1005,-3.1513,-3.1537,-3.1159,-3.0518,-3.0611,-3.1038,-3.0422,-3.0352,-3.0481,-3.0046,-2.9966,-2.982,-2.8852,-2.8164,-2.7704,-2.7133,-2.6598,-2.6131,-2.584,-2.5688,-2.5535,-2.5523,0.0,-2.5465,-2.4426,0.0,-2.4583,-2.3561,0.0,0.0,-2.345,-2.2837,-2.2121,-2.1531,-2.0754,-1.9969,-1.9089,-1.8698,-1.8355,-1.8099,-1.8143,-1.8243,-1.8305,-1.8027,-1.7765,-1.7569,-1.7442,-1.7304,-1.7304,-1.7439,-1.7707,-1.8076,-1.8695,-1.9264,-1.963,-2.0688,-2.1436,-2.1807,-2.2402,-2.3001,-2.3649,-2.5082,-2.6053,-2.6769,-2.8366,-2.93,-2.9779,-3.0011,-3.0457,-3.1061,-3.1582,-3.2009,-3.2431,-2.9198,-2.8688,-2.8314,-2.7789,-2.7676,-2.769,-2.7898,-2.7901,-2.7589,-2.6823,-2.5968,-2.5295,-2.4871,-2.5188,-2.5603,-2.5957,-2.691,-2.7783,-2.8441,-2.9028,-2.9487,-2.9903,-3.0106,-3.0288,-3.0435,-3.0431,-3.0368,-3.0289,-3.0436,-3.0607,-3.0916,-3.1315,-3.173,-3.2169,-3.23,-3.23,-3.2286,-3.2241,-3.2213,-3.2259,-3.228,-3.2051,-3.1701,-3.1721,-3.1459,-3.1124,-3.0941,-3.1092,-3.1343,-3.1009,-3.1026,-3.1116,-3.0301,-3.0396,-3.0577,-2.9571,-2.9026,-2.8697,-2.8445,-2.7679,-2.6929,-2.6731,-2.64,-2.6082,-2.6233,-2.6302,-2.6138,-2.5126,0.0,0.0,0.0,0.0,0.0,0.0,-2.3141,-2.2565,-2.1933,-2.1304,-2.0482,-1.9361,-1.9216,-1.9217,-1.9186,-1.8978,-1.887,-1.8856,-1.8775,-1.8555,-1.8304,-1.8292,-1.8307,-1.824,-1.8056,-1.8027,-1.8193,-1.8874,-1.9238,-1.9412,-2.0635,-2.1436,-2.1818,-2.2766,-2.3492,-2.4149,-2.567,-2.6663,-2.7198,-2.8643,-2.9599,-3.0152,-3.0533,-3.0836,-3.1272,-3.1877,-3.2372,-3.2846,-3.0101,-2.9306,-2.8641,-2.8266,-2.8179,-2.8215,-2.8455,-2.8297,-2.7985,-2.7238,-2.6596,-2.6136,-2.5819,-2.64,-2.6921,-2.714,-2.8256,-2.9051,-2.9474,-3.0034,-3.0543,-3.0783,-3.1075,-3.1411,-3.1818,-3.1496,-3.1345,-3.15,-3.1248,-3.1211,-3.136,-3.1669,-3.1963,-3.23,-3.2503,-3.2561,-3.2489,-3.23,-3.2368,-3.2561,-3.2345,-3.213,-3.1883,-3.1604,-3.138,-3.1135,-3.1155,-3.1274,-3.1541,-3.1492,-3.1627,-3.1668,-3.081,-3.0947,-3.1248,-3.0517,-2.9948,-2.9597,-2.9535,-2.8805,-2.8011,-2.7659,-2.7234,-2.696,-2.6888,-2.6918,-2.6716,-2.5923,-2.5714,0.0,0.0,0.0,-2.4054,-2.3923,0.0,-2.3014,-2.2426,-2.1904,-2.1108,-1.9706,-1.9687,-1.9854,-2.0067,-1.9841,-1.9657,-1.9598,-1.9497,-1.9397,-1.9269,-1.9233,-1.9228,-1.9278,-1.8911,-1.8792,-1.8846,-1.9333,-1.9637,-1.9776,-2.0833,-2.1578,-2.197,-2.3111,-2.4017,-2.4616,-2.6302,-2.7226,-2.7675,-2.9052,-2.9973,-3.052,-3.1061,-3.136,-3.1569,-3.2082,-3.2588,-3.3143,-3.1588,-3.0224,-2.91,-2.9147,-2.8715,-2.8402,-2.8562,-2.8373,-2.8115,-2.7862,-2.7352,-2.7017,-2.7294,-2.7722,-2.8197,-2.8645,-2.96,-3.0437,-3.1134,-3.1207,-3.1345,-3.1794,-3.1522,-3.1562,-3.1805,-3.1562,-3.15,-3.15,-3.1399,-3.136,-3.1609,-3.2036,-3.2372,-3.2704,-3.2917,-3.2846,-3.2704,-3.2489,-3.2597,-3.2935,-3.2287,-3.1704,-3.1282,-3.1139,-3.1211,-3.1321,-3.081,-3.1211,-3.2007,-3.1776,-3.1837,0.0,0.0,-3.1755,-3.1405,-3.1421,-3.0685,-2.9805,-3.0012,-2.9653,-2.9065,-2.8516,-2.8373,-2.8134,-2.7465,-2.7403,-2.7233,-2.6518,-2.614,-2.5814,-2.5282,-2.4832,-2.4563,-2.4563,-2.4182,0.0,0.0,-2.2623,-2.1864,-2.0537,-2.0118,-2.0141,-2.0536,-2.0436,-2.0496,-2.0844,-2.0447,-2.0335,-2.0696,-2.012,-2.0035,-2.0515,-2.002,-1.9929,-2.0243,-2.0323,-2.0514,-2.0839,-2.1515,-2.1949,-2.2413,-2.3569,-2.4408,-2.5079,-2.6712,-2.7639,-2.8151,-2.9541,-3.0305,-3.0773,-3.1596,-3.1963,-3.2169,-3.2359,-3.2789,-3.3382,-3.2004,-3.1237,-3.0488,-3.0093,-2.9837,-2.9626,-2.9391,-2.8682,-2.8196,-2.8124,-2.7797,-2.7651,-2.8038,-2.8836,-2.9385,-2.97,-3.0655,-3.138,-3.1713,-3.2005,-3.2352,-3.2707,-3.2676,-3.2911,-3.3328,-3.3031,-3.279,-3.2463,-3.2359,-3.2192,-3.2036,-3.2228,-3.2489,-3.2917,-3.2988,-3.2917,-3.2704,-3.2489,-3.261,-3.2949,-3.2619,-3.2118,-3.1572,-3.1306,-3.1066,-3.0912,-3.1008,-3.1413,0.0,-3.2062,-3.2438,-3.2698,-3.2487,-3.2345,-3.2184,-3.185,-3.1363,-3.0995,0.0,0.0,-3.0201,-3.0002,-2.9379,-2.8756,-2.849,-2.8146,-2.7775,-2.7165,-2.7013,-2.6636,-2.5721,-2.5445,-2.5177,-2.4788,-2.4673,-2.4367,0.0,-2.2774,-2.2042,-2.1375,-2.0908,-2.0651,-2.0579,-2.0515,-2.0501,-2.0639,-2.0607,0.0,-2.0648,-2.0959,-2.1127,-2.1049,-2.0951,-2.0978,-2.1141,-2.1032,-2.1018,-2.1272,-2.1741,-2.2345,-2.2958,-2.4183,-2.5215,-2.6069,-2.7542,-2.8391,-2.8872,-2.9909,-3.0672,-3.1347,-3.1877,-3.2458,-3.2959,-3.2959,-3.3241,-3.3605,-3.2743,-3.2305,-3.1748,-3.0924,-3.061,-3.0394,-2.9909,-2.9028,-2.8497,-2.8869,-2.8556,-2.8568,-2.9334,-3.0068,-3.0631,-3.0783,-3.1632,-3.2101,-3.2264,-3.2711,-3.3068,-3.324,-3.3484,-3.3823,-3.4243,-3.3875,-3.3528,-3.3236,-3.2957,-3.2664,-3.2372,-3.2574,-3.2931,-3.3213,-3.3213,-3.3072,-3.2775,-3.2417,-3.2414,-3.2594,-3.2315,-3.2017,-3.1572,-3.1572,-3.1306,-3.1026,0.0,-3.1749,-3.2276,-3.2537,-3.297,-3.3335,-3.3219,-3.2989,-3.2699,-3.2488,-3.2057,-3.1757,-3.1817,-3.1535,0.0,-3.0972,-3.0355,-2.9684,-2.9187,-2.8799,-2.8344,-2.7742,-2.7511,-2.7117,-2.6283,-2.5918,-2.5697,-2.5213,-2.523,-2.5025,0.0,-2.3202,-2.2517,-2.2105,-2.1568,-2.1131,-2.0822,-2.0736,-2.0662,-2.0662,-2.0772,-2.0861,0.0,-2.1385,-2.1654,-2.1864,-2.1668,-2.1843,-2.2333,-2.1935,-2.1805,-2.2092,-2.2403,-2.2875,-2.3579,-2.4736,-2.5867,-2.6881,-2.8191,-2.8973,-2.9509,-3.0292,-3.1035,-3.1703,-3.2214,-3.2745,-3.3326,-3.3326,-3.3591,-3.421,-3.3819,-3.3367,-3.261,-3.1623,-3.1023,-3.0622,-3.0152,-2.9353,-2.91,-2.9905,-2.9725,-2.9957,-3.1187,-3.1572,-3.1837,-3.2077,-3.2438,-3.2723,-3.2711,-3.3142,-3.3398,-3.3398,-3.3907,-3.4243,-3.4397,-3.4133,-3.3874,-3.3651,-3.3274,-3.296,-3.2704,-3.3157,-3.3466,-3.3605,-3.3605,-3.3382,-3.2988,-3.2345,-3.1977,-3.1747,-3.1622,-3.144,-3.1395,-3.1849,-3.1937,-3.1749,-3.1749,-3.2376,-3.3081,-3.3154,-3.3398,-3.3797,-3.4314,-3.3695,-3.2857,-3.3405,-3.2818,-3.1963,-3.2169,-3.2255,-3.2046,-3.1477,-3.1314,0.0,-2.9632,-2.9255,-2.9053,-2.8305,-2.7833,-2.7341,-2.6972,-2.6467,-2.6084,-2.5813,-2.5839,-2.559,-2.479,-2.4009,-2.3316,-2.2729,-2.2058,-2.1554,-2.1277,-2.1082,-2.1033,-2.1033,-2.0921,-2.1159,-2.1832,-2.1524,-2.1768,-2.2881,-2.2387,-2.2592,-2.3676,-2.3033,-2.2865,-2.3338,-2.3383,-2.366,-2.4225,-2.5244,-2.638,-2.7532,-2.8675,-2.9509,-3.0114,-3.0748,-3.1347,-3.1909,-3.2489,-3.3016,-3.3312,-3.3312,-3.3991,-3.5001,-3.2657,-3.2286,-3.1846,-3.106,-3.1037,-3.0973,-3.0444,-2.9741,-2.9579,-3.0428,-3.0313,-3.0543,-3.1704,-3.2176,-3.2537,-3.2797,-3.3056,-3.33,-3.3471,-3.3556,-3.3725,-3.3907,-3.4147,-3.441,-3.4673,-3.5089,-3.4739,-3.3792,-3.4313,-3.406,-3.3157,-3.3536,-3.3758,-3.3827,-3.3675,-3.3382,-3.2988,-3.2345,-3.1991,-3.1745,-3.1785,-3.1896,-3.2125,0.0,-3.2636,-3.2723,-3.2723,-3.2896,-3.3154,-3.3823,-3.4147,-3.4314,-3.4743,-3.4193,-3.3405,-3.3715,-3.3091,-3.2286,-3.2503,-3.2431,-3.2318,-3.2167,-3.1741,-3.1219,0.0,0.0,0.0,-2.9345,-2.8971,-2.8546,-2.8049,-2.7547,-2.7111,-2.6904,-2.64,-2.5923,-2.5689,-2.4747,-2.4019,-2.3766,-2.2965,-2.2203,-2.1712,-2.1423,-2.1277,-2.1277,-2.1361,-2.1477,-2.1689,0.0,-2.2504,-2.291,-2.3086,-2.3405,-2.3839,-2.3794,-2.3644,-2.333,-2.4141,-2.468,-2.5102,-2.6236,-2.7387,-2.853,-2.9356,-3.005,-3.0609,-3.1272,-3.185,-3.2273,-3.2945,-3.3507,-3.4142,-3.4142,-3.4616,-3.5359,-3.1974,-3.1523,-3.124,-3.0878,-3.097,-3.0908,-3.057,-3.0062,-3.0065,-3.1016,-3.0976,-3.1302,-3.2475,-3.2871,-3.3056,-3.3313,-3.3471,-3.3556,-3.3713,-3.3882,-3.4063,-3.423,-3.4577,-3.4825,-3.5086,-3.548,-3.5421,-3.4712,-3.498,-3.4733,-3.4058,-3.3996,-3.4005,-3.4088,-3.3813,-3.3521,-3.3058,-3.2128,-3.1703,-3.1693,-3.168,-3.2027,0.0,-3.281,-3.3068,-3.3398,-3.3569,-3.3654,-3.3738,-3.423,-3.4564,-3.4825,-3.5236,-3.4592,-3.3792,-3.4113,-3.3389,-3.2561,-3.2704,-3.2632,-3.2561,-3.2561,-3.2242,-3.1869,-3.1609,-3.0884,-3.0115,0.0,-2.9513,-2.908,0.0,-2.8141,-2.7669,-2.7245,-2.6849,-2.6533,-2.6288,-2.5671,-2.5094,-2.4766,-2.4165,-2.3605,-2.3178,-2.2303,-2.1746,-2.1746,-2.1841,-2.1949,-2.1949,0.0,-2.2782,-2.3291,-2.3366,-2.3668,-2.43,-2.4366,-2.419,-2.3816,-2.4795,-2.5489,-2.5835,-2.6978,-2.8125,-2.925,-2.996,-3.0672,-3.1198,-3.185,-3.2359,-3.2874,-3.3507,-3.421,-3.4898,-3.4898,-3.5213,-3.5604,-3.1284,-3.0823,-3.061,-3.0858,-3.0793,-3.0758,-3.0833,-3.0522,-3.0713,-3.1678,-3.1706,-3.2136,-3.3284,-3.3484,-3.3556,-3.3725,-3.381,-3.3797,-3.3797,-3.423,-3.4481,-3.4481,-3.4908,-3.5236,-3.5399,-3.5642,-3.5782,-3.5725,-3.533,-3.5079,-3.4934,-3.4387,-3.4196,-3.4346,-3.402,-3.3591,-3.3072,-3.185,-3.1486,-3.1737,-3.1599,-3.2006,-3.2884,-3.3154,-3.3484,-3.3882,-3.4314,-3.4481,-3.4481,-3.4564,-3.4812,-3.5236,-3.5642,-3.4988,-3.4113,-3.4506,-3.3698,-3.2775,-3.2775,-3.2775,-3.2775,-3.2775,-3.2704,-3.2566,-3.2041,-3.1392,-3.0756,-3.0297,-2.9748,-2.9282,-2.8961,-2.8651,-2.8152,-2.7325,-2.7432,-2.7399,-2.6861,-2.6583,-2.6314,-2.5856,-2.5423,0.0,-2.498,-2.3488,-2.2517,-2.2517,-2.2658,-2.2765,-2.2751,0.0,-2.3164,-2.3984,-2.3585,-2.3918,-2.497,-2.4937,-2.4809,-2.4671,-2.5637,-2.6205,-2.664,-2.7702,-2.8805,-2.9858,-3.0596,-3.1272,-3.1909,-3.2345,-3.286,-3.3521,-3.421,-3.4898,-3.5504,-3.5569,-3.5668,-3.5816,-2.9513,-2.9621,-2.9956,-3.0212,-3.0667,-3.1061,-3.1368,-3.1543,-3.1772,-3.2436,-3.2769,-3.3052,-3.3564,-3.381,-3.3992,-3.3992,-3.4147,-3.4397,-3.459,-3.4673,-3.4839,-3.499,-3.5236,-3.548,-3.5642,-3.6058,-3.5917,-3.5232,-3.5504,-3.5153,-3.4286,-3.4322,-3.4264,-3.4128,-3.3813,-3.31,-3.2096,-3.1569,-3.164,-3.2233,-3.2085,-3.2574,-3.3556,-3.3979,-3.423,-3.4314,-3.4825,-3.4812,-3.4716,-3.5304,-3.5548,-3.5629,-3.6138,-3.5485,-3.452,-3.4719,-3.389,-3.2988,-3.3157,-3.3072,-3.2988,-3.2988,-3.2846,-3.2676,-3.2566,-3.1847,-3.1124,-3.1013,-3.0311,-2.9718,-2.9846,0.0,-2.9454,-2.8479,-2.8464,-2.8378,-2.783,-2.7288,-2.6879,-2.6758,-2.6023,-2.5506,-2.5473,-2.4713,-2.4244,-2.4244,-2.4404,-2.45,-2.4611,0.0,-2.4765,0.0,-2.4916,0.0,0.0,0.0,-2.5987,-2.6071,-2.6976,-2.7569,-2.8032,-2.9009,-2.9846,-3.0709,-3.132,-3.1982,-3.2561,-3.3016,-3.3577,-3.421,-3.4549,-3.4964,-3.5504,-3.5797,-3.61,-3.6367,-3.0155,-3.0193,-3.0458,-3.0813,-3.1026,-3.1361,-3.1796,-3.2163,-3.2508,-3.2922,-3.3422,-3.392,-3.4332,-3.4577,-3.466,-3.466,-3.4743,-3.4825,-3.4921,-3.5086,-3.5154,-3.5236,-3.548,-3.5642,-3.5898,-3.6232,-3.6106,-3.563,-3.5691,-3.5339,-3.4603,-3.4491,-3.4278,-3.4059,-3.3507,-3.2803,-3.2036,-3.173,0.0,-3.228,-3.2502,-3.3034,-3.3814,-3.4363,-3.4729,-3.4977,-3.5318,-3.5399,-3.548,-3.5642,-3.5884,-3.6084,-3.6097,-3.5454,-3.4663,-3.4552,-3.3884,-3.3157,-3.3241,-3.3241,-3.3157,-3.3157,-3.3086,-3.3016,-3.3157,-3.2274,-3.1471,-3.1589,-3.0779,-3.009,-3.0102,-3.0176,0.0,-2.9357,-2.9115,-2.8921,-2.8652,-2.8027,-2.7634,-2.7634,-2.7119,-2.6729,-2.6617,-2.6337,-2.581,-2.5053,-2.5125,-2.5173,-2.5202,0.0,-2.5272,0.0,0.0,0.0,-2.599,0.0,-2.7157,-2.6863,-2.8206,-2.8885,-2.9088,-3.0061,-3.0771,-3.1394,-3.1982,-3.2561,-3.3086,-3.3646,-3.4278,-3.4964,-3.5096,-3.5409,-3.5925,-3.6163,-3.6429,-3.66,-3.1079,-3.1029,-3.1034,-3.1598,-3.1498,-3.1632,-3.2146,-3.2597,-3.3041,-3.3298,-3.3913,-3.4513,-3.5019,-3.5086,-3.5086,-3.5086,-3.5086,-3.5086,-3.5154,-3.5318,-3.548,-3.5562,-3.5723,-3.5898,-3.6246,-3.6281,-3.622,-3.6019,-3.5707,-3.5296,-3.4932,-3.451,-3.421,-3.3922,-3.3199,-3.2646,0.0,0.0,-3.2003,-3.217,-3.2696,-3.3304,-3.3911,-3.4455,-3.5034,-3.548,-3.5723,-3.5978,-3.6218,-3.5894,-3.6026,-3.6194,-3.5955,-3.5348,-3.4636,-3.4307,-3.3803,-3.3326,-3.3326,-3.3326,-3.3326,-3.3326,-3.3326,-3.3396,-3.3536,-3.2727,-3.1943,-3.2011,-3.1157,-3.0348,-3.0352,-3.0562,0.0,-3.0135,-2.9855,-2.9618,-2.9377,-2.887,-2.8486,-2.8348,-2.8088,-2.789,-2.7775,-2.764,-2.7071,-2.5946,-2.5842,-2.5842,-2.5808,0.0,0.0,0.0,0.0,-2.6511,-2.6796,0.0,-2.829,-2.7902,-2.9321,-3.0017,-3.0086,-3.0961,-3.1603,-3.2055,-3.2632,-3.3086,-3.3591,-3.4264,-3.4964,-3.5504,-3.5554,-3.5861,-3.6274,-3.6414,-3.66,-3.6846,-3.0962,-3.0894,-3.1102,-3.1695,-3.1736,-3.1873,-3.2335,-3.2864,-3.3315,-3.3557,-3.4084,-3.4674,-3.5006,-3.5086,-3.5086,-3.5086,-3.5086,-3.5154,-3.5399,-3.5399,-3.5575,-3.5992,-3.6072,-3.6232,-3.6642,-3.61,-3.5807,-3.5766,-3.5139,-3.4722,-3.4433,-3.4225,-3.3854,-3.3382,-3.2931,0.0,0.0,-3.1963,-3.2064,-3.2359,-3.2412,-3.3116,-3.4206,-3.442,-3.5009,-3.5723,-3.5992,-3.6312,-3.6545,-3.6116,-3.5948,-3.5885,-3.6031,-3.5264,-3.4237,-3.4181,-3.3803,-3.3326,-3.3326,-3.3326,-3.3326,-3.3326,-3.3466,-3.3605,-3.3605,-3.3203,-3.2668,-3.2097,-3.1219,-3.0673,-3.1087,-3.1289,-3.1351,0.0,-3.1137,-3.0871,-2.9899,-2.9666,-2.9401,-2.8825,-2.8508,-2.8348,-2.8348,-2.8103,-2.791,-2.7788,-2.7425,-2.7309,-2.756,-2.7193,0.0,-2.7705,-2.7483,-2.7712,-2.8446,-2.8962,-2.9402,-2.9749,-3.0344,-3.0897,-3.1402,-3.1676,-3.22,-3.2917,-3.3157,-3.366,-3.4346,-3.4883,-3.5294,-3.5504,-3.5638,-3.6022,-3.6492,-3.6492,-3.6785,-3.7134,-3.2359,-3.2429,-3.2499,-3.2514,-3.2556,-3.2555,-3.2591,-3.2753,-3.3065,-3.3383,-3.3842,-3.4373,-3.4887,-3.4955,-3.5103,-3.5453,-3.548,-3.548,-3.5562,-3.5737,-3.5912,-3.6086,-3.6246,-3.6405,-3.6721,-3.6122,-3.5647,-3.5373,-3.491,-3.4356,-3.3937,-3.3951,-3.3744,-3.3326,0.0,-3.2704,-3.2286,-3.2214,-3.2277,-3.2434,-3.28,-3.3322,-3.3887,-3.4317,-3.4681,-3.5041,-3.5209,-3.5516,-3.5717,-3.5677,-3.5845,-3.6029,-3.5518,-3.5009,-3.4455,-3.4157,-3.3873,-3.3675,-3.3675,-3.3675,-3.3675,-3.3675,-3.3744,-3.3813,-3.3868,-3.3571,-3.3157,-3.3042,-3.2299,-3.1589,-3.1453,-3.1625,-3.1819,-3.1934,-3.1713,-3.1424,-3.1119,-3.0751,-3.0391,-3.0027,-2.9931,-2.9782,-2.9647,-2.9112,-2.8847,-2.8863,-2.8182,-2.7755,-2.779,-2.7979,0.0,-2.8193,0.0,-2.9175,-2.9651,-3.0432,-3.096,-3.1088,-3.176,-3.2113,-3.2273,-3.2588,-3.3143,-3.3839,-3.4074,-3.4481,-3.5096,-3.5294,-3.5683,-3.6131,-3.6163,-3.6414,-3.6816,-3.6907,-3.7013,-3.7254,-3.3451,-3.3536,-3.3521,-3.3213,-3.3143,-3.3002,-3.2846,-3.2775,-3.2856,-3.3065,-3.3356,-3.3778,-3.4489,-3.457,-3.4746,-3.5153,-3.5194,-3.5276,-3.5532,-3.5732,-3.5974,-3.6232,-3.6405,-3.648,-3.6521,-3.592,-3.5442,-3.4959,-3.4483,-3.4044,-3.3675,-3.3758,-3.3605,0.0,-3.3072,-3.2846,-3.2561,-3.2489,-3.2489,-3.253,-3.2942,-3.3317,-3.3624,-3.4052,-3.4389,-3.463,-3.4854,-3.5004,-3.5198,-3.5249,-3.5622,-3.5909,-3.5025,-3.4696,-3.4468,-3.4025,-3.3896,-3.3896,-3.3896,-3.3896,-3.3896,-3.3896,-3.3965,-3.402,-3.4128,-3.3984,-3.3733,-3.3612,-3.2936,-3.2199,-3.1687,-3.1853,-3.2191,-3.2453,0.0,-3.2033,-3.204,-3.1722,-3.1328,-3.1074,-3.0977,-3.0861,-3.0674,-3.0154,-2.9825,-2.9805,-2.9208,-2.8641,-2.8293,-2.8725,0.0,0.0,0.0,0.0,-3.0829,-3.1714,-3.2122,-3.2151,-3.2849,-3.3143,-3.3058,-3.3507,-3.4005,-3.4549,-3.4831,-3.5162,-3.5554,-3.5748,-3.6067,-3.6492,-3.6616,-3.68,-3.7105,-3.7194,-3.7314,-3.7373,-3.3882,-3.3744,-3.3605,-3.3605,-3.3466,-3.3241,-3.3058,-3.2988,-3.2917,-3.2704,-3.2717,-3.3042,-3.3824,-3.3883,-3.3883,-3.3896,-3.3896,-3.4308,-3.5155,-3.5196,-3.5613,-3.6615,-3.6721,-3.6493,-3.6093,-3.555,-3.5018,-3.454,-3.3931,-3.3689,-3.3896,-3.3675,-3.3466,-3.3326,-3.3072,-3.2988,-3.2988,-3.2775,-3.2704,-3.2704,-3.2704,-3.309,-3.3583,-3.3583,-3.4104,-3.4854,-3.5004,-3.5226,-3.5362,-3.5196,-3.5136,-3.5065,-3.4896,-3.4396,-3.3911,-3.3896,-3.3896,-3.3896,-3.3896,-3.3896,-3.3896,-3.3896,-3.4005,-3.4128,-3.4346,-3.4549,-3.4383,-3.338,-3.284,-3.2377,-3.1847,-3.2135,-3.2437,-3.2602,0.0,-3.2951,-3.2565,-3.2504,-3.2283,-3.1662,-3.1372,-3.116,-3.116,-3.0927,-3.0775,-3.0775,-3.0775,-3.0328,-2.9443,-2.9613,0.0,-3.0769,-3.0648,0.0,-3.1972,-3.2463,-3.2738,-3.2911,-3.3362,-3.366,-3.3839,-3.4414,-3.475,-3.4935,-3.5294,-3.5539,-3.5752,-3.6289,-3.6492,-3.6554,-3.6877,-3.7105,-3.7178,-3.7358,-3.7492,-3.77,-3.3659,-3.3744,-3.3744,-3.3466,-3.3326,-3.3241,-3.3241,-3.3227,-3.3157,-3.2917,-3.2917,-3.2927,-3.3097,-3.3449,-3.3875,-3.4286,-3.4327,-3.441,-3.4678,-3.4844,-3.5093,-3.5363,-3.5605,-3.5658,-3.5522,-3.4843,-3.4349,-3.4052,0.0,0.0,0.0,-3.3466,-3.3396,-3.3326,-3.3241,-3.3143,-3.2988,-3.2917,-3.2917,-3.2917,-3.2917,-3.3127,-3.3393,-3.3393,-3.3519,-3.383,-3.3973,-3.42,-3.4383,-3.4378,-3.4513,-3.4582,-3.4513,-3.4384,-3.421,-3.421,-3.421,-3.421,-3.421,-3.421,-3.4278,-3.4428,-3.4496,-3.4549,-3.475,-3.5016,-3.4922,-3.3815,-3.3563,-3.3258,-3.2348,-3.2287,-3.2508,-3.285,-3.3081,0.0,-3.3201,-3.3323,-3.3329,-3.3054,-3.3022,-3.2921,-3.2681,-3.2289,-3.2003,-3.1785,-3.1902,-3.1451,-3.0293,0.0,0.0,0.0,-3.1819,0.0,-3.314,-3.3689,-3.4041,-3.4295,-3.4312,-3.4414,-3.4587,-3.5118,-3.5379,-3.5444,-3.5831,-3.61,-3.6289,-3.6538,-3.6785,-3.7013,-3.7089,-3.7329,-3.7567,-3.7567,-3.7685,-3.7876,-3.3371,-3.3587,-3.3675,-3.3466,-3.3129,-3.2974,-3.2974,-3.2974,-3.2905,-3.2807,-3.3003,-3.3072,-3.2931,-3.3292,0.0,-3.3822,-3.385,-3.3947,-3.4256,-3.4418,-3.4604,-3.4915,-3.5078,-3.504,-3.4727,-3.4262,0.0,-3.3473,-3.3268,-3.3157,-3.3157,-3.3241,-3.3326,-3.3326,-3.3326,-3.3241,-3.3143,-3.3143,-3.3143,-3.3143,-3.3143,-3.3157,-3.3326,-3.3326,-3.3326,-3.3466,-3.3605,-3.3813,-3.402,-3.4142,-3.4278,-3.4414,-3.4414,-3.4414,-3.4414,-3.4414,-3.4414,-3.4414,-3.4481,-3.4481,-3.4491,-3.4457,-3.4464,-3.4456,-3.4386,-3.4599,-3.4553,-3.3638,-3.3605,-3.3505,-3.2542,-3.2508,-3.2812,-3.315,-3.3309,-3.345,-3.3591,-3.3848,-3.3949,-3.3949,-3.3949,-3.3848,0.0,-3.3259,-3.2987,0.0,-3.3176,0.0,0.0,0.0,0.0,-3.2261,-3.3244,-3.3903,-3.4395,-3.4621,-3.4913,-3.5184,-3.5133,-3.5133,-3.5314,-3.5688,-3.5943,-3.6085,-3.6336,-3.6523,-3.6785,-3.6892,-3.7134,-3.7373,-3.7433,-3.7567,-3.7759,-3.7876,-3.7934,-3.8049,-3.2897,-3.326,-3.3534,-3.3548,-3.293,-3.2398,-3.2342,-3.2342,-3.2356,-3.2398,-3.2904,-3.3199,-3.3241,-3.3255,-3.3086,-3.2704,0.0,0.0,-3.3796,-3.3838,-3.4248,-3.4997,-3.5099,-3.4671,-3.3851,-3.3838,-3.3473,-3.2704,-3.2917,-3.2988,-3.2988,-3.3241,-3.3326,-3.3326,-3.3326,-3.3326,-3.3326,-3.3326,-3.3326,-3.3326,-3.3326,-3.3326,-3.3326,-3.3326,-3.3396,-3.3605,-3.3827,-3.402,-3.4128,-3.4346,-3.4414,-3.4414,-3.4414,-3.4414,-3.4414,-3.4414,-3.4414,-3.4481,-3.4631,-3.4668,-3.4545,-3.4124,-3.3997,-3.3868,-3.3572,-3.3607,-3.3593,-3.312,-3.3215,-3.3229,-3.2576,-3.2812,-3.315,-3.3309,-3.345,-3.3607,-3.3899,-3.405,-3.4151,-3.43,0.0,0.0,-3.4101,-3.3899,-3.3745,0.0,-3.4575,0.0,0.0,0.0,-3.4266,-3.4219,-3.4726,-3.5183,-3.5536,-3.5385,-3.546,-3.5752,-3.5752,-3.5894,-3.6037,-3.6211,-3.6461,-3.6723,-3.6785,-3.6952,-3.7254,-3.7358,-3.7551,-3.77,-3.7876,-3.7934,-3.7934,-3.8107,-3.8237,-3.8278,0.0,0.0,-3.2829,-3.2692,-3.2497,-3.2244,-3.178,-3.171,-3.1878,-3.2342,-3.2387,-3.2584,-3.3017,-3.2931,-3.2775,-3.2704,-3.3016,-3.3227,-3.3438,-3.3452,-3.3522,-3.3747,-3.3747,-3.3606,-3.3197,-3.3197,-3.3056,-3.2704,-3.2775,-3.2846,-3.2988,-3.3241,-3.3326,-3.3326,-3.3326,-3.3326,-3.3326,-3.3326,-3.3326,-3.3326,-3.3326,-3.3326,-3.3326,-3.3326,-3.3396,-3.3605,-3.3827,-3.402,-3.4128,-3.4346,-3.4414,-3.4414,-3.4414,-3.4414,-3.4414,-3.4414,-3.4481,-3.4631,-3.4698,-3.4464,-3.4168,-3.4184,-3.3958,-3.3726,-3.3683,-3.3894,-3.3951,-3.341,-3.3501,-3.347,-3.3006,-3.3096,-3.3309,-3.345,-3.3642,-3.3848,-3.405,-3.4151,-3.43,0.0,-3.4448,-3.4349,-3.425,-3.43,-3.425,0.0,0.0,-3.5426,-3.5442,-3.6152,-3.6126,-3.5142,-3.5618,-3.59,-3.5851,-3.6167,-3.6307,-3.6289,-3.6399,-3.6461,-3.6523,-3.6815,-3.7013,-3.7074,-3.7329,-3.7508,-3.7583,-3.7743,-3.7801,-3.7876,-3.7876,-3.7992,-3.8107,-3.8164,-3.8351,-3.8504,-3.1613,-3.1928,-3.2125,-3.1991,-3.1738,-3.1363,-3.1026,-3.0984,-3.103,-3.1299,-3.1443,-3.1667,-3.1972,-3.2194,-3.2289,-3.2289,-3.2764,-3.3016,-3.3016,-3.3016,-3.3016,-3.3016,-3.3016,-3.2931,-3.2704,-3.2704,-3.2632,-3.2431,-3.2561,-3.2632,-3.2704,-3.3002,-3.3157,-3.3157,-3.3241,-3.3326,-3.3326,-3.3326,-3.3326,-3.3326,-3.3326,-3.3326,-3.3326,-3.3326,-3.3466,-3.3744,-3.3896,-3.402,-3.4264,-3.4346,-3.4414,-3.4414,-3.4414,-3.4278,-3.4097,-3.4097,-3.4163,-3.431,-3.4427,-3.4085,-3.3636,-3.3496,-3.3186,-3.2883,-3.2985,-3.3218,-3.3284,-3.31,-3.3262,-3.3373,-3.3121,-3.3256,-3.345,-3.3555,-3.3813,-3.4163,-3.4655,-3.4939,-3.5087,-3.5087,-3.5136,-3.5005,-3.453,-3.4546,-3.4693,-3.4872,-3.5777,0.0,-3.6577,-3.7518,-3.7524,-3.6334,-3.6746,-3.6896,-3.6794,-3.6961,-3.7013,-3.6892,-3.7013,-3.7074,-3.715,-3.7329,-3.7449,-3.7508,-3.7685,-3.7817,-3.7934,-3.7992,-3.8049,-3.8107,-3.8221,-3.8278,-3.8391,-3.8432,-3.8544,-3.8711,-3.0437,-3.0965,-3.1345,-3.1345,-3.0895,-3.0423,-3.021,-3.0132,-3.0095,-2.9997,-3.0439,-3.073,-3.0827,-3.1295,-3.1599,-3.1599,-3.2067,-3.2439,-3.269,-3.2704,-3.2704,-3.2704,-3.2704,-3.2632,-3.2417,-3.2345,-3.2286,-3.2182,-3.2359,-3.2417,-3.2417,-3.2775,-3.2988,-3.2988,-3.3157,-3.3241,-3.3326,-3.3326,-3.3326,-3.3326,-3.3326,-3.3326,-3.3326,-3.3326,-3.3536,-3.3896,-3.3896,-3.4088,-3.4399,-3.4298,-3.4269,-3.4254,-3.4167,-3.3864,-3.3542,-3.3621,-3.3548,-3.3554,-3.3962,-3.358,-3.2987,-3.2631,-3.2176,-3.1898,-3.2135,-3.2302,-3.2453,-3.2648,-3.2881,-3.3112,-3.3096,-3.3361,-3.3555,-3.371,-3.4046,-3.4574,-3.5293,0.0,-3.6092,-3.6009,-3.5993,-3.5727,-3.5018,-3.4853,-3.5053,-3.5679,-3.6621,-3.7366,-3.783,-3.8644,-3.8597,-3.7611,-3.7842,-3.7876,-3.7759,-3.7551,-3.7476,-3.7476,-3.7476,-3.761,-3.7743,-3.7817,-3.7876,-3.7992,-3.7992,-3.8049,-3.8221,-3.8221,-3.8351,-3.8448,-3.856,-3.8616,-3.8672,-3.875,-3.8805,-3.886,-3.0224,-3.0535,-3.067,-3.067,-3.0471,-3.0155,-2.9638,-2.9428,-2.9495,-2.9941,-2.9948,-3.0076,-3.0678,-3.0692,-3.0609,-3.0609,-3.0691,-3.1293,-3.2635,-3.2704,-3.2704,-3.2704,-3.2704,-3.2632,-3.2417,-3.23,-3.2241,-3.2182,-3.2359,-3.2417,-3.2417,-3.2632,-3.2846,-3.2988,-3.3058,-3.3157,-3.3326,-3.3326,-3.3326,-3.3326,-3.3326,-3.3326,-3.3326,-3.3326,-3.3536,-3.3896,-3.3896,-3.4088,-3.4327,-3.379,-3.3616,-3.3514,-3.2977,-3.2794,-3.2884,-3.3088,-3.2815,-3.2552,-3.3161,-3.2972,-3.2512,-3.2043,-3.1959,-3.1996,-3.2135,-3.2413,-3.2648,-3.2843,-3.2989,-3.315,-3.3256,-3.3503,-3.3658,-3.371,-3.4568,-3.5312,-3.5511,0.0,-3.6768,-3.6886,-3.6489,-3.6105,-3.5989,-3.5518,-3.5482,-3.6217,-3.7017,-3.7703,-3.8301,-3.8927,-3.9098,-3.875,-3.8495,-3.8164,-3.7876,-3.7876,-3.7801,-3.7801,-3.7943,-3.8001,-3.8059,-3.8205,-3.8278,-3.8335,-3.8335,-3.8351,-3.8391,-3.8504,-3.856,-3.856,-3.8711,-3.875,-3.875,-3.8805,-3.886,-3.8969,-2.9586,-2.9706,-2.977,-2.977,-2.9706,-2.9545,-2.914,-2.8972,-2.9004,-2.9227,-2.9203,-2.9247,-2.9533,-2.978,-2.9903,-2.9903,-3.0215,-3.0705,-3.1445,-3.1472,-3.1472,-3.1472,-3.1472,-3.1416,-3.1346,-3.1289,-3.1219,-3.1219,-3.1276,-3.1346,-3.1346,-3.1556,-3.1681,-3.1764,-3.2291,-3.257,-3.2681,-3.3101,-3.3326,-3.3326,-3.3326,-3.3129,-3.2834,-3.2834,-3.2814,-3.2868,-3.2868,-3.3068,-3.334,-3.305,-3.2962,-3.2904,-3.2614,-3.2392,-3.235,-3.2426,-3.2389,-3.2378,-3.2318,-3.2228,-3.2103,-3.1974,-3.1996,-3.215,-3.2302,-3.2539,-3.2773,-3.2897,-3.3043,-3.3256,-3.3398,-3.3555,-3.3694,-3.3813,-3.4751,0.0,-3.6118,-3.7065,-3.7682,-3.7698,-3.7236,-3.6734,-3.6254,-3.5743,-3.5853,-3.693,-3.7398,-3.8036,-3.9057,-3.9337,-3.9432,-3.9148,-3.8821,-3.8544,-3.8359,-3.8359,-3.8359,-3.8359,-3.8455,-3.8455,-3.8455,-3.8583,-3.86,-3.86,-3.86,-3.86,-3.86,-3.8711,-3.8711,-3.8711,-3.886,-3.8914,-3.8914,-3.904,-3.9094,-3.9148,-2.8944,-2.9099,-2.9099,-2.9099,-2.9035,-2.8972,-2.8844,-2.8716,-2.8651,-2.8509,-2.8522,-2.8471,-2.8471,-2.8928,-2.9199,-2.9199,-2.9713,-2.9984,-2.9984,-2.9984,-3.012,-3.0405,-3.0405,-3.0405,-3.0405,-3.0405,-3.0405,-3.0405,-3.0405,-3.0405,-3.0405,-3.0542,-3.0678,-3.0706,-3.1474,-3.1805,-3.1901,-3.2541,-3.2821,-3.289,-3.289,-3.2609,-3.2188,-3.2188,-3.2079,-3.1982,-3.1982,-3.2241,-3.2498,-3.2338,-3.228,-3.2266,-3.2121,-3.1977,-3.1824,-3.181,-3.205,-3.2183,-3.1616,-3.167,-3.1841,-3.194,-3.2094,-3.2247,-3.2342,-3.2648,-3.2897,-3.2897,-3.3096,-3.3346,-3.345,-3.3607,-3.3745,-3.3899,0.0,-3.584,-3.6577,-3.7663,-3.8351,-3.8264,-3.7803,-3.7151,-3.6367,-3.582,-3.603,-3.723,-3.7427,-3.7999,-3.9159,-3.9394,-3.9458,-3.9432,-3.904,-3.8805,-3.8805,-3.8805,-3.8805,-3.8805,-3.886,-3.886,-3.886,-3.886,-3.886,-3.886,-3.8805,-3.8805,-3.8805,-3.886,-3.886,-3.886,-3.9023,-3.9094,-3.9077,-3.902,-3.9023,-3.9007,-2.8671,-2.8972,-2.9099,-2.9099,-2.8972,-2.8844,-2.878,-2.8573,-2.8352,-2.8287,-2.8197,-2.8145,-2.8145,-2.8289,-2.8419,-2.8419,-2.8617,-2.8722,-2.8722,-2.8722,-2.9224,-3.0364,-3.0405,-3.0405,-3.0405,-3.0405,-3.0405,-3.0405,-3.0405,-3.0405,-3.0405,-3.0405,-3.0542,-3.0678,-3.0788,-3.1005,-3.1246,-3.1355,-3.1464,-3.1626,-3.1626,-3.1597,-3.1555,-3.1555,-3.1778,-3.1982,-3.1982,-3.2241,-3.2425,-3.1801,-3.1598,-3.1496,-3.1083,-3.1057,-3.1205,-3.1308,-3.1483,-3.1541,-3.1482,-3.167,-3.1841,-3.194,-3.2094,-3.2247,-3.2342,-3.2648,-3.2897,-3.2897,-3.3096,-3.3346,-3.345,-3.3607,-3.3745,-3.3899,0.0,0.0,-3.6577,-3.7576,-3.8264,-3.8385,-3.787,-3.7216,-3.6525,-3.5925,-3.5915,-3.6806,-3.6857,-3.7165,-3.7814,-3.8521,-3.9093,-3.9661,-3.9077,-3.8805,-3.8805,-3.8805,-3.8805,-3.8805,-3.8914,-3.8969,-3.8969,-3.8969,-3.8969,-3.8969,-3.886,-3.8805,-3.8805,-3.8914,-3.8969,-3.9023,-3.9202,-3.9272,-3.9189,-3.8543,-3.8295,-3.8195,-2.7872,-2.8107,-2.8343,-2.8712,-2.8716,-2.8651,-2.8509,-2.8352,-2.83,-2.8197,-2.8131,-2.8079,-2.8079,-2.8131,-2.8197,-2.8197,-2.8314,-2.843,-2.843,-2.8522,-2.8804,-2.9265,-2.9279,-2.9279,-2.9279,-2.9279,-2.9279,-2.9279,-2.9279,-2.9279,-2.9279,-2.9279,-2.9345,-2.9424,-2.9925,-3.029,-3.0502,-3.101,-3.1324,-3.1485,-3.1485,-3.1246,-3.0895,-3.1025,-3.0977,-3.0825,-3.0922,-3.1123,-3.1279,-3.1018,-3.093,-3.0962,-3.0835,-3.0955,-3.1132,-3.1351,-3.1467,-3.1482,-3.1482,-3.1712,-3.1955,-3.1996,-3.2135,-3.2342,-3.2523,-3.2718,-3.2897,-3.3005,-3.3256,-3.345,-3.3607,-3.3745,-3.3848,-3.4,0.0,-3.5693,-3.5971,-3.69,-3.7584,-3.7719,-3.7185,-3.6714,-3.6522,-3.5954,-3.5943,-3.6721,-3.6772,-3.711,-3.7807,-3.8469,-3.8891,-3.911,-3.927,-3.9345,-3.9345,-3.9255,-3.9202,-3.9202,-3.9202,-3.9202,-3.9202,-3.9202,-3.9202,-3.9185,-3.8632,-3.8434,-3.8418,-3.8008,-3.781,-3.781,-3.7982,-3.7982,-3.7897,-3.7734,-3.7584,-3.7483,-2.7001,-2.7234,-2.7493,-2.7836,-2.7904,-2.7904,-2.7685,-2.7608,-2.7557,-2.7455,-2.7404,-2.7404,-2.7404,-2.7563,-2.7734,-2.7734,-2.8011,-2.8235,-2.8287,-2.8509,-2.8587,-2.8587,-2.8587,-2.8587,-2.8587,-2.8587,-2.8587,-2.8587,-2.8587,-2.8587,-2.8587,-2.8587,-2.8587,-2.86,-2.9152,-2.9525,-2.9748,-3.0294,-3.0685,-3.0895,-3.0895,-3.0642,-3.0235,-3.0411,-3.0358,-3.0111,-3.0266,-3.0447,-3.0568,-3.0568,-3.0642,-3.0702,-3.0821,-3.1073,-3.1249,-3.1424,-3.1482,-3.1539,-3.1597,-3.1769,-3.1996,-3.1996,-3.2191,-3.2453,-3.2578,-3.2773,-3.2951,-3.3043,-3.3293,-3.3555,-3.3658,-3.3797,-3.3949,-3.4151,-3.4774,-3.5382,-3.5662,-3.634,-3.6854,-3.7052,-3.6697,-3.639,-3.6215,-3.5819,-3.5842,-3.6366,-3.6417,-3.6738,-3.7516,-3.7945,-3.8385,-3.8857,-3.9278,-3.9597,-3.9816,-3.9642,-3.9537,-3.9501,-3.9395,-3.9325,-3.9272,-3.904,-3.8994,-3.8997,-3.8231,-3.7915,-3.7934,-3.7419,-3.7219,-3.7219,-3.732,-3.732,-3.7186,-3.7053,-3.697,-3.6887,-2.6174,-2.643,-2.6505,-2.6307,-2.6444,-2.6518,-2.6307,-2.6184,-2.6122,-2.6122,-2.5936,-2.5824,-2.5824,-2.6448,-2.6918,-2.6918,-2.7589,-2.8118,-2.8274,-2.8509,-2.8587,-2.8587,-2.8587,-2.8587,-2.8587,-2.8587,-2.8587,-2.8587,-2.8587,-2.8587,-2.8587,-2.8587,-2.8587,-2.8587,-2.8587,-2.878,-2.9099,-2.9099,-2.9289,-2.9602,-2.9602,-2.9602,-2.9602,-2.9761,-2.996,-3.0111,-3.0266,-3.0447,-3.0568,-3.0568,-3.0702,-3.0821,-3.1014,-3.1307,-3.1482,-3.1482,-3.1482,-3.1539,-3.1727,-3.1898,-3.1996,-3.1996,-3.2191,-3.2453,-3.2578,-3.2773,-3.2951,-3.3058,-3.3309,-3.3555,-3.371,-3.3797,-3.4,-3.425,-3.4399,-3.4857,-3.5844,-3.6107,-3.6284,-3.6488,-3.6488,-3.6249,-3.5645,-3.5622,-3.5622,-3.5622,-3.5622,-3.596,-3.6721,-3.6772,-3.7449,-3.8937,-3.8988,-3.9326,-4.0054,-3.9816,-3.9625,-3.9484,-3.9484,-3.9432,-3.9292,-3.8526,-3.8247,-3.8335,-3.7619,-3.7369,-3.7468,-3.7468,-3.7468,-3.7468,-3.7468,-3.7468,-3.7368,-3.6681,-3.6396,-3.6296,-2.5408,-2.5635,-2.5888,-2.6228,-2.6369,-2.6307,-2.6184,-2.6122,-2.606,-2.5874,-2.5824,-2.5824,-2.5824,-2.5968,-2.6136,-2.6136,-2.6483,-2.684,-2.709,-2.7557,-2.785,-2.7963,-2.837,-2.8587,-2.8587,-2.8587,-2.8587,-2.8587,-2.8587,-2.8587,-2.8587,-2.8587,-2.8587,-2.8587,-2.8716,-2.8844,-2.9099,-2.9226,-2.9415,-2.9602,-2.9602,-2.9665,-2.9761,-2.9974,-3.0097,-3.0266,-3.0447,-3.0568,-3.0628,-3.0702,-3.0762,-3.0821,-3.1117,-3.1351,-3.1539,-3.167,-3.1727,-3.1727,-3.1883,-3.2038,-3.215,-3.215,-3.2358,-3.2578,-3.2773,-3.2951,-3.3112,-3.3346,-3.3503,-3.371,-3.3813,-3.405,-3.4201,-3.43,-3.4497,-3.4773,-3.5197,-3.5326,-3.5515,-3.5765,-3.5811,-3.5756,-3.5594,-3.5622,-3.5622,-3.5622,-3.5622,-3.5723,-3.596,-3.6485,-3.6975,-3.7432,-3.7956,-3.8328,-3.8548,-3.943,-3.9546,-3.8992,-3.8924,-3.8571,-3.802,-3.7803,-3.7753,-3.7703,-3.7017,-3.6699,-3.6697,-3.6178,-3.5961,-3.5961,-3.6055,-3.6055,-3.5927,-3.5803,-3.5736,-3.5592,-2.4629,-2.4846,-2.507,-2.5321,-2.5374,-2.5374,-2.5132,-2.5132,-2.5071,-2.4961,-2.4961,-2.4961,-2.4961,-2.5218,-2.5348,-2.5348,-2.5805,-2.6184,-2.6382,-2.6854,-2.718,-2.7242,-2.7642,-2.8112,-2.8587,-2.8587,-2.8478,-2.8234,-2.8234,-2.8125,-2.7895,-2.7895,-2.7895,-2.7895,-2.8252,-2.8551,-2.8754,-2.9192,-2.9477,-2.9602,-2.9602,-2.9651,-2.9822,-3.0036,-3.0158,-3.0312,-3.0507,-3.0568,-3.0642,-3.0762,-3.0881,-3.1058,-3.1292,-3.1482,-3.167,-3.1727,-3.1841,-3.1898,-3.2038,-3.215,-3.2247,-3.2302,-3.2468,-3.2648,-3.2951,-3.3112,-3.3256,-3.345,-3.3658,-3.3797,-3.3949,-3.4151,-3.4349,-3.4448,-3.4643,-3.4835,-3.5041,-3.5198,-3.5337,-3.552,-3.552,-3.5549,-3.5577,-3.5622,-3.5622,-3.5622,-3.5622,-3.5622,-3.5622,-3.6062,-3.6468,-3.6772,-3.7229,-3.7601,-3.7905,-3.8687,-3.8874,-3.8369,-3.827,-3.7986,-3.7468,-3.7184,-3.7082,-3.7064,-3.6343,-3.6055,-3.6051,-3.5597,-3.5412,-3.5412,-3.552,-3.5475,-3.5412,-3.552,-3.5475,-3.5412,-2.3878,-2.4086,-2.4131,-2.3936,-2.3949,-2.3936,-2.3628,-2.3628,-2.3628,-2.3628,-2.3628,-2.3628,-2.3628,-2.4197,-2.4615,-2.4615,-2.5415,-2.5902,-2.5964,-2.6276,-2.6499,-2.6499,-2.6675,-2.7325,-2.841,-2.8438,-2.8166,-2.7623,-2.7623,-2.7352,-2.6823,-2.6823,-2.6823,-2.6837,-2.7537,-2.7968,-2.816,-2.8962,-2.9324,-2.9448,-2.9448,-2.9558,-2.9652,-2.9936,-3.0133,-3.024,-3.0493,-3.0568,-3.0568,-3.0762,-3.0999,-3.1351,-3.1409,-3.1552,-3.1694,-3.1694,-3.1762,-3.187,-3.2023,-3.2078,-3.2118,-3.2408,-3.2462,-3.2532,-3.2933,-3.3061,-3.3171,-3.3328,-3.3569,-3.3772,-3.3906,-3.4055,-3.4235,-3.4544,-3.4736,-3.4911,-3.5228,-3.54,-3.552,-3.5577,-3.5622,-3.5622,-3.5622,-3.5622,-3.5622,-3.5622,-3.5622,-3.5622,-3.5622,-3.5622,-3.5943,-3.6654,-3.6671,-3.7009,-3.7702,-3.7702,-3.7689,-3.7595,-3.7595,-3.753,-3.73,-3.6614,-3.6374,-3.637,-3.5761,-3.5566,-3.5622,-3.5622,-3.5622,-3.5622,-3.5622,-3.5622,-3.5622,-3.5622,-3.5622,-3.5622,-2.3539,-2.3688,-2.3734,-2.3688,-2.3688,-2.3688,-2.3628,-2.3628,-2.3628,-2.3628,-2.3628,-2.3628,-2.3628,-2.3731,-2.3867,-2.3867,-2.4175,-2.4478,-2.4675,-2.5183,-2.5628,-2.5854,-2.6385,-2.6823,-2.7203,-2.7203,-2.7149,-2.7026,-2.7026,-2.6945,-2.6823,-2.6823,-2.6823,-2.6823,-2.7248,-2.7423,-2.7497,-2.7935,-2.8169,-2.8169,-2.8288,-2.845,-2.8596,-2.9287,-2.9592,-2.9649,-3.0199,-3.0387,-3.0387,-3.0702,-3.0999,-3.1278,-3.1351,-3.1165,-3.097,-3.1097,-3.0897,-3.0632,-3.0738,-3.0859,-3.1,-3.114,-3.1259,-3.1502,-3.2258,-3.2111,-3.1865,-3.2127,-3.2224,-3.2321,-3.256,-3.2749,-3.3023,-3.3752,-3.4038,-3.4422,-3.5207,-3.54,-3.552,-3.5577,-3.5622,-3.5622,-3.5622,-3.5622,-3.5622,-3.5622,-3.5622,-3.5622,-3.5622,-3.5622,-3.569,-3.5859,-3.5876,-3.596,-3.6113,-3.6113,-3.6417,-3.6979,-3.6979,-3.6658,-3.6021,-3.5852,-3.5785,-3.5814,-3.5645,-3.5577,-3.5622,-3.5622,-3.5622,-3.5622,-3.5622,-3.5622,-3.5622,-3.5622,-3.5622,-3.5622,-2.2643,-2.2923,-2.3114,-2.2984,-2.3153,-2.3271,-2.315,-2.315,-2.315,-2.315,-2.321,-2.3271,-2.3271,-2.339,-2.3509,-2.3569,-2.37,-2.3865,-2.4086,-2.4446,-2.478,-2.5047,-2.5486,-2.5778,-2.5837,-2.5896,-2.609,-2.6375,-2.6375,-2.624,-2.5955,-2.5955,-2.5955,-2.5968,-2.662,-2.6876,-2.6889,-2.7533,-2.7776,-2.7834,-2.7951,-2.8053,-2.824,-2.8742,-2.8929,-2.903,-2.9304,-2.9478,-2.9551,-2.9726,-3.0072,-3.0413,-3.0413,-3.0398,-3.0401,-3.047,-3.0426,-3.0308,-3.0376,-3.0516,-3.0654,-3.0756,-3.0673,-3.0759,-3.1652,-3.1658,-3.155,-3.1774,-3.187,-3.1965,-3.2245,-3.2338,-3.259,-3.3073,-3.3411,-3.3874,-3.4655,-3.4936,-3.5161,-3.5526,-3.5622,-3.5622,-3.5622,-3.5622,-3.5622,-3.5622,-3.5622,-3.5622,-3.5622,-3.5622,-3.5622,-3.5622,-3.5622,-3.5622,-3.5622,-3.5622,-3.5825,-3.6322,-3.6276,-3.6011,-3.5622,-3.5667,-3.5684,-3.5711,-3.5756,-3.58,-3.58,-3.5711,-3.5684,-3.5633,-3.5233,-3.5081,-3.503,-3.4692,-3.4556,-3.4573,-2.1579,-2.1983,-2.2311,-2.2126,-2.2384,-2.2575,-2.2468,-2.2407,-2.2407,-2.2407,-2.2515,-2.2613,-2.276,-2.31,-2.339,-2.3569,-2.3569,-2.3641,-2.3832,-2.3995,-2.4099,-2.4247,-2.4536,-2.4721,-2.4778,-2.4892,-2.5192,-2.5738,-2.5738,-2.5493,-2.5005,-2.5005,-2.5005,-2.5032,-2.5835,-2.6183,-2.6268,-2.7069,-2.7409,-2.7453,-2.7568,-2.7726,-2.7897,-2.8125,-2.8225,-2.8239,-2.8397,-2.8497,-2.8624,-2.8681,-2.8946,-2.9332,-2.9347,-2.9544,-2.9788,-2.9773,-2.9907,-3.0022,-3.0022,-3.0176,-3.0313,-3.0413,-3.0141,-3.0053,-3.0879,-3.1134,-3.1294,-3.1452,-3.1546,-3.1732,-3.1962,-3.2007,-3.213,-3.2453,-3.2767,-3.3165,-3.3902,-3.4189,-3.459,-3.5334,-3.5537,-3.5622,-3.5622,-3.5622,-3.5622,-3.5622,-3.5622,-3.5622,-3.5622,-3.5622,-3.5622,-3.5622,-3.5622,-3.5622,-3.5622,-3.5622,-3.5684,-3.5817,-3.5711,-3.5667,-3.5667,-3.5756,-3.5817,-3.5861,-3.5932,-3.6019,-3.5958,-3.5725,-3.563,-3.5545,-3.4694,-3.4346,-3.4278,-3.3668,-3.3448,-3.3448,-2.1082,-2.1243,-2.1292,-2.1292,-2.1297,-2.1346,-2.1289,-2.1289,-2.1289,-2.1289,-2.1346,-2.1576,-2.2151,-2.2742,-2.321,-2.339,-2.3463,-2.3522,-2.3628,-2.3819,-2.4008,-2.4112,-2.4247,-2.4478,-2.462,-2.462,-2.4818,-2.5127,-2.5127,-2.5086,-2.5005,-2.5005,-2.5005,-2.5005,-2.5256,-2.5353,-2.5367,-2.5702,-2.5897,-2.598,-2.6146,-2.6256,-2.6477,-2.7197,-2.7341,-2.7286,-2.784,-2.814,-2.8269,-2.8497,-2.8708,-2.8987,-2.9098,-2.8961,-2.8832,-2.8921,-2.8769,-2.8511,-2.8511,-2.8755,-2.9075,-2.9075,-2.9124,-2.9295,-2.9683,-2.9761,-2.9836,-3.0121,-3.015,-3.0238,-3.044,-3.05,-3.0783,-3.1626,-3.1957,-3.2412,-3.3148,-3.3431,-3.3829,-3.4556,-3.5216,-3.5622,-3.5622,-3.5622,-3.5622,-3.5622,-3.5622,-3.5622,-3.5622,-3.5622,-3.5622,-3.5622,-3.5622,-3.5622,-3.5622,-3.5728,-3.5773,-3.5817,-3.5888,-3.5932,-3.5932,-3.5975,-3.5975,-3.5975,-3.5975,-3.6019,-3.5924,-3.5292,-3.5036,-3.4951,-3.4123,-3.3816,-3.3775,-3.3624,-3.359,-3.359,-2.0096,-2.0336,-2.0501,-2.0501,-2.0689,-2.084,-2.084,-2.084,-2.084,-2.084,-2.0897,-2.1039,-2.1329,-2.2067,-2.2568,-2.2698,-2.3034,-2.333,-2.345,-2.3582,-2.37,-2.3806,-2.4041,-2.4216,-2.4345,-2.4505,-2.4677,-2.4778,-2.4778,-2.4778,-2.4892,-2.4892,-2.4948,-2.5005,-2.5118,-2.5174,-2.523,-2.5425,-2.555,-2.5592,-2.5798,-2.5948,-2.603,-2.6531,-2.6631,-2.6564,-2.6833,-2.7044,-2.7154,-2.7319,-2.7646,-2.7968,-2.8021,-2.8107,-2.8141,-2.8228,-2.8217,-2.8186,-2.8186,-2.8493,-2.8794,-2.8794,-2.9014,-2.9259,-2.9473,-2.9563,-2.9653,-2.9874,-2.9918,-2.9946,-3.0146,-3.0189,-3.0389,-3.0915,-3.1149,-3.1583,-3.2378,-3.2572,-3.2967,-3.3795,-3.4184,-3.4387,-3.4387,-3.4387,-3.4387,-3.4387,-3.4387,-3.4387,-3.4387,-3.4387,-3.4387,-3.4387,-3.4387,-3.4387,-3.4387,-3.443,-3.4516,-3.4627,-3.4669,-3.5156,-3.6019,-3.6079,-3.6122,-3.6088,-3.5719,-3.5555,-3.5503,-3.4682,-3.4316,-3.4247,-3.3396,-3.2849,-3.2491,-3.2429,-3.2429,-3.2429]}]]